[[{"header":{"parameterUnit":"m.s-1","parameterCategory":1,"la1":30.6,"la2":29.2853,"lo1":-89.7004,"lo2":-87.6739,"dy":0.0162,"dx":0.0183,"nx":112,"ny":82,"refTime":"2023-05-20T12:00:00:Z","depth":0,"parameterNumber":2,"parameterNumberName":"U-component_of_WINDS"},"data":[0.0,0.0,0.0,0.0,0.0,0.0,0.0,0.0,0.0,0.0,0.0,0.0,0.0,0.0,0.0,0.0,0.0,0.0,0.0,0.0,0.0,0.0,0.0,0.0,0.0,0.0,0.0,0.0,0.0,0.0,0.0,0.0,0.0,0.0,0.0,0.0,0.0,0.0,0.0,0.0,0.0,0.0,0.0,0.0,0.0,0.0,0.0,0.0,0.0,0.0,0.0,0.0,0.0,0.0,0.0,0.0,0.0,0.0,0.0,0.0,0.0,0.0,0.0,0.0,0.0,0.0,0.0,0.0,0.0,0.0,0.0,0.0,0.0,0.0,0.0,0.0,0.0,0.0,0.0,0.0,0.0,0.0,0.0,0.0,0.0,0.0,0.0,0.0,0.0,0.0,0.0,1.8807,2.1945,2.3847,2.3746,2.3659,2.1883,1.7922,0.0,0.0,0.0,0.0,0.0,0.0,0.0,0.0,0.0,0.0,0.0,0.0,0.0,0.0,0.0,0.0,0.0,0.0,0.0,0.0,0.0,0.0,0.0,0.0,0.0,0.0,0.0,0.0,0.0,0.0,0.0,0.0,0.0,0.0,0.0,0.0,0.0,0.0,0.0,0.0,0.0,0.0,0.0,0.0,0.0,0.0,0.0,0.0,0.0,0.0,0.0,0.0,0.0,0.0,0.0,0.0,0.0,0.0,0.0,0.0,0.0,0.0,0.0,0.0,0.0,0.0,0.0,0.0,0.0,0.0,0.0,0.0,0.0,0.0,0.0,0.0,0.0,0.0,0.0,0.0,0.0,0.0,0.0,0.0,0.0,0.0,0.0,0.0,0.0,0.0,0.0,0.0,0.0,0.0,0.0,0.0,0.0,0.0,0.0,0.0,0.0,0.0,0.0,0.0,1.7618,2.1109,2.2917,2.3673,2.3091,2.2585,2.0798,1.7347,0.0,0.0,0.0,0.0,0.0,0.0,0.0,0.0,0.0,0.0,0.0,0.0,0.0,0.0,0.0,0.0,0.0,0.0,0.0,0.0,0.0,0.0,0.0,0.0,0.0,0.0,0.0,0.0,0.0,0.0,0.0,0.0,0.0,0.0,0.0,0.0,0.0,0.0,0.0,0.0,0.0,0.0,0.0,0.0,0.0,0.0,0.0,0.0,0.0,0.0,0.0,0.0,0.0,0.0,0.0,0.0,0.0,0.0,0.0,0.0,0.0,0.0,0.0,0.0,0.0,0.0,0.0,0.0,0.0,0.0,0.0,0.0,0.0,0.0,0.0,0.0,0.0,0.0,0.0,0.0,0.0,0.0,0.0,0.0,0.0,0.0,0.0,0.0,0.0,0.0,0.0,0.0,0.0,0.0,0.0,0.0,0.0,0.0,0.0,0.0,0.0,0.0,0.0,1.657,1.8144,2.1135,2.1975,2.2352,2.2425,2.1525,1.9826,1.717,1.684,0.0,0.0,0.0,0.0,0.0,0.0,0.0,0.0,0.0,0.0,0.0,0.0,0.0,0.0,0.0,0.0,0.0,0.0,0.0,0.0,0.0,0.0,0.0,0.0,0.0,0.0,0.0,0.0,0.0,0.0,0.0,0.0,0.0,0.0,0.0,0.0,0.0,0.0,0.0,0.0,0.0,0.0,0.0,0.0,0.0,0.0,0.0,0.0,0.0,0.0,0.0,0.0,0.0,0.0,0.0,0.0,0.0,0.0,0.0,0.0,0.0,0.0,0.0,0.0,0.0,0.0,0.0,0.0,0.0,0.0,0.0,0.0,0.0,0.0,0.0,0.0,0.0,0.0,0.0,0.0,0.0,0.0,0.0,0.0,0.0,0.0,0.0,0.0,0.0,0.0,0.0,0.0,0.0,0.0,0.0,0.0,0.0,0.0,0.0,0.0,0.0,0.0,1.7436,1.8817,2.0585,2.0915,2.1148,2.1511,2.0654,1.9155,1.6924,1.6207,0.0,0.0,0.0,0.0,0.0,0.0,0.0,0.0,0.0,0.0,0.0,0.0,0.0,0.0,0.0,0.0,0.0,0.0,0.0,0.0,0.0,0.0,0.0,0.0,0.0,0.0,0.0,0.0,0.0,0.0,0.0,0.0,0.0,0.0,0.0,0.0,0.0,0.0,0.0,0.0,0.0,0.0,0.0,0.0,0.0,0.0,0.0,0.0,0.0,0.0,0.0,0.0,0.0,0.0,0.0,0.0,0.0,0.0,0.0,0.0,0.0,0.0,0.0,0.0,0.0,0.0,0.0,0.0,0.0,0.0,0.0,0.0,0.0,0.0,0.0,0.0,0.0,0.0,0.0,0.0,0.0,0.0,0.0,0.0,0.0,0.0,0.0,0.0,0.0,0.0,0.0,0.0,0.0,0.0,0.0,0.0,0.0,0.0,0.0,0.0,0.0,0.0,1.855,1.9976,2.0146,2.0669,2.0785,2.0277,2.0146,1.8955,1.6223,1.5964,0.0,0.0,0.0,0.0,0.0,0.0,0.0,0.0,0.0,0.0,0.0,0.0,0.0,0.0,0.0,0.0,0.0,0.0,0.0,0.0,0.0,0.0,0.0,0.0,0.0,0.0,0.0,0.0,0.0,0.0,0.0,0.0,0.0,0.0,0.0,0.0,0.0,0.0,0.0,0.0,0.0,0.0,0.0,0.0,0.0,0.0,0.0,0.0,0.0,0.0,0.0,0.0,0.0,0.0,0.0,0.0,0.0,0.0,0.0,0.0,0.0,0.0,0.0,0.0,0.0,0.0,0.0,0.0,0.0,0.0,0.0,0.0,0.0,0.0,0.0,0.0,0.0,0.0,0.0,0.0,0.0,0.0,0.0,0.0,0.0,0.0,0.0,0.0,0.0,0.0,0.0,0.0,0.0,0.0,0.0,0.0,0.0,0.0,0.0,0.0,0.0,0.0,1.7774,1.9037,0.0,1.9928,1.9885,2.0088,1.9725,1.8498,1.6141,0.0,0.0,0.0,0.0,0.0,0.0,0.0,0.0,0.0,0.0,0.0,0.0,0.0,0.0,0.0,0.0,0.0,0.0,0.0,0.0,0.0,0.0,0.0,0.0,0.0,0.0,0.0,0.0,0.0,0.0,0.0,0.0,0.0,0.0,0.0,0.0,0.0,0.0,0.0,0.0,0.0,0.0,0.0,0.0,0.0,0.0,0.0,0.0,0.0,0.0,0.0,0.0,0.0,0.0,0.0,0.0,0.0,0.0,0.0,0.0,0.0,0.0,0.0,0.0,0.0,0.0,0.0,0.0,0.0,0.0,0.0,0.0,0.0,0.0,0.0,0.0,0.0,0.0,0.0,0.0,0.0,0.0,0.0,0.0,0.0,0.0,0.0,0.0,0.0,0.0,0.0,0.0,0.0,0.0,0.0,0.0,0.0,0.0,0.0,0.0,0.0,0.0,1.6659,1.7574,1.8596,0.0,1.9377,1.929,1.974,1.9362,1.8204,1.6091,0.0,0.0,0.0,0.0,0.0,0.0,0.0,0.0,0.0,0.0,0.0,0.0,0.0,0.0,0.0,0.0,0.0,0.0,0.0,0.0,0.0,0.0,0.0,0.0,0.0,0.0,0.0,0.0,0.0,0.0,0.0,0.0,0.0,0.0,0.0,0.0,0.0,0.0,0.0,0.0,0.0,0.0,0.0,0.0,0.0,0.0,0.0,0.0,0.0,0.0,0.0,0.0,0.0,0.0,0.0,0.0,0.0,0.0,0.0,0.0,0.0,0.0,0.0,0.0,0.0,0.0,0.0,0.0,0.0,0.0,0.0,0.0,0.0,0.0,0.0,0.0,0.0,0.0,0.0,0.0,0.0,0.0,0.0,0.0,0.0,0.0,0.0,0.0,0.0,0.0,0.0,0.0,0.0,0.0,0.0,0.0,0.0,0.0,0.0,0.0,0.0,0.0,1.7399,1.8398,1.9101,1.9101,1.9101,1.9101,1.9101,1.9101,1.819,0.0,0.0,0.0,0.0,0.0,0.0,0.0,0.0,0.0,0.0,0.0,0.0,0.0,0.0,0.0,0.0,0.0,0.0,0.0,0.0,0.0,0.0,0.0,0.0,0.0,0.0,0.0,0.0,0.0,0.0,0.0,0.0,0.0,0.0,0.0,0.0,0.0,0.0,0.0,0.0,0.0,0.0,0.0,0.0,0.0,0.0,0.0,0.0,0.0,0.0,0.0,0.0,0.0,0.0,0.0,0.0,0.0,0.0,0.0,0.0,0.0,0.0,0.0,0.0,0.0,0.0,0.0,0.0,0.0,0.0,0.0,0.0,0.0,0.0,0.0,0.0,0.0,0.0,0.0,0.0,0.0,0.0,0.0,0.0,0.0,0.0,0.0,0.0,0.0,0.0,0.0,0.0,0.0,0.0,0.0,0.0,0.0,0.0,0.0,0.0,0.0,0.0,0.0,1.7325,1.8361,1.9101,1.9101,1.9101,1.9101,1.9101,1.9101,1.819,1.6018,0.0,0.0,0.0,0.0,0.0,0.0,0.0,0.0,0.0,0.0,0.0,0.0,0.0,0.0,0.0,0.0,0.0,0.0,0.0,0.0,0.0,0.0,0.0,0.0,0.0,0.0,0.0,0.0,0.0,0.0,0.0,0.0,0.0,0.0,0.0,0.0,0.0,0.0,0.0,0.0,0.0,0.0,0.0,0.0,0.0,0.0,0.0,0.0,0.0,0.0,0.0,0.0,0.0,0.0,0.0,0.0,0.0,0.0,0.0,0.0,0.0,0.0,0.0,0.0,0.0,0.0,0.0,0.0,0.0,0.0,0.0,0.0,0.0,0.0,0.0,0.0,0.0,0.0,0.0,0.0,0.0,0.0,0.0,0.0,0.0,0.0,0.0,0.0,0.0,0.0,0.0,0.0,0.0,0.0,0.0,0.0,0.0,0.0,0.0,0.0,0.0,0.0,1.757,1.8541,1.9199,1.9101,1.9101,1.9101,1.9101,1.8936,1.8115,1.642,0.0,0.0,0.0,0.0,0.0,0.0,0.0,0.0,0.0,0.0,0.0,0.0,0.0,0.0,0.0,0.0,0.0,0.0,0.0,0.0,0.0,0.0,0.0,0.0,0.0,0.0,0.0,0.0,0.0,0.0,0.0,0.0,0.0,0.0,0.0,0.0,0.0,0.0,0.0,0.0,0.0,0.0,0.0,0.0,0.0,0.0,0.0,0.0,0.0,0.0,0.0,0.0,0.0,0.0,0.0,0.0,0.0,0.0,0.0,0.0,0.0,0.0,0.0,0.0,0.0,0.0,0.0,0.0,0.0,0.0,0.0,0.0,0.0,0.0,0.0,0.0,0.0,0.0,0.0,0.0,0.0,0.0,0.0,0.0,0.0,0.0,0.0,0.0,0.0,0.0,0.0,0.0,0.0,0.0,0.0,0.0,0.0,0.0,0.0,0.0,0.0,0.0,1.8068,1.8869,1.9384,1.9139,1.9101,1.9101,1.9101,1.8784,1.8079,1.6987,0.0,0.0,0.0,0.0,0.0,0.0,0.0,0.0,0.0,0.0,0.0,0.0,0.0,0.0,0.0,0.0,0.0,0.0,0.0,0.0,0.0,0.0,0.0,0.0,0.0,0.0,0.0,0.0,0.0,0.0,0.0,0.0,0.0,0.0,0.0,0.0,0.0,0.0,0.0,0.0,0.0,0.0,0.0,0.0,0.0,0.0,0.0,0.0,0.0,0.0,0.0,0.0,0.0,0.0,0.0,0.0,0.0,0.0,0.0,0.0,2.0526,0.0,0.0,0.0,0.0,0.0,0.0,0.0,0.0,0.0,0.0,0.0,0.0,0.0,0.0,0.0,0.0,0.0,0.0,0.0,0.0,0.0,0.0,0.0,0.0,0.0,0.0,0.0,0.0,0.0,0.0,0.0,0.0,0.0,0.0,0.0,0.0,0.0,0.0,0.0,0.0,0.0,1.8028,1.8869,1.9384,1.9139,1.9101,1.9101,1.9101,1.9026,1.8361,1.6987,1.6671,0.0,0.0,0.0,0.0,0.0,0.0,0.0,0.0,0.0,0.0,0.0,0.0,0.0,0.0,0.0,0.0,0.0,0.0,0.0,0.0,0.0,0.0,0.0,0.0,0.0,0.0,0.0,0.0,0.0,0.0,0.0,0.0,0.0,0.0,0.0,0.0,0.0,0.0,0.0,0.0,0.0,0.0,0.0,0.0,0.0,0.0,0.0,0.0,0.0,0.0,0.0,0.0,0.0,0.0,0.0,0.0,0.0,0.0,0.0,0.0,2.1414,0.0,0.0,0.0,0.0,0.0,0.0,0.0,0.0,0.0,0.0,0.0,0.0,0.0,0.0,0.0,0.0,0.0,0.0,0.0,0.0,0.0,0.0,0.0,0.0,0.0,0.0,0.0,0.0,0.0,0.0,0.0,0.0,0.0,0.0,0.0,0.0,0.0,0.0,0.0,0.0,1.7948,1.8997,1.9581,1.9139,1.9101,1.9101,1.9101,1.8898,1.8412,1.7394,1.6862,0.0,0.0,0.0,0.0,0.0,0.0,0.0,0.0,0.0,0.0,0.0,0.0,0.0,0.0,0.0,0.0,0.0,0.0,0.0,0.0,0.0,0.0,0.0,0.0,0.0,0.0,0.0,0.0,0.0,0.0,0.0,0.0,0.0,0.0,0.0,0.0,0.0,0.0,0.0,0.0,0.0,0.0,0.0,0.0,0.0,0.0,0.0,0.0,0.0,0.0,0.0,0.0,0.0,2.4225,2.4801,2.5627,2.5561,2.6037,2.6803,2.4372,2.3563,2.3757,2.1883,0.0,0.0,0.0,0.0,0.0,0.0,0.0,0.0,0.0,0.0,0.0,0.0,0.0,0.0,0.0,0.0,0.0,0.0,0.0,0.0,0.0,0.0,0.0,0.0,2.2364,2.291,2.2055,0.0,0.0,0.0,0.0,0.0,0.0,0.0,0.0,0.0,0.0,0.0,1.812,1.9207,1.9797,1.9176,1.9101,1.9101,1.9101,1.8745,1.8305,1.7828,1.689,1.6226,0.0,0.0,0.0,0.0,0.0,0.0,0.0,0.0,0.0,0.0,0.0,0.0,0.0,0.0,0.0,0.0,0.0,0.0,0.0,0.0,0.0,0.0,0.0,0.0,0.0,0.0,0.0,0.0,0.0,0.0,0.0,0.0,2.2736,2.2168,0.0,0.0,0.0,0.0,0.0,0.0,0.0,0.0,0.0,0.0,0.0,0.0,0.0,2.299,2.3018,2.4829,2.6104,2.6867,2.7926,2.8876,2.9709,2.9709,2.9767,2.9786,2.8725,0.0,2.4726,2.4429,0.0,0.0,0.0,0.0,0.0,0.0,0.0,0.0,0.0,0.0,0.0,0.0,0.0,0.0,0.0,0.0,0.0,0.0,0.0,0.0,0.0,0.0,2.462,2.462,2.4752,2.4816,0.0,2.2542,2.0662,2.0575,2.0809,0.0,0.0,0.0,0.0,0.0,0.0,0.0,1.8956,1.9671,1.9909,1.9176,1.9101,1.9101,1.9101,1.8745,1.8305,1.7828,1.7313,1.6831,1.6336,1.5702,0.0,0.0,0.0,0.0,0.0,0.0,0.0,0.0,0.0,0.0,0.0,0.0,0.0,0.0,0.0,0.0,0.0,0.0,0.0,0.0,0.0,0.0,0.0,0.0,0.0,0.0,0.0,0.0,0.0,2.147,2.1915,2.1607,2.1499,2.1031,0.0,0.0,0.0,0.0,0.0,0.0,0.0,0.0,0.0,2.3657,2.4525,2.5513,2.663,2.7492,2.8582,2.989,3.0362,3.1058,3.1912,3.1912,3.1862,3.18,3.1434,3.0309,2.8516,2.5952,2.3755,2.1936,0.0,0.0,0.0,0.0,2.1165,2.1711,2.2948,2.3719,2.3975,2.3147,0.0,0.0,0.0,0.0,0.0,0.0,0.0,2.1334,0.0,0.0,2.4236,2.5564,2.5535,2.5168,2.5114,2.3971,2.2757,0.0,2.1583,2.0781,1.9502,0.0,0.0,0.0,0.0,1.9718,1.928,1.9778,1.9945,1.9288,1.9139,1.9026,1.8784,1.8592,1.8187,1.7516,1.7323,1.6989,1.6479,1.5953,1.5511,0.0,0.0,0.0,0.0,0.0,0.0,0.0,0.0,0.0,0.0,0.0,0.0,0.0,0.0,0.0,0.0,0.0,0.0,0.0,0.0,0.0,0.0,0.0,0.0,0.0,0.0,0.0,0.0,2.1595,2.1926,2.1436,2.1801,2.1576,0.0,0.0,0.0,0.0,0.0,0.0,2.3177,2.3966,2.4905,2.6039,2.7071,2.8349,2.9902,3.0085,3.0942,3.24,3.2359,3.2798,3.3641,3.3641,3.3609,3.3545,3.3083,3.2564,3.1705,2.7903,2.5626,2.441,2.3372,2.2727,2.2424,2.2769,2.3215,2.3884,2.5349,2.6129,2.639,2.5717,2.5099,2.4342,2.2866,0.0,0.0,0.0,0.0,2.2518,2.4613,2.4655,2.4511,2.6047,2.5944,2.5447,2.5177,2.4743,2.42,0.0,2.2632,2.1528,2.0255,0.0,0.0,0.0,0.0,2.0221,1.9818,2.0074,2.007,1.953,1.9288,1.9026,1.8745,1.8592,1.8187,1.7393,1.7282,1.6989,1.6522,1.609,1.5761,1.5624,0.0,0.0,0.0,0.0,0.0,0.0,0.0,0.0,0.0,0.0,0.0,0.0,0.0,0.0,0.0,0.0,0.0,0.0,0.0,0.0,0.0,0.0,0.0,0.0,0.0,0.0,0.0,0.0,0.0,2.2634,2.4002,0.0,0.0,0.0,0.0,2.331,2.3398,2.4246,2.609,2.6941,2.7873,2.8956,3.0565,3.146,3.1568,3.2397,3.3234,3.4084,3.4084,3.4533,3.5372,3.5372,3.5372,3.5295,3.3622,3.2872,3.2711,3.0944,2.906,2.7213,2.6391,2.5329,2.4415,2.563,2.6053,2.6304,2.8299,2.85,2.7904,2.7922,2.645,2.4799,2.5311,2.4495,0.0,0.0,2.5367,2.569,2.7151,2.7485,2.7275,2.6574,2.6364,2.6135,2.5352,2.4332,2.3713,0.0,2.4136,2.3599,2.2436,0.0,2.1747,2.1217,2.0989,2.0911,2.0991,2.0764,2.0413,1.9934,1.9515,1.9302,1.9265,1.8784,1.8305,1.7787,1.7393,1.6989,1.6522,1.6497,1.6233,1.5706,1.4651,0.0,0.0,0.0,0.0,0.0,0.0,0.0,0.0,0.0,0.0,0.0,0.0,0.0,0.0,0.0,0.0,0.0,0.0,0.0,0.0,0.0,0.0,0.0,0.0,0.0,0.0,0.0,0.0,2.432,2.6288,0.0,2.5913,2.6293,2.6737,2.7019,2.7635,2.831,2.9002,2.9809,3.0417,3.0858,3.1954,3.281,3.3361,3.3634,3.4199,3.504,3.5033,3.5199,3.5493,3.5493,3.5493,3.5468,3.4853,3.4597,3.4546,3.3461,3.1602,2.941,2.9206,2.8846,2.8515,2.8958,2.9431,2.9974,3.068,3.1115,3.1177,3.0076,2.8431,2.6924,2.7162,2.685,2.6496,2.6998,2.7075,2.7249,2.8332,2.8147,2.7758,2.8007,2.7638,2.6995,2.6154,2.5612,2.5163,2.4753,2.3915,2.3102,2.2618,2.2698,2.2496,2.1457,2.1586,2.1668,2.1276,2.0861,2.0447,2.0085,1.9654,1.9213,1.886,1.8422,1.7948,1.7434,1.6976,1.668,1.6522,1.6522,1.6421,1.6233,1.5831,1.5731,0.0,0.0,0.0,0.0,0.0,0.0,0.0,0.0,0.0,0.0,0.0,0.0,0.0,0.0,0.0,0.0,0.0,0.0,0.0,0.0,0.0,0.0,0.0,0.0,0.0,0.0,2.6685,2.6018,2.836,2.952,2.8229,2.8983,2.9655,2.9913,3.0554,3.1069,3.136,3.2119,3.2559,3.2601,3.3415,3.4122,3.4693,3.4668,3.4924,3.5509,3.5501,3.5493,3.5493,3.5493,3.5493,3.5474,3.5199,3.5277,3.554,3.4766,3.3596,3.2276,3.1804,3.1612,3.1612,3.1612,3.1943,3.2405,3.2388,3.2928,3.3405,3.1955,3.0529,2.9383,2.9383,2.9154,2.8877,2.8888,2.8809,2.8878,2.9436,2.9094,2.8679,2.8967,2.8351,2.7466,2.6606,2.6378,2.6047,2.5099,2.406,2.3325,2.3164,2.3262,2.2926,2.1645,2.1961,2.2017,2.1197,2.0958,2.0712,2.0376,1.9904,1.9435,1.8988,1.8422,1.7908,1.7516,1.6934,1.6552,1.6522,1.6291,1.6291,1.6479,1.6479,1.6336,1.6106,0.0,0.0,0.0,0.0,0.0,0.0,0.0,0.0,0.0,0.0,0.0,0.0,0.0,0.0,0.0,0.0,0.0,0.0,0.0,0.0,0.0,0.0,0.0,2.5348,2.6817,2.7975,2.7879,3.0312,3.1293,2.952,3.0221,3.112,3.1903,3.1941,3.2306,3.3214,3.3889,3.4257,3.4276,3.5078,3.5493,3.5493,3.5493,3.5493,3.5493,3.5493,3.5493,3.5493,3.5493,3.5493,3.5449,3.4603,3.4769,3.554,3.4842,3.51,3.5783,3.4124,3.3476,3.3476,3.3476,3.3476,3.347,3.3399,3.3874,3.4365,3.351,3.2654,3.1948,3.1948,3.1358,3.0671,3.0649,3.0642,3.0614,3.0521,3.0452,3.019,2.9341,2.8445,2.756,2.6756,2.6522,2.6218,2.5304,2.4821,2.4479,2.4248,2.3821,2.3094,2.1921,2.2112,0.0,2.0895,2.1071,2.1183,2.0827,2.0342,1.994,1.9611,1.8793,1.8198,1.8028,1.7256,1.671,1.6522,1.5923,1.5869,1.6442,1.6442,1.6095,1.5409,0.0,0.0,0.0,0.0,0.0,0.0,0.0,0.0,0.0,0.0,0.0,0.0,0.0,0.0,0.0,0.0,0.0,0.0,0.0,0.0,0.0,0.0,2.7633,2.7945,3.0642,3.28,3.3396,3.5226,3.6002,3.4878,3.4952,3.5191,3.5411,3.4841,3.5123,3.6575,3.5688,3.5424,3.6067,3.5694,3.5493,3.5493,3.5493,3.5493,3.5493,3.5493,3.5493,3.5493,3.5493,3.5493,3.5488,3.5302,3.5396,3.5668,3.5567,3.608,3.6801,3.5715,3.5288,3.5288,3.5288,3.5288,3.5288,3.5263,3.4999,3.4601,3.4367,3.3704,3.2998,3.2998,3.2786,3.2425,3.1791,3.1579,3.1382,3.0734,3.0518,3.0414,3.0182,2.9821,2.9302,2.8498,2.8262,2.7784,2.632,2.5872,2.543,2.4501,2.404,2.3526,2.2685,2.2686,0.0,2.1744,2.1477,2.1055,2.0237,1.9803,1.9383,1.8907,1.8408,1.8054,1.7988,1.7434,1.6892,1.6522,1.6328,1.6704,1.7681,1.7588,1.7513,0.0,0.0,0.0,0.0,0.0,0.0,0.0,0.0,0.0,0.0,0.0,0.0,0.0,0.0,0.0,0.0,0.0,0.0,0.0,0.0,0.0,0.0,2.9184,3.1156,3.2709,3.4086,3.5394,3.6593,3.7618,3.787,3.698,3.7197,3.7076,3.6337,3.6492,3.6837,3.7453,3.6887,3.6603,3.6747,3.6257,3.6007,3.6007,3.6007,3.6007,3.6007,3.6007,3.6007,3.5988,3.5661,3.568,3.5988,3.5724,3.565,3.5702,3.5846,3.6231,0.0,0.0,0.0,0.0,0.0,3.5991,3.5991,3.5991,3.5662,3.5232,3.5232,3.4647,3.3944,3.3944,3.3406,3.2689,3.2179,3.1748,3.1315,3.0808,3.062,3.0576,3.0576,3.0173,2.9644,2.9164,2.8983,2.8555,2.7205,2.7119,0.0,2.5349,2.4523,2.3746,2.2783,2.282,2.2635,2.1795,2.1655,2.1321,2.0405,2.0116,1.9778,1.9118,1.8355,0.0,0.0,0.0,1.6693,1.6479,1.6873,0.0,0.0,0.0,1.8326,1.8345,1.8323,0.0,0.0,1.7896,1.7725,0.0,0.0,0.0,0.0,0.0,0.0,0.0,0.0,0.0,0.0,0.0,0.0,0.0,0.0,0.0,0.0,3.3012,3.5646,3.8005,3.7232,3.6922,3.8334,3.8489,3.816,3.729,3.7878,3.7692,3.6141,3.7321,3.7855,3.7242,0.0,0.0,0.0,0.0,3.6853,3.6853,3.6853,3.6853,3.6853,3.6853,3.6853,3.6834,3.6122,3.6122,3.6689,3.6037,3.5747,3.5737,3.5852,3.5942,3.5991,3.5991,3.6462,3.7067,3.6286,3.5991,3.5991,3.5991,0.0,0.0,3.5991,3.5486,3.4842,3.4842,3.3768,3.25,3.2304,3.1699,3.1055,3.086,3.0758,3.0711,3.0711,3.001,2.9342,2.9274,2.9217,2.8906,2.8026,2.8341,2.8207,2.6536,2.5244,2.4003,2.2667,2.2783,2.2677,2.1608,2.1811,2.1748,2.091,0.0,0.0,1.9675,1.8574,1.7987,1.8106,1.6973,1.6398,1.6592,1.7576,1.784,1.7239,1.8301,1.8783,1.8532,1.9123,1.9263,1.9028,1.8037,1.7845,0.0,0.0,0.0,0.0,0.0,0.0,0.0,0.0,0.0,0.0,0.0,0.0,0.0,0.0,0.0,3.2058,3.5292,3.7889,3.9069,4.0133,4.0655,4.0346,4.0288,3.9939,3.9069,3.9103,3.9026,3.8678,3.8317,3.8584,3.9715,3.8642,3.8238,3.8777,3.8123,3.7757,3.7757,3.7757,3.7757,3.7757,0.0,0.0,3.7738,3.7584,3.7288,3.6849,3.6765,3.6398,3.5878,3.5947,3.5988,3.5991,3.5991,3.6111,3.6228,3.6049,3.5991,3.5991,3.5991,3.5991,3.5991,3.5991,3.5896,3.5759,3.5759,3.5506,0.0,3.3534,3.3027,3.2578,3.1172,3.0758,3.0711,3.0711,3.051,3.0327,3.03,3.0211,2.9858,2.9011,2.8886,2.8572,2.7433,2.6174,2.493,2.3699,2.3446,2.3183,2.252,2.2473,2.1915,2.0489,2.0286,1.9924,1.9118,1.8793,1.8447,1.8145,1.7531,1.7368,1.7818,1.847,1.8758,1.8596,1.9183,1.9403,1.9352,1.9411,1.9328,1.9158,1.8847,1.8746,0.0,0.0,0.0,0.0,0.0,0.0,0.0,0.0,0.0,0.0,0.0,2.7642,0.0,0.0,3.2604,3.5183,3.7421,3.9146,4.0017,4.0868,4.1255,4.0848,4.079,4.0462,3.9584,3.985,3.9554,3.826,3.8923,3.9359,3.9297,3.9302,3.9321,3.9336,3.8902,3.8657,3.8652,3.8657,3.8642,3.8642,3.8642,3.8642,3.8642,3.8227,3.808,3.8114,3.7372,3.6852,3.6479,3.6134,3.5991,3.5991,3.5991,3.5991,3.5991,3.5991,3.5991,3.5991,3.5991,3.5991,3.6069,3.6501,3.6364,3.6069,3.6521,3.5737,3.4527,3.3649,3.279,3.1953,3.1075,3.083,3.0798,3.0798,3.072,3.0658,3.0658,3.0575,3.0358,2.99,2.9755,2.9413,2.8459,2.7333,2.6126,2.4892,2.4121,2.3512,2.2958,2.2755,2.2197,2.1038,2.0701,2.0283,1.9636,1.9205,1.8737,1.8289,1.8293,1.8412,1.8702,1.9133,1.9409,1.9409,1.9622,1.9604,1.9512,1.942,1.9316,1.9105,1.9105,1.8881,0.0,0.0,0.0,0.0,0.0,0.0,0.0,0.0,2.6458,2.8907,3.0094,3.1339,3.3456,3.4635,3.5999,3.811,3.9456,4.0365,4.0752,4.079,4.0732,4.0558,4.0694,4.052,3.9816,4.0384,3.9908,3.7803,3.9387,3.9837,3.8427,3.9634,4.0077,3.9411,3.949,3.9552,3.9562,3.9552,3.9557,3.9557,3.9576,3.9561,3.9557,3.8917,3.8934,3.937,3.7819,3.7133,3.7079,3.6313,3.6091,3.6231,3.6072,3.5991,3.5994,3.5996,3.5996,3.6016,3.6191,3.6138,3.6124,3.7003,3.6808,3.6337,3.6864,3.5572,3.3827,3.3495,3.2307,3.1097,3.094,3.0888,3.087,3.0903,3.0808,3.0712,3.0745,3.0677,3.0603,3.0554,3.0479,3.0221,2.9505,2.849,2.7314,2.5853,2.469,2.379,2.3264,2.2947,2.2495,2.1803,2.1337,2.0909,2.05,1.973,1.9169,1.8919,1.9204,1.9389,1.9369,1.9687,1.9811,1.9798,1.9798,1.9708,1.946,1.946,1.9356,1.9093,1.9052,1.8721,2.0682,2.0714,2.1999,2.4293,2.4937,2.6237,0.0,0.0,3.2596,3.4455,3.5461,3.6137,3.6408,3.7812,3.9011,3.9301,4.1332,4.2396,4.1003,4.079,4.05,3.9739,4.0326,4.0752,4.0655,4.0732,4.0642,4.0295,3.9831,3.947,3.9257,3.9436,3.9494,3.9397,4.0092,4.0453,4.0453,4.0453,4.0439,4.0458,4.0521,4.0545,4.0545,4.0515,4.0191,3.9575,3.7971,3.7276,3.7217,3.6342,3.647,3.7083,3.6292,3.5991,3.5994,3.6005,3.6009,3.6106,3.6889,3.6601,3.604,3.6938,3.7159,3.6949,3.6265,3.5898,3.5384,3.3841,3.2708,3.1791,3.1088,3.0859,3.0834,3.0897,3.084,3.0819,3.0855,3.0784,3.0687,3.0687,3.0614,3.0535,3.0366,2.9543,2.8214,2.6089,2.4925,2.4081,2.361,2.3259,2.283,2.219,2.1698,2.1344,2.1126,2.0321,2.006,2.0667,2.0327,2.0031,1.9927,1.9952,1.9926,1.9798,1.9798,1.9798,1.9759,1.9759,1.9604,1.9368,1.8804,1.8417,2.2537,2.3352,0.0,0.0,2.8702,3.0672,3.3832,3.4944,3.596,3.8199,3.8934,3.9475,4.0442,4.081,4.1119,0.0,4.2183,4.2299,4.1603,4.021,3.8953,3.8083,3.7889,3.8411,3.9901,4.0036,4.0036,4.0004,3.9656,3.9451,3.9457,3.8988,3.9181,4.0192,4.0003,4.0158,4.0654,4.0665,4.067,4.067,4.0728,4.0765,4.074,4.0334,3.9474,3.8263,3.7594,3.7016,3.6521,3.615,3.6216,3.6518,3.6135,3.5972,3.5954,3.5991,3.5972,3.5994,3.637,3.6192,3.5992,3.6858,3.6798,3.6417,3.6562,3.5946,3.5037,3.4256,3.3088,3.1958,3.1624,3.1142,3.0747,3.0779,3.0763,3.0752,3.0831,3.0796,3.0762,3.0813,3.0728,3.0643,3.0623,2.9838,2.8858,2.7769,2.6276,2.5127,2.4661,2.3967,2.3324,2.2841,2.2297,2.1969,2.2004,2.156,2.1296,2.1276,2.1046,2.0691,2.0271,2.0093,1.9926,1.9798,1.9798,1.9759,1.9656,1.9384,1.9121,1.8934,1.8321,1.771,2.3765,0.0,0.0,2.9725,3.2411,3.4944,3.6644,3.7892,3.9277,4.1409,4.1661,4.1796,4.2763,4.2434,4.2067,4.2222,4.2106,4.1835,4.1371,3.9321,3.7618,3.698,3.5762,3.5897,3.8218,3.8644,3.8876,3.9108,3.8914,3.8895,3.9127,3.8542,3.889,4.0384,4.0024,4.0088,4.0713,4.0751,4.0761,4.0761,4.0847,4.0885,4.0867,4.0325,3.9193,3.7665,3.7903,3.7393,3.6355,3.6367,3.6355,3.6325,3.6085,3.5953,3.5903,3.5942,3.5934,3.5902,3.6142,3.6027,3.5916,3.6784,3.6654,3.6192,3.6608,3.5872,3.4873,3.4581,3.3284,3.2007,3.1993,3.1351,3.0672,3.0694,3.0684,3.0684,3.0726,3.0735,3.0762,3.0839,3.0778,3.0697,3.0706,3.0146,2.9613,2.9407,2.7918,2.6575,2.5838,2.4905,2.4153,2.3739,2.3152,2.2828,2.3017,2.2806,2.2389,2.1768,2.1704,2.1286,2.0485,2.0182,1.9978,1.9862,1.9811,1.9708,1.946,1.9028,1.8655,1.8333,1.7952,1.7346,0.0,0.0,2.8675,3.2122,3.5516,3.8508,4.0249,4.1912,4.3382,4.4291,4.3808,4.2976,4.2183,4.2028,4.1487,3.9894,4.0965,4.1429,3.9797,3.8044,3.6942,3.6903,3.4698,3.3866,0.0,3.6516,3.7328,3.8179,3.7464,3.7348,3.8199,3.8218,3.8605,3.9507,4.0326,4.0771,4.079,4.0848,4.0887,4.0906,4.1023,4.1093,4.1098,4.1064,4.0147,3.8613,3.945,3.8845,3.7265,3.7253,3.7257,3.7187,3.6328,3.5962,3.5899,3.591,3.5868,3.5924,3.6765,3.648,3.585,3.6712,3.6983,3.6809,3.5985,3.5753,3.5599,3.4726,3.3295,3.2,3.2,3.1313,3.0617,3.0674,3.0655,3.0588,3.0618,3.062,3.0619,3.0693,3.0706,3.0697,3.0691,3.0684,3.0624,3.0561,2.967,2.8485,2.7044,2.615,2.5455,2.4999,2.4343,2.3966,2.4063,2.373,2.3203,2.2335,2.2267,2.1718,2.0562,2.0296,2.0131,1.999,1.9862,1.9552,1.904,1.8987,1.8548,1.7722,1.7843,1.7401,0.0,0.0,3.3851,3.7344,3.9908,4.2028,4.373,4.4136,4.4078,4.3808,4.1706,3.9656,3.8779,3.8612,3.8632,3.8644,4.0075,4.1003,4.0442,3.8856,3.7135,3.5433,3.3982,0.0,0.0,0.0,0.0,3.7232,3.6574,3.6961,3.8953,3.7967,3.8295,4.0358,4.0164,4.03,4.0938,4.0996,4.1035,4.1035,4.0545,3.9993,3.9447,3.9444,3.8492,3.6964,3.8416,3.8046,3.6484,3.7069,3.6952,3.6405,3.607,3.5884,3.583,3.5786,3.5756,3.5785,3.6065,3.5966,3.5742,3.6043,3.614,3.6082,3.5781,3.5723,3.5665,3.5322,3.4414,3.3534,3.3523,3.2855,3.2053,3.1502,3.1347,3.1204,3.0714,3.0608,3.0617,3.0634,3.0667,3.0708,3.0699,3.0762,3.0595,2.9903,2.9255,2.8403,2.7184,2.651,2.6183,2.6242,2.568,2.526,2.5228,2.484,2.4213,2.3348,2.283,2.2189,2.1251,2.0759,2.0372,2.0131,1.9978,1.9668,1.9133,1.8525,1.7929,1.7224,1.6673,1.6285,3.0318,3.3989,3.7757,4.0906,4.2957,4.4407,4.5181,4.4736,4.373,4.2241,3.9695,3.7286,3.5809,3.5538,3.5623,3.5867,3.7104,3.8264,3.8895,3.7742,3.6563,3.5839,3.4737,3.3808,0.0,0.0,0.0,3.5955,3.6071,3.698,3.8934,3.8295,3.8798,4.0842,4.038,4.0383,4.0985,4.1071,4.1098,4.1132,4.0609,4.0078,3.9512,3.9219,3.828,3.6983,3.8105,3.7617,3.6074,3.6911,3.6754,3.5962,3.5881,3.581,3.5764,3.5718,3.5704,3.5704,3.5704,3.5704,3.5704,3.5704,3.5704,3.5704,3.5673,3.5654,3.5662,3.562,3.4971,3.4284,3.4256,3.3639,3.2856,3.2274,3.1888,3.153,3.1056,3.071,3.0498,3.0521,3.056,3.0619,3.0693,3.0799,3.0643,3.0001,2.9563,2.89,2.7812,2.7474,2.7401,2.754,2.6964,2.6461,2.6233,2.5709,2.4989,2.4059,2.3391,2.268,2.1941,2.1224,2.0746,2.0472,2.0182,1.972,1.9133,1.8363,1.7589,1.6888,1.6171,1.5788,3.3787,3.7189,4.0352,4.2821,4.4581,4.5529,4.4717,4.3769,4.2318,3.9746,3.7773,3.5723,0.0,0.0,3.2638,3.1816,3.2589,3.3903,3.5588,3.5198,3.5604,0.0,0.0,0.0,0.0,0.0,0.0,3.4612,0.0,3.7309,3.8237,3.9108,4.001,4.088,4.0963,4.1007,4.1,4.1063,4.1132,4.1191,4.1152,4.1133,4.1094,4.0234,3.9355,3.8535,3.8574,3.7617,3.6073,3.6911,3.6732,3.591,3.5864,3.5795,3.5704,3.5704,3.5704,3.5704,3.5704,3.5704,3.5704,3.5704,3.5684,3.5684,3.5612,3.5601,3.5601,3.5604,3.5001,3.4352,3.4276,3.3686,3.3096,3.2993,3.2307,3.1642,3.1615,3.0912,3.0311,3.0389,3.0353,3.0376,3.0542,3.0618,3.0643,3.0663,3.0431,2.9919,2.8916,2.9005,2.9042,2.8777,2.82,2.7613,2.6992,2.6336,2.5517,2.4443,2.3918,2.3319,2.2589,2.1846,2.1286,2.1042,2.0372,1.9668,1.904,1.8429,1.771,1.6821,1.6332,1.5951,3.823,4.1177,4.3614,4.4852,4.5026,4.4678,4.3827,4.1487,3.8779,3.6226,3.3314,3.025,0.0,0.0,0.0,3.0044,3.3422,0.0,3.7495,3.8566,0.0,0.0,0.0,3.7309,3.6651,3.6593,0.0,0.0,3.6732,3.7661,3.9216,3.9538,4.0087,4.1016,4.1075,4.1093,4.1144,4.1172,4.1179,4.1191,4.0547,4.0234,4.0195,3.9336,3.8457,3.7676,3.832,3.7617,3.6112,3.7558,3.7278,3.5947,3.6492,3.6288,3.5704,3.5704,3.5704,3.5684,3.5643,3.5673,3.5684,3.5643,3.5631,3.5631,3.5616,3.5604,3.5591,3.5528,3.538,3.5161,3.5048,3.4865,3.4558,3.393,3.3125,3.2325,3.1717,3.0885,3.0226,3.0247,2.9778,2.9236,2.8826,2.8699,2.866,2.8767,2.8652,2.8883,2.9833,2.9838,2.9578,2.9132,2.8929,2.8415,2.736,2.7037,2.6438,2.5491,2.4705,2.4055,2.3578,2.2346,2.1602,2.1458,2.0573,1.9862,1.9279,1.878,1.8027,1.6944,1.6549,1.6161,4.117,4.3492,4.5142,4.5258,4.4659,4.3518,4.155,3.9027,3.6172,3.2889,3.0369,0.0,0.0,0.0,0.0,0.0,0.0,0.0,3.639,3.7811,3.8856,0.0,3.9437,0.0,3.8206,3.847,3.8559,0.0,3.8175,3.8595,3.9645,4.0098,4.0551,4.1074,4.1129,4.1154,4.1191,4.1191,4.1191,4.1191,4.0703,4.0469,4.0449,3.957,3.8691,3.7871,0.0,3.7237,3.6041,3.6942,3.6726,3.5839,3.6265,3.6129,3.5704,3.5704,3.5673,3.5643,3.5612,3.562,3.5651,3.5608,3.5608,3.5596,3.5572,3.5566,3.5541,3.5474,3.5383,3.527,3.5304,3.5155,3.4901,3.4549,3.3468,3.2406,3.1968,3.0855,2.9874,2.9475,2.9134,2.881,2.8473,2.8382,2.8427,2.8571,2.8186,2.8277,2.9292,2.9229,2.8919,2.8544,2.8666,2.8454,2.7597,2.7181,2.6809,2.6404,2.4951,2.4236,2.4465,2.2848,2.1893,2.1921,2.0908,2.0207,1.985,1.9202,1.8566,1.7797,1.7045,1.6503,4.3208,4.4736,4.5626,4.4813,4.3788,4.2118,3.8875,3.6523,3.3893,2.9901,0.0,2.7254,2.5571,0.0,2.6985,2.7204,0.0,3.0977,3.4456,3.5658,3.7327,4.0463,4.0928,4.0703,3.9956,4.0568,4.0715,4.0029,3.9859,3.984,3.9897,4.0671,4.1108,4.1108,4.1175,4.1191,4.1191,4.1094,4.1035,4.1035,4.1035,4.0976,4.082,4.0078,3.9258,3.8379,3.7497,3.6645,3.5899,3.5947,3.5865,3.5704,3.582,3.58,3.5684,3.5693,3.5662,3.5601,3.5589,3.5519,3.5418,3.5418,3.5495,3.554,3.5335,3.5359,3.5432,3.5335,3.5043,3.4846,3.5122,3.4813,3.4463,3.4623,3.3374,3.2128,3.2034,3.0791,2.9456,2.8667,2.8651,2.8725,2.8637,2.8708,2.8764,2.8801,2.8167,2.7717,2.7795,2.7872,2.7846,2.7665,2.7989,2.8079,2.7656,2.7154,2.6908,2.707,2.527,2.4477,2.5164,2.336,2.2277,2.215,2.1158,2.0529,2.0319,1.967,1.9214,1.8915,1.7797,1.7101,4.5137,4.5794,4.5775,4.4904,4.2937,4.0544,3.785,3.4244,0.0,0.0,0.0,2.5489,2.3766,2.5338,0.0,2.8817,0.0,0.0,0.0,0.0,3.8505,0.0,0.0,0.0,0.0,0.0,0.0,0.0,0.0,4.0867,4.0933,4.1086,4.1179,4.1179,4.119,4.1191,4.1191,4.0488,4.0137,4.0137,4.0137,3.9746,3.9043,3.8887,3.8359,3.746,3.6541,0.0,3.5947,3.6549,3.6355,3.5762,3.6435,3.625,3.5631,3.5628,3.5616,3.5584,3.554,3.5065,3.4436,3.4436,3.4937,3.5335,3.4389,3.4598,3.5105,3.4832,3.4243,3.3826,3.4465,3.4043,3.3452,3.3475,3.2702,3.178,3.1185,3.0284,2.9533,2.9211,2.8838,2.8366,2.7813,2.7608,2.7342,2.6866,2.6669,2.6391,2.5861,2.7127,2.7999,2.7874,2.792,2.7768,2.7251,2.7512,2.7474,2.697,2.6766,2.6239,2.5246,2.4176,2.2879,2.1415,2.1032,2.0549,1.9895,2.0102,1.985,1.9121,1.8768,1.8004,4.5735,4.6085,4.5606,4.3808,4.1409,3.8589,3.5117,0.0,0.0,0.0,0.0,2.5405,2.457,0.0,0.0,0.0,0.0,0.0,0.0,0.0,0.0,0.0,0.0,0.0,0.0,0.0,0.0,0.0,0.0,4.1163,4.1191,4.1191,4.1191,4.1191,4.1191,4.1191,4.1191,4.0332,3.9902,3.9902,3.9902,3.9687,3.9277,3.9277,3.8778,3.787,3.6977,3.6284,3.5817,3.613,3.6033,3.5697,3.6072,3.5963,3.5596,3.5604,3.5591,3.5528,3.5515,3.4853,3.3988,3.3993,3.428,3.4561,3.4334,3.451,3.4679,3.4086,3.3524,3.3094,3.3128,3.297,3.2815,3.298,3.2572,3.1935,3.108,3.0335,2.9672,2.92,2.8894,2.8556,2.8007,2.7396,2.6947,2.6801,2.6062,2.5454,2.5266,2.6023,2.6613,2.67,2.7073,2.7166,2.6766,2.6915,2.6933,2.6695,2.629,2.5883,2.5486,2.4211,2.3322,2.2849,2.1643,2.0978,2.1023,2.0677,2.0308,1.9901,1.9307,1.8727,4.552,4.5986,4.5475,4.2811,4.0059,3.6953,3.2861,2.9819,0.0,0.0,2.541,2.5418,0.0,0.0,0.0,0.0,0.0,0.0,0.0,0.0,0.0,0.0,0.0,0.0,0.0,0.0,0.0,0.0,0.0,4.1191,4.1191,4.1191,4.1113,4.0937,4.1094,4.1016,4.0644,4.0156,3.9805,3.9629,3.9805,3.9707,3.9354,3.9518,3.8979,3.7899,3.7179,3.6415,3.5674,3.5618,3.5598,3.5591,3.5572,3.5591,3.5579,3.5566,3.5522,3.5438,3.5218,3.4534,3.3732,3.3443,3.3519,3.3747,3.3976,3.4095,3.3989,3.3309,3.2674,3.217,3.2005,3.2035,3.2183,3.254,3.2352,3.1919,3.1302,3.0665,3.0124,2.9661,2.932,2.8984,2.8513,2.7636,2.697,2.687,2.5788,2.5021,2.511,2.5167,2.5291,2.5483,2.6121,2.6461,2.6246,2.6226,2.6268,2.643,2.5717,2.5338,2.5524,2.4211,2.3632,2.3912,2.2375,2.1685,2.1931,2.1247,2.0797,2.056,1.9813,1.9377,4.4413,4.5624,4.5565,4.2947,3.9688,3.6228,3.285,0.0,0.0,2.4854,2.4521,2.4528,2.4511,0.0,0.0,0.0,0.0,2.8651,0.0,0.0,0.0,0.0,0.0,0.0,0.0,0.0,0.0,0.0,0.0,4.1191,4.1191,4.1191,4.084,4.0039,4.0781,4.0449,3.8848,3.9531,3.9492,3.873,3.9512,3.906,3.7555,3.8229,3.7665,3.611,3.5847,3.5682,0.0,3.5611,3.5591,3.5591,3.5528,3.5515,3.5502,3.5435,3.5407,3.5264,3.4289,3.3849,3.352,3.2287,3.2552,3.3164,3.2251,3.2432,3.2876,3.2577,3.1404,3.0574,3.1909,3.1692,3.1283,3.1939,3.1534,3.1165,3.1619,3.1345,3.1156,3.1691,3.0782,2.9679,2.8966,2.8154,2.7187,2.595,2.5667,2.5426,2.4903,2.5053,2.5215,2.5239,2.552,2.5703,2.5678,2.6054,2.6275,2.6228,2.6352,2.6002,2.5023,2.4665,2.3791,2.2343,2.2822,2.2516,2.1302,2.1729,2.1496,2.0597,2.0399,1.9891,4.2868,4.4824,4.5254,4.1055,3.8151,3.5324,3.1429,0.0,0.0,2.5325,2.4779,2.4567,2.5095,0.0,0.0,0.0,0.0,0.0,0.0,0.0,0.0,0.0,0.0,0.0,0.0,0.0,0.0,0.0,0.0,4.0976,4.0449,4.0918,4.0801,3.9922,4.0234,4.0078,3.9394,3.8688,3.843,3.8606,3.8415,3.7682,3.6475,3.6759,3.6503,3.5737,3.5102,3.5098,0.0,3.5541,3.522,3.4738,3.4693,3.4661,3.4647,3.463,3.4814,3.4969,3.4063,3.3469,3.2997,3.198,3.1784,3.1998,3.2077,3.2302,3.2481,3.2301,3.1783,3.1274,3.1353,3.1506,3.1773,3.2445,3.2373,3.2242,3.2411,3.2228,3.1972,3.1882,3.1243,3.0288,2.8905,2.7888,2.6885,2.5666,2.506,2.4725,2.4742,2.4809,2.4917,2.5178,2.5445,2.5599,2.5604,2.5777,2.5795,2.562,2.6079,2.597,2.5063,2.4743,2.4269,2.3558,2.2753,2.2216,2.1934,2.1527,2.1112,2.0723,2.0143,1.9655,4.0351,4.2793,4.3652,3.8945,3.6269,3.3726,0.0,0.0,2.5252,2.5018,2.4667,2.4589,2.5208,2.4811,2.4202,2.3579,0.0,2.5783,0.0,0.0,0.0,0.0,0.0,0.0,0.0,0.0,0.0,0.0,4.0859,4.0937,4.0312,4.0858,4.0779,3.9939,3.99,3.9647,3.914,3.8176,3.7853,3.8199,3.7803,3.7156,3.6281,3.6215,3.5863,3.5261,3.4847,3.4828,0.0,3.5372,3.4974,3.4186,3.4375,3.4256,3.4021,3.4228,3.4367,3.4302,3.3393,3.2959,3.2556,3.1167,3.0869,3.1193,3.1738,3.1919,3.1864,3.1779,3.1903,3.1869,3.1272,3.1464,3.1982,3.2719,3.2852,3.277,3.2737,3.2606,3.2396,3.1973,3.15,3.0712,2.9193,2.7799,2.6558,2.5605,2.4618,2.4098,2.4461,2.4543,2.4674,2.4984,2.527,2.5488,2.5588,2.5577,2.5498,2.5323,2.5668,2.5634,2.5125,2.474,2.4651,2.4843,2.3311,2.2671,2.2986,2.1896,2.1164,2.0736,2.0105,1.962,3.6641,3.9258,4.041,3.6894,3.4062,3.1248,0.0,0.0,2.4193,2.3397,2.3843,2.4401,2.4409,2.4404,2.4397,2.4397,2.5137,0.0,0.0,0.0,0.0,0.0,0.0,0.0,0.0,0.0,0.0,0.0,4.1191,0.0,4.1191,4.1123,4.0737,3.9937,3.99,3.9069,3.7339,3.816,3.8155,3.7321,3.8046,3.7965,3.7183,3.698,3.5958,3.4369,3.5156,3.5007,0.0,3.5081,3.4894,3.4183,3.4985,3.4633,3.3781,3.4528,3.4168,3.3156,3.202,3.2138,3.2348,2.9544,2.9717,3.0975,3.0854,3.0872,3.0882,3.0844,3.1278,3.1793,3.178,3.1596,3.1614,3.2411,3.2454,3.2318,3.2318,3.2318,3.2318,3.23,3.1687,3.0933,3.0109,2.8105,2.637,2.5693,2.4521,2.3774,2.3996,2.4301,2.4522,2.4607,2.4905,2.5244,2.5562,2.5547,2.5533,2.5582,2.529,2.5101,2.5107,2.4647,2.48,2.5685,2.4908,2.4445,2.4386,2.3292,2.2049,2.0691,2.0563,2.005,3.2639,3.4732,3.5712,3.1675,3.0055,2.8708,2.587,0.0,2.3436,2.3183,2.3338,2.3683,2.4285,2.4395,2.441,2.4391,2.513,0.0,0.0,0.0,0.0,0.0,0.0,0.0,0.0,0.0,0.0,0.0,3.9961,4.0058,3.9442,3.9962,4.0154,3.9917,3.9312,3.8749,3.8188,3.6641,3.6036,3.6338,3.534,3.4692,3.4389,3.427,3.421,3.4129,3.3813,3.3843,3.4112,3.3752,3.3138,3.2453,3.3177,3.3149,3.2823,3.3582,3.3765,3.3506,3.265,3.2349,3.1983,2.9998,3.0044,3.0746,3.0094,3.0338,3.1031,3.205,3.2151,3.2064,3.2282,3.2051,3.183,3.2299,3.2352,3.2283,3.2283,3.2232,3.2161,3.2161,3.1846,3.1237,2.9984,2.8296,2.672,2.5703,2.4258,2.3427,2.3821,2.3963,2.4155,2.4508,2.4674,2.4917,2.5279,2.5476,2.5584,2.5604,2.5496,2.564,2.6051,2.5838,2.5891,2.6303,2.5198,2.4484,2.4185,2.2849,2.1536,2.0285,1.9952,1.9306,0.0,3.0977,3.1796,2.8131,2.6981,0.0,0.0,0.0,2.2628,2.2634,2.2885,2.3366,2.4239,2.4405,2.44,2.44,2.5116,0.0,0.0,0.0,0.0,0.0,0.0,0.0,0.0,0.0,0.0,3.8571,3.9098,3.9174,3.8637,3.9103,3.9412,3.9409,3.8551,3.8096,3.8022,3.5749,3.4859,3.5366,3.4179,3.3422,3.3063,3.3315,3.3327,3.3133,3.2894,3.2938,0.0,3.29,3.2249,3.1488,3.2216,3.2107,3.1634,3.2393,3.253,3.2224,3.1741,3.1383,3.0954,2.9611,2.974,3.0404,3.0267,3.0582,3.1242,3.2364,3.2351,3.2021,3.2144,3.1985,3.1804,3.1932,3.1842,3.177,3.175,3.1677,3.1657,3.1657,3.1637,3.1362,3.0542,2.8576,2.6854,2.6185,2.4357,2.3164,2.3437,2.3631,2.3862,2.4192,2.4703,2.5133,2.54,2.5735,2.6123,2.6553,2.6559,2.6731,2.7123,2.6957,2.7031,2.7433,2.6191,2.5379,2.4974,2.287,2.1615,2.1132,2.0015,1.9185,0.0,2.7705,0.0,0.0,0.0,0.0,0.0,0.0,0.0,2.178,2.2494,2.3325,2.4074,2.4319,2.4404,2.4404,2.5013,0.0,0.0,0.0,0.0,0.0,0.0,0.0,0.0,0.0,3.7635,3.8456,3.8514,3.852,3.851,3.85,3.8492,3.8489,3.765,3.7164,3.7097,3.5421,3.4555,3.4478,3.4293,3.3766,3.3012,3.3692,3.3149,0.0,3.2401,3.2267,3.1621,3.2321,3.1997,3.1174,3.1916,3.1444,3.0443,3.1194,3.0826,2.9952,2.9818,2.9719,2.9539,2.8622,2.9036,3.0049,3.1029,3.1359,3.1502,3.1952,3.2002,3.1817,3.1521,3.1483,3.1538,3.1445,3.1145,3.0834,3.0788,3.0811,3.0858,3.0897,3.1067,3.1334,3.1542,2.8988,2.691,2.706,2.4775,2.3014,2.2979,2.3371,2.3689,2.3847,2.4947,2.5744,2.5959,2.6346,2.7039,2.8106,2.8123,2.8163,2.8281,2.8049,2.8231,2.8901,2.7702,2.686,2.6387,2.3502,2.2408,2.2979,2.0795,1.9839,2.2854,0.0,2.3231,2.1946,2.1485,0.0,0.0,0.0,0.0,0.0,0.0,2.2965,2.2507,2.3494,2.4405,2.4405,2.451,0.0,0.0,0.0,0.0,0.0,0.0,0.0,0.0,0.0,3.7381,3.7597,3.7614,3.7616,3.7619,3.7616,3.7562,3.7449,3.667,3.6509,3.7097,3.5399,3.447,3.4341,3.36,3.309,3.2852,3.302,3.2896,3.2488,3.1967,3.1599,3.1329,3.091,3.0826,3.096,3.1111,3.1105,3.1072,3.1217,3.1374,3.1405,3.0764,3.051,3.0223,2.9006,2.9455,3.0508,3.0542,3.0955,3.1472,3.1861,3.1863,3.1748,3.1657,3.1382,3.1246,3.1625,3.1008,3.0385,3.0747,3.0526,3.0369,3.073,3.0747,3.0885,3.1487,2.9306,2.7571,2.7827,2.5234,2.3391,2.3621,2.3284,2.3424,2.4518,2.4972,2.5827,2.7419,2.7433,2.7475,2.7797,2.8043,2.8468,2.9082,2.9113,2.9382,2.9999,2.8697,2.7477,2.6408,2.5265,2.4562,2.4254,2.3194,2.2223,2.1617,2.164,2.1448,2.0579,2.0347,2.0352,0.0,0.0,0.0,0.0,0.0,0.0,2.1846,0.0,0.0,0.0,0.0,0.0,0.0,0.0,0.0,0.0,0.0,0.0,0.0,0.0,3.6697,3.6699,3.6696,3.6696,3.6696,3.6661,3.6621,3.6551,3.6067,3.5986,3.6362,3.5057,3.4147,3.3602,3.3459,3.2771,3.1646,3.2378,3.229,3.1527,3.0956,3.07,3.0614,3.013,2.9999,3.0127,2.9986,2.9936,2.9966,2.9932,3.0035,3.0134,2.9704,2.9383,2.9082,2.8718,2.9007,2.9553,2.9929,3.0151,3.0468,3.0977,3.1015,3.0843,3.0593,3.0417,3.0433,3.0637,3.0196,2.9745,2.9978,2.9832,2.9745,3.0021,2.9802,2.9914,3.0858,2.8695,2.7102,2.774,2.5607,2.402,2.4178,2.366,2.3737,2.4827,2.5267,2.6099,2.7592,2.8162,2.8541,2.8833,2.9027,2.9382,2.9968,3.0038,3.0154,3.0392,2.9197,2.837,2.7954,2.6622,2.596,2.5906,2.4837,2.3873,2.1182,2.1486,2.1378,2.0515,2.0294,2.0302,0.0,0.0,0.0,0.0,0.0,0.0,0.0,0.0,0.0,0.0,0.0,0.0,0.0,0.0,0.0,0.0,0.0,0.0,0.0,3.6262,3.5934,3.5818,3.5676,3.5594,3.5594,3.5519,3.5482,3.5451,3.5236,3.503,3.489,3.4488,3.3858,3.2982,3.3551,3.2618,3.0409,3.1771,3.1553,3.0053,2.994,0.0,2.9803,2.9698,2.953,2.9267,2.8984,2.873,2.8533,2.8407,2.8308,2.8202,2.8145,2.787,2.7624,2.8077,2.8222,2.8378,2.9208,2.928,2.9198,2.9772,3.0017,2.9883,2.9326,2.9432,2.9611,2.9521,2.9275,2.9074,2.9074,2.9074,2.9104,2.915,2.8869,2.8952,3.0051,2.801,2.6611,2.7648,2.6084,2.4831,2.4814,2.432,2.4309,2.5109,2.5746,2.6441,2.7224,2.8522,2.9476,2.9868,3.0093,3.0354,3.0699,3.0693,3.0624,3.0457,2.9583,2.9377,2.9846,2.7884,2.7132,2.757,2.6189,2.5299,2.0373,2.0949,2.1323,2.0508,2.0311,2.0299,0.0,0.0,0.0,0.0,0.0,0.0,0.0,0.0,0.0,0.0,0.0,0.0,0.0,0.0,0.0,0.0,0.0,0.0,3.4177,3.5174,3.5686,3.4959,3.4164,3.3712,3.3706,3.3653,3.3557,3.3461,3.2754,3.2323,3.2114,3.3506,3.4071,3.3815,3.3259,3.232,3.1146,3.1397,3.0931,2.994,0.0,2.9735,2.9476,2.9455,2.9591,2.9715,2.8998,2.8907,2.908,2.8403,2.8404,2.8715,2.832,2.839,2.8454,2.73,2.8021,2.921,2.8494,2.855,2.8904,2.8951,2.9532,3.0117,2.9798,2.9718,2.9783,2.9959,2.9249,2.8621,2.8858,2.8748,2.8621,2.8904,2.8826,2.8948,2.98,2.8818,2.8214,2.9081,2.7254,2.5929,2.632,2.5215,2.4821,2.5905,2.619,2.6543,2.7144,2.8185,2.8703,2.8519,2.9579,3.0354,3.0699,3.0694,3.0682,3.0652,3.0341,3.0125,3.0049,2.9467,2.8952,2.8479,2.7958,2.721,2.0195,2.0493,2.0828,2.0922,2.1287,2.1613,0.0,0.0,0.0,0.0,0.0,0.0,0.0,0.0,0.0,0.0,0.0,0.0,0.0,0.0,0.0,0.0,0.0,3.4675,3.4055,3.4714,3.4822,3.3965,3.3479,3.3245,3.3239,3.3142,3.287,3.2376,3.2336,3.184,3.0753,3.1569,3.1728,3.1187,3.1737,3.1238,2.9912,3.0316,3.0232,2.9787,0.0,2.957,2.9295,2.9228,2.9182,2.9127,2.8585,2.8478,2.8539,2.7936,2.7749,2.7728,2.7368,2.7123,2.6887,2.6184,2.6903,2.7886,2.7032,2.7344,2.7953,2.7921,2.8559,2.9105,2.8556,2.84,2.834,2.8047,2.7659,2.735,2.7411,2.7612,2.7794,2.7953,2.7906,2.8202,2.9087,2.8323,2.7865,2.8728,2.7558,2.6849,2.7501,2.6118,2.5588,2.6922,2.6571,2.658,2.746,2.8178,2.8672,2.8895,2.9713,3.0295,3.0486,3.0615,3.0699,3.0701,3.0619,3.0513,3.0413,3.0071,2.9755,2.943,2.895,2.8366,2.0199,2.0333,2.064,2.1311,0.0,0.0,0.0,0.0,0.0,0.0,0.0,0.0,0.0,0.0,0.0,0.0,0.0,0.0,0.0,0.0,0.0,0.0,0.0,3.2686,3.4127,3.4036,3.3529,3.2654,3.2388,3.2169,3.1977,3.1855,3.1485,3.0856,3.1328,3.0811,2.9227,2.9379,2.9235,2.8779,2.9897,2.9699,2.8395,2.9144,2.9452,2.9363,2.9438,2.9351,2.9101,2.8915,2.8694,2.844,2.8109,2.7911,2.776,2.7226,2.6899,2.6657,2.6332,2.593,2.5548,2.5392,2.59,2.6494,2.5939,2.6273,2.6886,2.6901,2.733,2.7682,2.7435,2.713,2.681,2.6489,2.6352,2.6274,2.6123,2.652,2.6947,2.7099,2.7177,2.7486,2.8434,2.7874,2.7567,2.8383,2.7778,2.7471,2.8196,2.687,2.6302,2.7435,2.685,2.6787,2.7759,2.8084,2.8552,2.9358,2.9788,3.01,3.0263,3.047,3.0611,3.0701,3.0698,3.07,3.0711,3.0388,3.0188,3.0117,2.9645,2.9206,2.0192,2.0747,2.1331,2.1388,2.0899,0.0,0.0,0.0,0.0,0.0,0.0,0.0,0.0,0.0,0.0,0.0,0.0,0.0,0.0,0.0,0.0,0.0,3.3587,3.3147,3.3292,3.2559,3.1734,3.0847,2.999,2.9128,2.8326,2.8202,2.8115,2.7999,2.7969,2.7521,2.6586,2.7239,2.7983,2.87,2.8078,2.7638,2.7436,2.8229,2.8519,2.8428,2.8918,2.9056,2.8887,2.8518,2.8219,2.8025,2.7736,2.7478,2.7158,2.633,2.6182,2.6367,2.5905,2.5895,2.5939,2.5385,2.5676,2.6214,2.6016,2.5955,2.5939,2.6046,2.5953,2.6129,2.7576,2.7003,2.6229,2.6807,2.6473,2.5971,2.5863,2.5955,2.6229,2.6723,2.7035,2.7439,2.8112,2.8255,2.8497,2.8965,2.8217,2.7745,2.8223,2.7341,2.6657,2.6759,2.6808,2.7178,2.7926,2.7607,2.7887,2.9056,2.9378,2.9739,3.0186,3.0232,3.0369,3.0682,3.0708,3.0703,3.0711,3.0677,3.0494,3.0186,3.0093,2.9788,2.0069,2.066,2.1287,2.1337,0.0,0.0,0.0,0.0,0.0,0.0,0.0,0.0,0.0,0.0,0.0,0.0,0.0,0.0,0.0,0.0,3.3467,3.3572,3.2808,3.2076,3.1564,3.0704,2.9796,2.8917,2.8521,2.8191,2.7852,2.7777,2.7477,2.6918,2.7344,2.6882,2.5385,2.6136,2.6412,2.6214,2.6959,2.7269,2.7209,2.7997,2.8521,2.8806,2.9018,2.8585,2.7784,2.7607,2.7059,2.6289,2.608,2.6139,2.6302,2.5659,2.5647,2.5868,2.5346,2.5028,2.487,2.4575,2.4904,2.5377,2.4906,2.497,2.5198,2.5228,2.4822,2.4612,2.5727,2.5652,2.5183,2.5047,2.4864,2.4726,2.4594,2.4927,2.5425,2.6074,2.6605,2.7215,2.8064,2.8235,2.8381,2.8621,2.8194,2.8014,2.8502,2.7618,2.7035,2.735,2.723,2.7213,2.7547,2.7772,2.8146,2.8621,2.9148,2.957,2.9886,3.0048,3.0285,3.0567,3.0628,3.0657,3.0703,3.0658,3.0599,3.0521,3.0354,3.012,2.038,2.0777,2.1267,0.0,0.0,0.0,0.0,0.0,0.0,0.0,0.0,0.0,0.0,0.0,0.0,0.0,0.0,0.0,0.0,0.0,3.2447,3.2268,3.1449,3.054,2.9719,2.9079,2.833,2.7462,2.7385,2.7267,2.6983,2.6929,2.6612,2.6009,2.673,2.638,2.4817,2.5578,2.5533,2.465,2.6066,2.6573,2.6318,2.7139,2.7789,2.8261,2.8433,2.7955,2.703,2.6881,2.6134,2.5045,2.4666,2.4974,2.5526,2.4946,2.5032,2.5362,2.4918,2.4508,2.4094,2.3739,2.4061,2.4485,2.3791,2.399,2.4416,2.4402,2.4013,2.3698,2.4055,2.428,2.4342,2.413,2.3947,2.39,2.4025,2.4402,2.4987,2.5875,2.6298,2.6738,2.7613,2.7817,2.7929,2.8025,2.803,2.8028,2.8137,2.7767,2.7574,2.7771,2.7351,2.71,2.7303,2.7718,2.8094,2.835,2.8814,2.9214,2.9551,2.9756,3.0013,3.037,3.044,3.0536,3.0676,3.0632,3.0663,3.0707,3.0565,3.0406,2.118,2.1199,0.0,0.0,0.0,0.0,0.0,0.0,0.0,0.0,0.0,0.0,0.0,0.0,0.0,0.0,0.0,0.0,0.0,3.2173,3.1371,3.0475,2.9621,2.8764,2.7876,2.78,2.7424,2.6565,2.6488,2.6102,2.5256,2.513,2.5088,2.5101,2.5731,2.568,2.4825,2.552,2.5419,2.4495,2.5298,2.5279,2.4532,2.5408,2.6004,2.6425,2.703,2.7148,2.6845,2.6365,2.5549,2.4513,2.3782,2.4101,2.4894,2.415,2.4272,2.4799,2.4759,2.4451,2.3861,2.3069,2.3254,2.3676,2.2903,2.3101,2.3595,2.358,2.358,2.3445,2.2832,2.3131,2.3759,2.4403,2.4088,2.3789,2.4433,2.4582,2.497,2.6333,2.6191,2.6044,2.669,2.705,2.7193,2.7177,2.7627,2.7737,2.7087,2.7729,2.8173,2.7822,2.7148,2.6841,2.7272,2.7303,2.7572,2.8246,2.8316,2.8609,2.9279,2.9299,2.955,3.0075,3.0164,3.0321,3.0593,3.0652,3.0694,3.0703,3.071,3.0635,2.0282,2.1116,0.0,0.0,0.0,0.0,0.0,0.0,0.0,0.0,0.0,0.0,0.0,0.0,0.0,0.0,0.0,0.0,3.019,3.0471,3.0183,2.8744,2.884,2.8706,2.7869,2.7255,2.6784,2.6531,2.5891,2.5404,2.5151,2.5019,2.4934,2.4884,2.5077,2.5035,2.4714,2.4839,2.4789,2.4495,2.4506,2.4764,2.5301,2.5924,2.6216,2.6227,2.6799,2.6482,2.5562,2.4683,2.4108,2.3718,2.2694,2.2798,2.3438,2.2567,2.2746,2.3393,2.3409,2.3295,2.319,2.332,2.3488,2.3533,2.2903,2.2802,2.2862,2.2398,2.2263,2.2323,2.2607,2.2535,2.2439,2.2644,2.2542,2.2703,2.3846,2.4126,2.4616,2.6284,2.6471,2.6459,2.6766,2.7236,2.7534,2.7254,2.7318,2.7333,2.7044,2.7033,2.7087,2.7288,2.7108,2.6937,2.6875,2.7614,2.8132,2.8303,2.9278,2.9636,2.9166,2.9254,2.9437,2.9746,2.995,3.0145,3.0321,3.0482,3.062,3.0693,3.0693,3.0682,2.1136,0.0,0.0,0.0,0.0,0.0,0.0,0.0,0.0,0.0,0.0,0.0,0.0,0.0,0.0,0.0,0.0,2.9417,2.8612,2.8969,2.8797,2.7436,2.7704,2.7673,2.6849,2.6282,2.5972,2.5963,2.5418,2.5095,2.5025,2.4921,2.4837,2.4798,2.4757,2.4714,2.4615,2.453,2.4426,2.4284,2.4059,2.4217,2.475,2.512,2.5303,2.5343,2.5509,2.5174,2.4396,2.346,2.3039,2.2931,2.2111,2.212,2.2508,2.1843,2.1962,2.2439,2.2722,2.2761,2.275,2.2843,2.3026,2.3071,2.2173,2.2084,2.2263,2.2128,2.2084,2.2173,2.2619,2.2443,2.2175,2.1989,2.1946,2.2222,2.3283,2.3653,2.4264,2.5896,2.5989,2.5899,2.6264,2.6672,2.6995,2.7066,2.6916,2.6949,2.7375,2.6755,2.6703,2.7877,2.7453,2.7125,2.713,2.7503,2.777,2.7853,2.8977,2.9425,2.8993,2.9355,2.9521,2.9455,2.9624,2.9826,2.999,3.0241,3.0383,3.0451,3.0608,3.0664,0.0,0.0,0.0,0.0,0.0,0.0,0.0,0.0,0.0,0.0,0.0,0.0,0.0,0.0,0.0,0.0,2.8836,2.8575,2.7694,2.7699,2.7455,2.6496,2.6515,2.6263,2.5378,2.5291,2.5263,2.5197,2.5127,2.5012,2.4902,2.4823,2.4783,2.4791,2.4698,2.4599,2.4461,2.4446,2.4266,2.3943,2.386,2.3671,2.3369,2.3477,2.3768,2.4112,2.376,2.3585,2.3544,2.2813,2.2423,2.231,2.1903,2.1823,2.1901,2.1557,2.1495,2.1732,2.2395,2.2555,2.2413,2.1874,2.2099,2.2353,2.1096,2.1141,2.1739,2.2338,2.2544,2.2532,2.2679,2.2626,2.2458,2.2032,2.1903,2.2019,2.2759,2.3201,2.3881,2.5224,2.5031,2.4761,2.542,2.5648,2.5967,2.654,2.6397,2.661,2.7784,2.6745,2.6796,2.9009,2.8036,2.74,2.782,2.7316,2.7131,2.7427,2.818,2.8724,2.8942,2.9528,2.9655,2.9252,2.9267,2.9416,2.9661,2.9935,3.006,3.01,3.0397,3.0541,0.0,0.0,0.0,0.0,0.0,0.0,0.0,0.0,0.0,0.0,0.0,0.0,0.0,0.0,0.0,2.7969,2.7969,2.7676,2.6797,2.7275,2.7153,2.5673,2.66,2.702,2.6136,2.6021,2.598,2.5953,2.5291,2.4856,2.4823,2.4757,2.4711,2.4723,2.4497,2.4321,2.4172,2.4037,2.384,2.3592,2.3346,2.3117,2.3021,2.3074,2.3353,2.3732,2.3579,2.3845,2.4309,2.3519,2.2975,2.2526,2.1611,2.1071,2.0801,2.0349,2.0207,2.0324,2.094,2.1126,2.1201,2.1575,2.1799,2.1754,2.0961,2.0812,2.0961,2.1096,2.1141,2.138,2.2413,2.2089,2.1524,2.1451,2.1421,2.1502,2.214,2.236,2.2925,2.449,2.4686,2.4627,2.4761,2.527,2.5573,2.5425,2.5834,2.632,2.6653,2.6377,2.6694,2.8144,2.8169,2.8086,2.8196,2.8833,2.931,2.9491,3.0431,3.0713,3.0145,2.9751,2.9467,2.9447,2.9347,2.9334,2.9377,2.9605,2.982,3.0027,3.0035,3.0198,0.0,0.0,0.0,0.0,0.0,0.0,0.0,0.0,0.0,0.0,0.0,0.0,0.0,0.0,0.0,2.7056,2.7026,2.6734,2.5895,2.6162,2.6123,2.5258,2.5888,2.6192,2.5677,2.5612,2.5565,2.5537,2.5078,2.4794,2.4749,2.4632,2.4548,2.4498,2.421,2.402,2.3964,2.3728,2.35,2.3259,2.3038,2.2857,2.2643,2.2694,2.2829,2.2983,2.2897,2.3071,2.33,2.2752,2.2358,2.2046,2.1151,2.0665,2.0364,1.996,1.9762,1.9831,2.0483,2.0722,2.0782,2.1111,2.1231,2.1096,2.0423,2.0079,1.9988,2.0336,2.0425,2.0661,2.1676,2.1913,2.1787,2.1377,2.084,2.055,2.09,2.1032,2.1499,2.2687,2.3331,2.3699,2.3699,2.4762,2.5437,2.4957,2.5576,2.6138,2.6259,2.6274,2.6825,2.8276,2.8207,2.8152,2.8289,2.8774,2.9082,2.9137,3.0285,3.0748,3.0319,2.9674,2.9286,2.9136,2.9274,2.9174,2.8819,2.9156,2.94,2.9567,2.9761,2.9946,0.0,0.0,0.0,0.0,0.0,0.0,0.0,0.0,0.0,0.0,0.0,0.0,0.0,0.0,2.6882,2.6091,2.6018,2.5817,2.5165,2.507,2.507,2.507,2.5057,2.4999,2.4888,2.4855,2.4828,2.4785,2.4733,2.4685,2.4651,2.4451,2.4292,2.4225,2.3915,2.372,2.3659,2.3435,2.3165,2.2898,2.2824,2.2642,2.2366,2.2366,2.2338,2.2282,2.2197,2.2106,2.1953,2.1645,2.1462,2.1323,2.0698,2.0364,2.0158,1.9889,1.9762,1.9765,2.0333,2.0543,2.0543,2.0543,2.0505,2.04,1.9854,1.9472,1.9307,1.9909,2.0084,2.0258,2.1056,2.1779,2.2161,2.1518,2.0456,1.9647,1.9673,1.9838,2.0164,2.0808,2.178,2.2547,2.2694,2.4029,2.5002,2.4672,2.5213,2.5788,2.6153,2.629,2.6979,2.8639,2.8248,2.8025,2.8351,2.8336,2.8338,2.8354,2.9521,3.0162,3.0162,2.9663,2.918,2.8714,2.8977,2.8792,2.8074,2.85,2.8695,2.8679,2.9064,2.924,0.0,0.0,0.0,0.0,0.0,0.0,0.0,0.0,0.0,0.0,0.0,0.0,0.0,2.522,2.5219,2.5091,2.5086,2.5048,2.4934,2.4934,2.4934,2.4934,2.4879,2.4823,2.4808,2.4655,2.4591,2.4704,2.4445,2.4335,2.4432,2.4185,2.4001,2.3864,2.3651,2.3412,2.3102,2.296,2.2754,2.2483,2.2398,2.2338,2.2242,2.2242,2.2214,2.2214,2.2089,2.2027,2.1953,2.1645,2.1291,2.0958,2.0499,2.0089,1.9782,1.9726,1.9726,1.969,1.9794,1.9824,1.9824,1.9824,1.9803,1.973,1.972,1.9632,1.9598,1.9987,2.0084,2.036,2.1553,2.1336,2.0978,2.1797,2.0826,1.974,1.9633,1.9501,1.9579,2.0121,2.1114,2.2009,2.2619,2.2906,2.3263,2.3857,2.4109,2.4724,2.6031,2.6229,2.675,2.813,2.8354,2.8466,2.8638,2.9003,2.9267,2.9383,3.0053,3.0468,3.0468,3.0046,2.9475,2.8696,2.8307,2.7779,2.7094,2.7385,2.7323,2.693,2.6995,2.7059,0.0,0.0,0.0,0.0,0.0,0.0,0.0,0.0,0.0,0.0,0.0,0.0,0.0,2.4794,2.4837,2.4794,2.4823,2.4832,2.4832,2.4837,2.4794,2.4697,2.4654,2.4572,2.4414,2.4327,2.4304,2.4361,2.4229,2.4124,2.4077,2.3888,2.3704,2.3522,2.3257,2.303,2.2876,2.2677,2.2493,2.2281,2.226,2.2186,2.2079,2.2044,2.202,2.202,2.1957,2.1911,2.184,2.1308,2.1007,2.0778,2.0174,1.9839,1.969,1.969,1.969,1.969,1.969,1.9705,1.9632,1.9632,1.9413,1.9213,1.956,1.9288,1.8955,1.9397,1.9598,1.9715,1.9955,2.0656,2.1245,2.1117,2.0595,2.0116,2.0107,1.9505,1.9169,1.9966,2.0351,2.0902,2.1949,2.2428,2.2694,2.263,2.333,2.4288,2.5392,2.5514,2.6184,2.792,2.8122,2.8107,2.8091,2.8795,2.9284,2.9374,3.0251,3.0757,3.0716,2.975,2.9034,2.8603,2.8168,2.7622,2.6899,2.7422,2.7548,2.7284,2.8016,2.8294,0.0,0.0,0.0,0.0,0.0,0.0,0.0,0.0,0.0,0.0,0.0,0.0,2.466,2.4723,2.4753,2.4707,2.4738,2.4768,2.4719,2.4692,2.4629,2.4422,2.4389,2.4317,2.4117,2.4063,2.404,2.403,2.3975,2.3859,2.3669,2.3567,2.3383,2.3177,2.2936,2.2771,2.2691,2.2453,2.2309,2.2215,2.2175,2.2096,2.1967,2.1919,2.1882,2.1869,2.1869,2.1811,2.1631,2.1007,2.0679,2.0561,1.9904,1.9617,1.9617,1.9617,1.9617,1.9617,1.9508,1.9435,1.9376,1.925,1.8936,1.8707,1.9228,1.8936,1.85,1.8936,1.9151,1.916,1.8824,2.0019,2.1182,2.0697,2.0609,2.0548,2.0117,1.9398,1.9128,2.0084,1.9953,2.0109,2.1455,2.1964,2.2069,2.1739,2.2735,2.3824,2.4591,2.5014,2.588,2.7516,2.775,2.774,2.7625,2.848,2.9011,2.9011,3.0123,3.069,3.0466,2.9287,2.8503,2.8244,2.775,2.7233,2.655,2.7173,2.7366,2.7179,2.8308,2.8775,0.0,0.0,0.0,0.0,0.0,0.0,0.0,0.0,0.0,0.0,0.0,2.4599,2.4596,2.4666,2.4698,2.4692,2.4695,2.4631,2.4459,2.4426,2.4357,2.4136,2.4135,2.4118,2.4099,2.3989,2.3878,2.3827,2.3575,2.3397,2.3328,2.321,2.3041,2.2833,2.2807,2.2691,2.2406,2.2276,2.2215,2.2215,2.2086,2.1978,2.1915,2.1886,2.1878,2.1827,2.1827,2.1601,2.1277,2.0795,2.0429,2.01,1.9581,1.9413,1.9413,1.9413,1.9413,1.9376,1.8988,1.886,1.8784,1.8302,1.812,1.8147,1.8669,1.8822,1.8769,1.8855,1.9026,1.9161,1.9313,1.9528,2.0001,2.1002,2.1315,2.0844,1.8986,1.8929,1.9551,2.0502,2.0154,2.0109,2.1455,2.1201,2.1021,2.1605,2.2344,2.3088,2.3752,2.5091,2.6167,2.6781,2.7414,2.774,2.7625,2.8189,2.8559,2.8559,2.9633,2.9936,2.9231,2.8754,2.8177,2.7478,2.669,2.6081,2.5658,2.5829,2.5772,2.5452,2.6138,2.6533,0.0,0.0,0.0,0.0,0.0,0.0,0.0,0.0,0.0,0.0,0.0,2.4229,2.4266,2.4479,2.4599,2.4513,2.4515,2.4445,2.4248,2.4155,2.4079,2.3939,2.386,2.3783,2.3608,2.3545,2.3476,2.3365,2.3259,2.3142,2.2995,2.2929,2.2824,2.2616,2.2559,2.2468,2.2279,2.2137,2.2041,2.2007,2.1953,2.1906,2.1853,2.1853,2.1727,2.1471,2.139,2.1277,2.1134,2.053,2.0154,1.9914,1.9545,1.9413,1.9413,1.9413,1.9413,1.9339,1.8936,1.8745,1.8577,1.8173,1.7787,1.7598,1.8108,1.8094,1.8001,1.8703,1.8988,1.9075,1.888,1.9419,2.0069,2.0246,2.1107,2.1449,1.9964,1.982,2.0007,1.9992,2.0263,2.0479,2.0563,2.0991,2.1126,2.0498,2.1734,2.2975,2.3706,2.4927,2.6161,2.7323,2.759,2.7625,2.7625,2.8076,2.8352,2.8352,2.9422,2.9701,2.8884,2.8603,2.8123,2.7354,2.6515,2.6054,2.5998,2.6218,2.6419,2.6673,2.777,2.8506,0.0,0.0,0.0,0.0,0.0,0.0,0.0,0.0,0.0,0.0,2.3959,2.3958,2.3999,2.4136,2.4266,2.4302,2.4229,2.4154,2.4019,2.3903,2.378,2.3646,2.3558,2.3432,2.3241,2.323,2.3183,2.2999,2.2989,2.2901,2.2726,2.2699,2.2637,2.2432,2.2372,2.2269,2.2115,2.2036,2.194,2.189,2.1748,2.1668,2.1635,2.146,2.1283,2.1055,2.0791,2.0709,2.0715,2.0208,1.9874,1.9681,1.9384,1.9302,1.9302,1.9302,1.9302,1.9213,1.8669,1.8422,1.8226,1.7666,1.7269,1.706,1.7598,1.7544,1.7517,1.838,1.8753,1.8833,1.8574,1.9388,2.0272,2.0202,2.1047,2.1685,2.1044,2.0896,2.0789,2.0446,2.0798,2.1053,2.0643,2.1374,2.1575,2.0228,2.1919,2.3368,2.3423,2.4702,2.6081,2.7289,2.7295,2.7385,2.7595,2.8027,2.8288,2.8288,2.9196,2.927,2.8359,2.8256,2.7762,2.6879,2.6294,2.6105,2.6385,2.6343,2.6664,2.7337,2.8463,2.9542,0.0,0.0,0.0,0.0,0.0,0.0,0.0,0.0,0.0,0.0,2.3858,2.3774,2.3774,2.3671,2.3674,2.402,2.3923,2.3783,2.3795,2.3628,2.345,2.3313,2.3193,2.3109,2.3093,2.3077,2.3014,2.2807,2.2781,2.2726,2.2519,2.2474,2.2428,2.2282,2.222,2.2103,2.1965,2.1906,2.186,2.1853,2.1474,2.1269,2.1253,2.0822,2.0603,2.0532,2.01,1.9993,2.0065,1.9874,1.9588,1.9302,1.9139,1.9101,1.9101,1.9101,1.9101,1.8988,1.8108,1.7801,1.7679,1.6765,1.6522,1.6565,1.7031,1.7323,1.7557,1.7947,1.8277,1.8461,1.85,1.9374,2.0413,2.1044,2.1305,2.1554,2.2049,2.2026,2.1917,2.1917,2.1831,2.1773,2.1887,2.2359,2.2233,2.0932,2.2921,2.4118,2.2862,2.4388,2.5839,2.6512,2.6587,2.6856,2.7565,2.8027,2.8304,2.8304,2.8779,2.8637,2.7639,2.7632,2.7143,2.6072,2.604,2.6327,2.6818,2.6091,2.6258,2.7255,2.7943,2.9326,2.2856,0.0,0.0,0.0,0.0,0.0,0.0,0.0,0.0,2.2597,2.3071,2.3412,2.3301,2.3182,2.3157,2.3348,2.341,2.3392,2.3301,2.3253,2.3182,2.3168,2.3102,2.306,2.2958,2.2892,2.2825,0.0,2.261,2.2541,2.244,2.2344,2.2126,2.1813,2.1684,2.1496,2.1213,2.1135,2.1086,2.1115,2.0975,2.0872,2.0776,2.0649,2.0401,2.0066,1.9901,1.9708,1.9508,1.9472,1.9325,1.9139,1.9101,1.9101,1.9101,1.9101,1.9101,1.8988,1.8108,1.7815,1.7677,1.6791,1.6522,1.6522,1.665,1.6723,1.6892,1.7503,1.7652,1.772,1.8226,1.91,1.9982,2.044,2.1549,2.2526,2.2649,2.2655,2.2525,2.2104,2.235,2.2425,2.1989,2.2359,2.2398,2.1545,2.2443,2.3251,2.3325,2.4253,2.533,2.6467,2.6587,2.6856,2.7565,2.771,2.7795,2.7795,2.8255,2.814,2.733,2.7933,2.7872,2.7049,2.7241,2.745,2.7566,2.6873,2.715,2.8372,2.9305,2.9955,0.0,0.0,0.0,0.0,0.0,0.0,2.2078,2.2127,2.2242,0.0,2.2858,2.3119,2.3045,2.2919,2.2842,2.2919,2.2985,2.3042,2.3077,2.3045,2.302,2.2995,2.2944,2.285,2.2764,2.2703,2.2642,2.2561,2.2364,2.2128,2.1871,2.1777,2.1596,2.1334,2.1227,2.1072,2.0868,2.0744,2.0732,2.0719,2.0512,2.0384,2.0304,2.0112,1.9932,1.9633,1.9537,1.9397,1.9213,1.9213,1.9176,1.9101,1.9101,1.9101,1.9101,1.9101,1.9101,1.8974,1.8104,1.7787,1.7651,1.6791,1.6522,1.6522,1.6522,1.6522,1.665,1.7073,1.7269,1.7489,1.7988,1.8808,1.9707,2.0173,2.1288,2.2388,2.2799,2.2889,2.2799,2.2512,2.2694,2.2773,2.2396,2.2743,2.2847,2.2203,2.2652,2.3101,2.3191,2.3565,2.4208,2.5241,2.5345,2.5719,2.6613,2.7006,2.729,2.7509,2.7845,2.7722,2.7116,2.7595,2.7595,2.693,2.7358,2.7784,2.8257,2.7542,2.7672,2.8662,2.9323,2.9673,0.0,0.0,0.0,0.0,0.0,0.0,2.2941,2.2488,2.2166,0.0,2.283,2.2729,2.2746,2.2531,2.2418,2.2401,2.2434,2.2582,2.3003,2.2902,2.2773,2.2721,2.2561,2.2497,2.2497,2.2415,2.2388,2.2377,2.2035,2.1603,2.1111,2.1061,2.099,2.0856,2.083,2.0767,2.0679,2.0534,2.0454,2.0454,2.003,1.9851,1.9832,1.9464,1.9278,1.9263,1.9168,1.9101,1.9101,1.9101,1.9101,1.9101,1.9101,1.9101,1.9101,1.9101,1.9101,1.8959,1.811,1.7799,1.7651,1.6778,1.6522,1.6522,1.6522,1.6577,1.6675,1.6675,1.7044,1.7475,1.772,1.8596,1.9605,2.0259,2.0941,2.1732,2.2754,2.2889,2.2844,2.2979,2.2979,2.2979,2.2979,2.3334,2.3415,2.2862,2.3131,2.3206,2.2783,2.2547,2.2727,2.343,2.3565,2.4104,2.5292,2.6117,2.6788,2.7357,2.7539,2.7405,2.7063,2.7081,2.6886,2.6473,2.7008,2.7817,2.886,2.8214,2.8088,2.8499,2.8589,2.8872,0.0,0.0,0.0,0.0,0.0,0.0,2.2125,2.1943,2.1753,0.0,2.1806,2.1747,2.1618,2.1071,2.0586,2.0543,2.1105,2.1814,2.2599,2.2409,2.2169,2.2169,2.1895,2.1705,2.1705,2.1645,2.1595,2.1611,2.1392,2.1211,2.1038,2.0961,2.0767,2.0421,2.0299,2.0106,1.9844,1.9697,1.9617,1.9617,1.9551,1.9465,1.9398,1.9324,1.9249,1.913,1.9101,1.9101,1.9101,1.9101,1.9101,1.9101,1.9101,1.9101,1.9101,1.9101,1.9101,1.8959,1.811,1.7787,1.7646,1.6782,1.6522,1.6522,1.6522,1.6522,1.6522,1.6522,1.682,1.7157,1.7475,1.8609,1.9853,2.0739,2.1465,2.2221,2.3246,2.2815,2.2498,2.3334,2.3465,2.3465,2.3465,2.3551,2.355,2.343,2.2652,2.2218,2.2664,2.1754,2.1505,2.2587,2.3182,2.4,2.5227,2.5889,2.6589,2.7357,2.7437,2.7378,2.736,2.7584,2.7606,2.7436,2.8046,2.8697,2.9367,2.9223,2.909,2.8946,2.8444,2.8356,0.0,0.0,0.0,2.2154,0.0,0.0,0.0,2.194,2.1564,2.1481,2.1113,2.0781,2.0722,2.0348,2.0044,1.9951,2.0495,2.0982,2.1143,2.1631,2.194,2.1735,2.1554,2.1432,2.1432,2.1401,2.1259,2.1036,2.0887,2.0682,2.0431,2.036,2.0243,1.9948,1.9903,1.9728,1.9494,1.9398,1.9369,1.9369,1.9294,1.9249,1.9197,1.9197,1.9168,1.9101,1.9101,1.9087,1.9035,1.9035,1.902,1.8954,1.8846,1.8784,1.8784,1.8553,1.8436,1.8403,1.7963,1.7666,1.7437,1.7005,1.6689,1.6522,1.6522,1.6522,1.6522,1.6577,1.6663,1.682,1.7157,1.8149,1.9274,2.0187,2.0973,2.1846,2.292,2.274,2.2649,2.3392,2.3538,2.3566,2.3595,2.3523,2.348,2.3595,2.2703,2.1995,2.2092,2.1203,2.0635,2.0922,2.1528,2.2536,2.4053,2.4835,2.5859,2.7195,2.7284,2.7284,2.7284,2.7423,2.7494,2.7515,2.8046,2.8543,2.8997,2.9059,2.9013,2.8873,2.8107,2.7798,0.0,0.0,0.0,0.0,0.0,2.1785,0.0,0.0,0.0,2.1139,2.0425,1.9824,0.0,1.9631,0.0,0.0,0.0,0.0,0.0,2.0423,0.0,2.0949,2.0857,2.0844,2.0972,2.0878,2.0719,2.0518,2.0258,2.0016,1.9792,1.9756,1.9726,1.9588,1.9456,1.9354,1.9263,1.9101,1.902,1.902,1.9006,1.8991,1.9006,1.9035,1.9026,1.8965,1.9026,1.8983,1.8835,1.8835,1.8754,1.8636,1.8496,1.8425,1.8388,1.7922,1.7743,1.7727,1.7685,1.7437,1.7148,1.7083,1.6806,1.6522,1.6522,1.6522,1.6522,1.662,1.662,1.6633,1.7046,1.7798,1.8686,1.9602,2.0328,2.1126,2.2267,2.2452,2.2558,2.3172,2.3275,2.3363,2.3566,2.3436,2.3363,2.3523,2.2844,2.2081,2.1569,2.0941,2.0312,1.9641,2.0259,2.1366,2.2936,2.3772,2.5011,2.6872,2.699,2.7049,2.7181,2.6989,2.7011,2.7297,2.755,2.7864,2.8319,2.8383,2.8431,2.8574,2.7659,2.7287,0.0,0.0,0.0,0.0,2.0266,0.0,0.0,0.0,2.0221,2.0093,0.0,1.8859,1.8793,0.0,0.0,0.0,0.0,0.0,1.7114,1.8275,1.9244,1.9185,1.881,1.8827,1.9479,1.9247,1.9372,2.0,1.9241,1.9026,1.966,1.9662,1.9619,1.9619,1.903,1.8705,1.8682,1.8214,1.7974,1.7974,1.8375,1.8587,1.8587,1.8939,1.8851,1.8388,1.8841,1.8684,1.819,1.819,1.8176,1.819,1.8143,1.8152,1.8112,1.7706,1.7516,1.7502,1.718,1.7047,1.6952,1.6676,1.6539,1.6522,1.6522,1.6522,1.6522,1.6522,1.662,1.6832,1.7447,1.8106,1.8848,1.996,2.0237,2.0547,2.1568,2.15,2.1465,2.242,2.2512,2.2649,2.3407,2.3407,2.3319,2.3319,2.2758,2.2081,2.1477,2.13,2.091,2.0172,2.1181,2.2192,2.2875,2.3574,2.4567,2.6023,2.6161,2.6374,2.6974,2.6698,2.6811,2.7297,2.7004,2.7071,2.7615,2.7363,2.758,2.8143,2.7026,2.6901,0.0,0.0,0.0,0.0,0.0,0.0,2.0298,0.0,1.9376,0.0,0.0,0.0,0.0,0.0,0.0,0.0,1.7429,0.0,0.0,0.0,1.7694,0.0,0.0,0.0,1.81,1.8248,1.8483,1.8821,1.9071,1.9355,1.9675,1.945,1.9272,1.9127,1.8593,1.8235,1.8153,1.7923,1.7787,1.7787,1.8004,1.808,1.8106,1.8214,1.818,1.7973,1.807,1.793,1.7644,1.7644,1.7596,1.7549,1.7271,1.7258,1.7316,1.6876,1.6761,1.6756,1.6938,1.6831,1.6621,1.6539,1.6522,1.6522,1.6522,1.6522,1.6522,1.6522,1.6522,1.667,1.7053,1.7733,1.855,1.9144,1.9628,2.0207,2.1015,2.1028,2.1091,2.1846,2.2128,2.242,2.2754,2.2949,2.3098,2.3275,2.2922,2.244,2.1938,2.1766,2.1462,2.075,2.0852,2.148,2.2786,2.2846,2.3691,2.5862,2.6374,2.6593,2.6698,2.6563,2.651,2.6602,2.6669,2.6599,2.641,2.6512,2.6356,2.5888,2.5972,2.6147,1.9543,0.0,0.0,0.0,0.0,0.0,0.0,0.0,0.0,0.0,0.0,0.0,0.0,0.0,1.7134,1.6824,0.0,1.7279,0.0,1.6407,0.0,0.0,0.0,0.0,0.0,1.7573,1.7805,1.7903,1.8678,1.9265,1.953,1.9124,1.8865,1.8807,1.821,1.7814,1.762,1.7518,1.7433,1.7433,1.7583,1.7663,1.7633,1.7647,1.7603,1.7437,1.7434,1.7328,1.709,1.7101,1.7059,1.6955,1.6478,1.6405,1.6471,1.6219,1.6081,1.6137,1.6595,1.6565,1.643,1.6491,1.6522,1.6522,1.6522,1.6522,1.6522,1.6522,1.6522,1.6559,1.6865,1.7579,1.8251,1.8499,1.9067,1.9737,2.0176,2.0338,2.0526,2.1197,2.1609,2.1894,2.2035,2.254,2.2978,2.3142,2.3023,2.2643,2.1958,2.1931,2.167,2.0843,2.0669,2.1177,2.2526,2.241,2.3194,2.5485,2.6097,2.6329,2.6199,2.5988,2.5812,2.5615,2.5864,2.5724,2.5163,2.5416,2.502,2.414,2.4897,2.5165,0.0,0.0,0.0,1.8666,0.0,0.0,0.0,0.0,1.7867,0.0,0.0,0.0,1.733,1.7306,1.7003,1.608,1.6399,0.0,0.0,0.0,0.0,0.0,0.0,0.0,0.0,1.7261,1.73,0.0,1.7726,1.8149,1.9058,1.8616,1.8461,1.8784,1.7841,1.7299,1.7203,1.6765,1.6534,1.6534,1.6982,1.7206,1.7223,1.7505,1.7303,1.6833,1.7154,1.6989,1.6529,1.6541,1.6507,1.6489,1.6001,1.5848,1.5836,1.5836,1.5792,1.5836,1.6001,1.6163,1.6392,1.6479,1.6522,1.6522,1.6522,1.6522,1.6522,1.6522,1.6522,1.669,1.7378,1.7857,1.8251,1.838,1.8727,1.9045,1.9045,1.9058,1.9345,2.0406,2.066,2.0795,2.1321,2.2249,2.2888,2.2902,2.2902,2.2439,2.1191,2.1598,2.1511,2.0262,2.1206,2.196,2.2019,2.2526,2.3378,2.4581,2.471,2.4963,2.5412,2.4753,2.4376,2.4376,2.4225,2.416,2.4146,2.3877,2.3775,2.3733,2.3908,2.3889,2.1127,2.1273,2.1216,1.9253,0.0,0.0,0.0,0.0,0.0,0.0,0.0,0.0,0.0,0.0,1.7052,1.6701,1.6636,1.6554,0.0,0.0,0.0,0.0,0.0,0.0,0.0,0.0,0.0,0.0,1.6768,1.7547,1.865,1.8187,1.7908,1.7948,1.7269,1.685,1.674,1.6595,1.6522,1.6522,1.667,1.6718,1.6718,1.6672,1.6557,1.6403,1.633,1.6219,1.6054,1.6051,1.6027,1.602,1.5869,1.5792,1.5792,1.5792,1.5792,1.5836,1.6057,1.6275,1.6392,1.6479,1.6522,1.6522,1.6522,1.6522,1.6522,1.6522,1.6522,1.6559,1.6804,1.7269,1.7664,1.7743,1.8125,1.8581,1.8895,1.8983,1.9233,1.9953,2.0359,2.066,2.0845,2.1431,2.2016,2.237,2.2706,2.2728,2.2294,2.2439,2.241,2.1975,2.1989,2.2164,2.254,2.2727,2.3112,2.3803,2.3937,2.4189,2.4668,2.4433,2.4269,2.4168,2.3965,2.3603,2.3173,2.2949,2.2542,2.1934,2.195,2.2366,2.2207,2.2254,2.2057,2.0111,2.0093,0.0,1.8478,0.0,1.7813,0.0,0.0,0.0,0.0,0.0,1.7087,1.7173,1.6797,1.6436,0.0,1.5854,0.0,0.0,0.0,0.0,0.0,0.0,1.4556,1.5155,1.6052,1.7033,1.8092,1.7679,1.7434,1.7421,1.6947,1.6633,1.6522,1.6522,1.6522,1.6522,1.6522,1.6479,1.6461,1.6275,1.6156,1.6118,1.5905,1.5792,1.5792,1.5792,1.5792,1.5792,1.5792,1.5792,1.5792,1.5792,1.5792,1.5836,1.6057,1.6231,1.6362,1.6436,1.6479,1.6522,1.6522,1.6522,1.6559,1.6773,1.6672,1.6559,1.6773,1.7099,1.7338,1.7124,1.7652,1.8304,1.8656,1.8894,1.9183,1.9698,2.0055,2.0308,2.0308,2.0944,2.1575,2.2123,2.2463,2.262,2.2584,2.2555,2.2468,2.2236,2.2091,2.212,2.2481,2.2421,2.2589,2.3079,2.2936,2.3112,2.3688,2.3505,2.3343,2.3145,2.2995,2.2688,2.224,2.2007,2.1569,2.0983,2.0785,2.107]},{"header":{"parameterUnit":"m.s-1","parameterCategory":1,"la1":30.6,"la2":29.2853,"lo1":-89.7004,"lo2":-87.6739,"dy":0.0162,"dx":0.0183,"nx":112,"ny":82,"refTime":"2023-05-20T12:00:00:Z","depth":0,"parameterNumber":3,"parameterNumberName":"V-component_of_WINDS"},"data":[0.0,0.0,0.0,0.0,0.0,0.0,0.0,0.0,0.0,0.0,0.0,0.0,0.0,0.0,0.0,0.0,0.0,0.0,0.0,0.0,0.0,0.0,0.0,0.0,0.0,0.0,0.0,0.0,0.0,0.0,0.0,0.0,0.0,0.0,0.0,0.0,0.0,0.0,0.0,0.0,0.0,0.0,0.0,0.0,0.0,0.0,0.0,0.0,0.0,0.0,0.0,0.0,0.0,0.0,0.0,0.0,0.0,0.0,0.0,0.0,0.0,0.0,0.0,0.0,0.0,0.0,0.0,0.0,0.0,0.0,0.0,0.0,0.0,0.0,0.0,0.0,0.0,0.0,0.0,0.0,0.0,0.0,0.0,0.0,0.0,0.0,0.0,0.0,0.0,0.0,0.0,1.8004,2.0197,2.1472,2.1381,2.1302,2.0407,1.8397,0.0,0.0,0.0,0.0,0.0,0.0,0.0,0.0,0.0,0.0,0.0,0.0,0.0,0.0,0.0,0.0,0.0,0.0,0.0,0.0,0.0,0.0,0.0,0.0,0.0,0.0,0.0,0.0,0.0,0.0,0.0,0.0,0.0,0.0,0.0,0.0,0.0,0.0,0.0,0.0,0.0,0.0,0.0,0.0,0.0,0.0,0.0,0.0,0.0,0.0,0.0,0.0,0.0,0.0,0.0,0.0,0.0,0.0,0.0,0.0,0.0,0.0,0.0,0.0,0.0,0.0,0.0,0.0,0.0,0.0,0.0,0.0,0.0,0.0,0.0,0.0,0.0,0.0,0.0,0.0,0.0,0.0,0.0,0.0,0.0,0.0,0.0,0.0,0.0,0.0,0.0,0.0,0.0,0.0,0.0,0.0,0.0,0.0,0.0,0.0,0.0,0.0,0.0,0.0,1.7014,1.9258,2.0725,2.1315,2.0882,2.0335,1.9394,1.773,0.0,0.0,0.0,0.0,0.0,0.0,0.0,0.0,0.0,0.0,0.0,0.0,0.0,0.0,0.0,0.0,0.0,0.0,0.0,0.0,0.0,0.0,0.0,0.0,0.0,0.0,0.0,0.0,0.0,0.0,0.0,0.0,0.0,0.0,0.0,0.0,0.0,0.0,0.0,0.0,0.0,0.0,0.0,0.0,0.0,0.0,0.0,0.0,0.0,0.0,0.0,0.0,0.0,0.0,0.0,0.0,0.0,0.0,0.0,0.0,0.0,0.0,0.0,0.0,0.0,0.0,0.0,0.0,0.0,0.0,0.0,0.0,0.0,0.0,0.0,0.0,0.0,0.0,0.0,0.0,0.0,0.0,0.0,0.0,0.0,0.0,0.0,0.0,0.0,0.0,0.0,0.0,0.0,0.0,0.0,0.0,0.0,0.0,0.0,0.0,0.0,0.0,0.0,1.6354,1.7369,1.9114,1.9786,2.0126,2.0191,1.9381,1.8489,1.7548,1.7514,0.0,0.0,0.0,0.0,0.0,0.0,0.0,0.0,0.0,0.0,0.0,0.0,0.0,0.0,0.0,0.0,0.0,0.0,0.0,0.0,0.0,0.0,0.0,0.0,0.0,0.0,0.0,0.0,0.0,0.0,0.0,0.0,0.0,0.0,0.0,0.0,0.0,0.0,0.0,0.0,0.0,0.0,0.0,0.0,0.0,0.0,0.0,0.0,0.0,0.0,0.0,0.0,0.0,0.0,0.0,0.0,0.0,0.0,0.0,0.0,0.0,0.0,0.0,0.0,0.0,0.0,0.0,0.0,0.0,0.0,0.0,0.0,0.0,0.0,0.0,0.0,0.0,0.0,0.0,0.0,0.0,0.0,0.0,0.0,0.0,0.0,0.0,0.0,0.0,0.0,0.0,0.0,0.0,0.0,0.0,0.0,0.0,0.0,0.0,0.0,0.0,0.0,1.6837,1.7624,1.8616,1.8832,1.9041,1.9368,1.8597,1.7862,1.7297,1.693,0.0,0.0,0.0,0.0,0.0,0.0,0.0,0.0,0.0,0.0,0.0,0.0,0.0,0.0,0.0,0.0,0.0,0.0,0.0,0.0,0.0,0.0,0.0,0.0,0.0,0.0,0.0,0.0,0.0,0.0,0.0,0.0,0.0,0.0,0.0,0.0,0.0,0.0,0.0,0.0,0.0,0.0,0.0,0.0,0.0,0.0,0.0,0.0,0.0,0.0,0.0,0.0,0.0,0.0,0.0,0.0,0.0,0.0,0.0,0.0,0.0,0.0,0.0,0.0,0.0,0.0,0.0,0.0,0.0,0.0,0.0,0.0,0.0,0.0,0.0,0.0,0.0,0.0,0.0,0.0,0.0,0.0,0.0,0.0,0.0,0.0,0.0,0.0,0.0,0.0,0.0,0.0,0.0,0.0,0.0,0.0,0.0,0.0,0.0,0.0,0.0,0.0,1.7223,1.8066,1.814,1.861,1.8715,1.8257,1.814,1.7676,1.6726,1.6676,0.0,0.0,0.0,0.0,0.0,0.0,0.0,0.0,0.0,0.0,0.0,0.0,0.0,0.0,0.0,0.0,0.0,0.0,0.0,0.0,0.0,0.0,0.0,0.0,0.0,0.0,0.0,0.0,0.0,0.0,0.0,0.0,0.0,0.0,0.0,0.0,0.0,0.0,0.0,0.0,0.0,0.0,0.0,0.0,0.0,0.0,0.0,0.0,0.0,0.0,0.0,0.0,0.0,0.0,0.0,0.0,0.0,0.0,0.0,0.0,0.0,0.0,0.0,0.0,0.0,0.0,0.0,0.0,0.0,0.0,0.0,0.0,0.0,0.0,0.0,0.0,0.0,0.0,0.0,0.0,0.0,0.0,0.0,0.0,0.0,0.0,0.0,0.0,0.0,0.0,0.0,0.0,0.0,0.0,0.0,0.0,0.0,0.0,0.0,0.0,0.0,0.0,1.6794,1.7444,0.0,1.7944,1.7904,1.8087,1.7761,1.725,1.6642,0.0,0.0,0.0,0.0,0.0,0.0,0.0,0.0,0.0,0.0,0.0,0.0,0.0,0.0,0.0,0.0,0.0,0.0,0.0,0.0,0.0,0.0,0.0,0.0,0.0,0.0,0.0,0.0,0.0,0.0,0.0,0.0,0.0,0.0,0.0,0.0,0.0,0.0,0.0,0.0,0.0,0.0,0.0,0.0,0.0,0.0,0.0,0.0,0.0,0.0,0.0,0.0,0.0,0.0,0.0,0.0,0.0,0.0,0.0,0.0,0.0,0.0,0.0,0.0,0.0,0.0,0.0,0.0,0.0,0.0,0.0,0.0,0.0,0.0,0.0,0.0,0.0,0.0,0.0,0.0,0.0,0.0,0.0,0.0,0.0,0.0,0.0,0.0,0.0,0.0,0.0,0.0,0.0,0.0,0.0,0.0,0.0,0.0,0.0,0.0,0.0,0.0,1.6514,1.675,1.7115,0.0,1.7447,1.7369,1.7774,1.7434,1.705,1.6663,0.0,0.0,0.0,0.0,0.0,0.0,0.0,0.0,0.0,0.0,0.0,0.0,0.0,0.0,0.0,0.0,0.0,0.0,0.0,0.0,0.0,0.0,0.0,0.0,0.0,0.0,0.0,0.0,0.0,0.0,0.0,0.0,0.0,0.0,0.0,0.0,0.0,0.0,0.0,0.0,0.0,0.0,0.0,0.0,0.0,0.0,0.0,0.0,0.0,0.0,0.0,0.0,0.0,0.0,0.0,0.0,0.0,0.0,0.0,0.0,0.0,0.0,0.0,0.0,0.0,0.0,0.0,0.0,0.0,0.0,0.0,0.0,0.0,0.0,0.0,0.0,0.0,0.0,0.0,0.0,0.0,0.0,0.0,0.0,0.0,0.0,0.0,0.0,0.0,0.0,0.0,0.0,0.0,0.0,0.0,0.0,0.0,0.0,0.0,0.0,0.0,0.0,1.7098,1.7156,1.7199,1.7199,1.7199,1.7199,1.7199,1.7199,1.7036,0.0,0.0,0.0,0.0,0.0,0.0,0.0,0.0,0.0,0.0,0.0,0.0,0.0,0.0,0.0,0.0,0.0,0.0,0.0,0.0,0.0,0.0,0.0,0.0,0.0,0.0,0.0,0.0,0.0,0.0,0.0,0.0,0.0,0.0,0.0,0.0,0.0,0.0,0.0,0.0,0.0,0.0,0.0,0.0,0.0,0.0,0.0,0.0,0.0,0.0,0.0,0.0,0.0,0.0,0.0,0.0,0.0,0.0,0.0,0.0,0.0,0.0,0.0,0.0,0.0,0.0,0.0,0.0,0.0,0.0,0.0,0.0,0.0,0.0,0.0,0.0,0.0,0.0,0.0,0.0,0.0,0.0,0.0,0.0,0.0,0.0,0.0,0.0,0.0,0.0,0.0,0.0,0.0,0.0,0.0,0.0,0.0,0.0,0.0,0.0,0.0,0.0,0.0,1.7174,1.7197,1.7199,1.7199,1.7199,1.7199,1.7199,1.7199,1.7036,1.6733,0.0,0.0,0.0,0.0,0.0,0.0,0.0,0.0,0.0,0.0,0.0,0.0,0.0,0.0,0.0,0.0,0.0,0.0,0.0,0.0,0.0,0.0,0.0,0.0,0.0,0.0,0.0,0.0,0.0,0.0,0.0,0.0,0.0,0.0,0.0,0.0,0.0,0.0,0.0,0.0,0.0,0.0,0.0,0.0,0.0,0.0,0.0,0.0,0.0,0.0,0.0,0.0,0.0,0.0,0.0,0.0,0.0,0.0,0.0,0.0,0.0,0.0,0.0,0.0,0.0,0.0,0.0,0.0,0.0,0.0,0.0,0.0,0.0,0.0,0.0,0.0,0.0,0.0,0.0,0.0,0.0,0.0,0.0,0.0,0.0,0.0,0.0,0.0,0.0,0.0,0.0,0.0,0.0,0.0,0.0,0.0,0.0,0.0,0.0,0.0,0.0,0.0,1.7647,1.729,1.706,1.7199,1.7199,1.7199,1.7199,1.7352,1.7342,1.7078,0.0,0.0,0.0,0.0,0.0,0.0,0.0,0.0,0.0,0.0,0.0,0.0,0.0,0.0,0.0,0.0,0.0,0.0,0.0,0.0,0.0,0.0,0.0,0.0,0.0,0.0,0.0,0.0,0.0,0.0,0.0,0.0,0.0,0.0,0.0,0.0,0.0,0.0,0.0,0.0,0.0,0.0,0.0,0.0,0.0,0.0,0.0,0.0,0.0,0.0,0.0,0.0,0.0,0.0,0.0,0.0,0.0,0.0,0.0,0.0,0.0,0.0,0.0,0.0,0.0,0.0,0.0,0.0,0.0,0.0,0.0,0.0,0.0,0.0,0.0,0.0,0.0,0.0,0.0,0.0,0.0,0.0,0.0,0.0,0.0,0.0,0.0,0.0,0.0,0.0,0.0,0.0,0.0,0.0,0.0,0.0,0.0,0.0,0.0,0.0,0.0,0.0,1.8226,1.7366,1.685,1.7157,1.7199,1.7199,1.7199,1.7516,1.7689,1.759,0.0,0.0,0.0,0.0,0.0,0.0,0.0,0.0,0.0,0.0,0.0,0.0,0.0,0.0,0.0,0.0,0.0,0.0,0.0,0.0,0.0,0.0,0.0,0.0,0.0,0.0,0.0,0.0,0.0,0.0,0.0,0.0,0.0,0.0,0.0,0.0,0.0,0.0,0.0,0.0,0.0,0.0,0.0,0.0,0.0,0.0,0.0,0.0,0.0,0.0,0.0,0.0,0.0,0.0,0.0,0.0,0.0,0.0,0.0,0.0,0.6918,0.0,0.0,0.0,0.0,0.0,0.0,0.0,0.0,0.0,0.0,0.0,0.0,0.0,0.0,0.0,0.0,0.0,0.0,0.0,0.0,0.0,0.0,0.0,0.0,0.0,0.0,0.0,0.0,0.0,0.0,0.0,0.0,0.0,0.0,0.0,0.0,0.0,0.0,0.0,0.0,0.0,1.8266,1.7366,1.685,1.7157,1.7199,1.7199,1.7199,1.7282,1.7424,1.759,1.7568,0.0,0.0,0.0,0.0,0.0,0.0,0.0,0.0,0.0,0.0,0.0,0.0,0.0,0.0,0.0,0.0,0.0,0.0,0.0,0.0,0.0,0.0,0.0,0.0,0.0,0.0,0.0,0.0,0.0,0.0,0.0,0.0,0.0,0.0,0.0,0.0,0.0,0.0,0.0,0.0,0.0,0.0,0.0,0.0,0.0,0.0,0.0,0.0,0.0,0.0,0.0,0.0,0.0,0.0,0.0,0.0,0.0,0.0,0.0,0.0,0.6906,0.0,0.0,0.0,0.0,0.0,0.0,0.0,0.0,0.0,0.0,0.0,0.0,0.0,0.0,0.0,0.0,0.0,0.0,0.0,0.0,0.0,0.0,0.0,0.0,0.0,0.0,0.0,0.0,0.0,0.0,0.0,0.0,0.0,0.0,0.0,0.0,0.0,0.0,0.0,0.0,1.8344,1.7256,1.665,1.7157,1.7199,1.7199,1.7199,1.7393,1.7625,1.8012,1.7925,0.0,0.0,0.0,0.0,0.0,0.0,0.0,0.0,0.0,0.0,0.0,0.0,0.0,0.0,0.0,0.0,0.0,0.0,0.0,0.0,0.0,0.0,0.0,0.0,0.0,0.0,0.0,0.0,0.0,0.0,0.0,0.0,0.0,0.0,0.0,0.0,0.0,0.0,0.0,0.0,0.0,0.0,0.0,0.0,0.0,0.0,0.0,0.0,0.0,0.0,0.0,0.0,0.0,0.6096,0.6126,0.6449,0.6551,0.6251,0.5697,0.5908,0.5766,0.5539,0.6847,0.0,0.0,0.0,0.0,0.0,0.0,0.0,0.0,0.0,0.0,0.0,0.0,0.0,0.0,0.0,0.0,0.0,0.0,0.0,0.0,0.0,0.0,0.0,0.0,0.77,0.761,0.9475,0.0,0.0,0.0,0.0,0.0,0.0,0.0,0.0,0.0,0.0,0.0,1.812,1.6993,1.6392,1.7115,1.7199,1.7199,1.7199,1.7557,1.7988,1.8461,1.8432,1.8502,0.0,0.0,0.0,0.0,0.0,0.0,0.0,0.0,0.0,0.0,0.0,0.0,0.0,0.0,0.0,0.0,0.0,0.0,0.0,0.0,0.0,0.0,0.0,0.0,0.0,0.0,0.0,0.0,0.0,0.0,0.0,0.0,0.6305,0.5785,0.0,0.0,0.0,0.0,0.0,0.0,0.0,0.0,0.0,0.0,0.0,0.0,0.0,0.6484,0.66,0.5846,0.5608,0.5956,0.505,0.4832,0.5172,0.5172,0.5182,0.5185,0.513,0.0,0.5595,0.5921,0.0,0.0,0.0,0.0,0.0,0.0,0.0,0.0,0.0,0.0,0.0,0.0,0.0,0.0,0.0,0.0,0.0,0.0,0.0,0.0,0.0,0.0,0.5797,0.5797,0.5658,0.5729,0.0,0.9222,1.1869,1.2363,1.332,0.0,0.0,0.0,0.0,0.0,0.0,0.0,1.7068,1.6361,1.6194,1.7115,1.7199,1.7199,1.7199,1.7557,1.7988,1.8461,1.8812,1.9192,1.9641,1.8796,0.0,0.0,0.0,0.0,0.0,0.0,0.0,0.0,0.0,0.0,0.0,0.0,0.0,0.0,0.0,0.0,0.0,0.0,0.0,0.0,0.0,0.0,0.0,0.0,0.0,0.0,0.0,0.0,0.0,0.6258,0.5975,0.5689,0.6013,0.643,0.0,0.0,0.0,0.0,0.0,0.0,0.0,0.0,0.0,0.5625,0.5775,0.5656,0.5176,0.5033,0.504,0.527,0.4945,0.4919,0.5269,0.5269,0.5332,0.5464,0.5401,0.5481,0.5608,0.5753,0.6199,0.6811,0.0,0.0,0.0,0.0,0.7861,0.7848,0.6907,0.6634,0.6875,0.7577,0.0,0.0,0.0,0.0,0.0,0.0,0.0,0.835,0.0,0.0,0.6212,0.5609,0.5369,0.5407,0.574,0.7501,0.9368,0.0,1.2461,1.4349,1.6076,0.0,0.0,0.0,0.0,1.6182,1.676,1.6232,1.6151,1.6989,1.7157,1.7282,1.7516,1.772,1.8108,1.8784,1.8988,1.9288,1.9726,1.9096,1.865,0.0,0.0,0.0,0.0,0.0,0.0,0.0,0.0,0.0,0.0,0.0,0.0,0.0,0.0,0.0,0.0,0.0,0.0,0.0,0.0,0.0,0.0,0.0,0.0,0.0,0.0,0.0,0.0,0.5736,0.5467,0.5494,0.5486,0.5731,0.0,0.0,0.0,0.0,0.0,0.0,0.5779,0.6087,0.5864,0.4944,0.5262,0.5126,0.4336,0.4698,0.4901,0.5059,0.5197,0.5415,0.5705,0.5705,0.5775,0.5915,0.5833,0.5742,0.5662,0.5487,0.5505,0.5748,0.6044,0.641,0.6749,0.6475,0.6547,0.6624,0.5852,0.5673,0.5851,0.6412,0.6843,0.7153,0.743,0.0,0.0,0.0,0.0,0.8029,0.7058,0.6838,0.6625,0.5775,0.5515,0.5409,0.5639,0.6514,0.7747,0.0,1.1161,1.3128,1.4919,0.0,0.0,0.0,0.0,1.5516,1.612,1.5896,1.5964,1.668,1.6989,1.7282,1.7557,1.772,1.8108,1.8898,1.9026,1.9288,1.969,1.9261,1.8951,1.8786,0.0,0.0,0.0,0.0,0.0,0.0,0.0,0.0,0.0,0.0,0.0,0.0,0.0,0.0,0.0,0.0,0.0,0.0,0.0,0.0,0.0,0.0,0.0,0.0,0.0,0.0,0.0,0.0,0.0,0.5018,0.4774,0.0,0.0,0.0,0.0,0.5812,0.5942,0.5765,0.519,0.542,0.5229,0.4457,0.4909,0.5124,0.507,0.5204,0.5412,0.578,0.578,0.5934,0.6237,0.6237,0.6237,0.6224,0.5928,0.5796,0.5694,0.4763,0.4798,0.5351,0.4535,0.4809,0.5468,0.4577,0.4301,0.4343,0.4229,0.4069,0.4357,0.6768,0.8276,0.8843,0.7318,0.7723,0.0,0.0,0.7334,0.7125,0.6206,0.5967,0.5922,0.5649,0.5604,0.5555,0.5389,0.6977,0.8339,0.0,0.8666,0.9835,1.1804,0.0,1.3067,1.3911,1.4426,1.471,1.463,1.5017,1.5522,1.6071,1.6667,1.7002,1.7044,1.7516,1.7988,1.85,1.8898,1.9288,1.969,1.966,1.9346,1.8717,1.7384,0.0,0.0,0.0,0.0,0.0,0.0,0.0,0.0,0.0,0.0,0.0,0.0,0.0,0.0,0.0,0.0,0.0,0.0,0.0,0.0,0.0,0.0,0.0,0.0,0.0,0.0,0.0,0.0,0.5169,0.4991,0.0,0.5567,0.5469,0.544,0.562,0.5434,0.5119,0.4788,0.5055,0.509,0.4681,0.5132,0.5343,0.5359,0.5628,0.58,0.5864,0.602,0.6207,0.6338,0.6338,0.6338,0.6254,0.6146,0.579,0.524,0.4257,0.4161,0.4461,0.3651,0.3542,0.3817,0.3427,0.3418,0.3481,0.3496,0.3476,0.3621,0.4361,0.4885,0.499,0.4424,0.4855,0.5451,0.5126,0.5447,0.5854,0.5636,0.5663,0.5711,0.5762,0.5812,0.5738,0.5559,0.6267,0.6978,0.6923,0.8586,1.0346,1.1277,1.1379,1.1899,1.3538,1.3554,1.3606,1.4351,1.4949,1.5478,1.5976,1.6565,1.7073,1.7434,1.7868,1.8344,1.886,1.9273,1.953,1.969,1.969,1.957,1.9346,1.8867,1.8747,0.0,0.0,0.0,0.0,0.0,0.0,0.0,0.0,0.0,0.0,0.0,0.0,0.0,0.0,0.0,0.0,0.0,0.0,0.0,0.0,0.0,0.0,0.0,0.0,0.0,0.0,0.4886,0.5352,0.5064,0.5006,0.5551,0.5241,0.5029,0.514,0.4976,0.4851,0.4757,0.5087,0.5303,0.5164,0.5517,0.5787,0.5806,0.5957,0.608,0.6022,0.618,0.6338,0.6338,0.6338,0.6338,0.6335,0.6207,0.5745,0.4916,0.4038,0.3605,0.3464,0.2643,0.2349,0.2349,0.2349,0.2374,0.2479,0.2691,0.3026,0.3364,0.3147,0.3074,0.2959,0.2959,0.3257,0.361,0.3675,0.4113,0.4574,0.4794,0.5065,0.538,0.5434,0.5639,0.5775,0.5595,0.5727,0.5954,0.6142,0.805,0.9781,1.0253,1.0418,1.1182,1.3199,1.2936,1.3034,1.4433,1.4812,1.5187,1.5635,1.6262,1.682,1.7323,1.7868,1.8383,1.8784,1.931,1.9639,1.969,1.9501,1.9501,1.9726,1.9726,1.9641,1.9451,0.0,0.0,0.0,0.0,0.0,0.0,0.0,0.0,0.0,0.0,0.0,0.0,0.0,0.0,0.0,0.0,0.0,0.0,0.0,0.0,0.0,0.0,0.0,0.5215,0.5031,0.4996,0.5609,0.5005,0.4677,0.5006,0.4584,0.4374,0.4555,0.4702,0.49,0.5038,0.5519,0.5809,0.5813,0.6106,0.6338,0.6338,0.6338,0.6338,0.6338,0.6338,0.6338,0.6338,0.6338,0.6338,0.6251,0.6101,0.5585,0.4916,0.3893,0.3071,0.2345,0.1564,0.1169,0.1169,0.1169,0.1169,0.1315,0.197,0.274,0.3385,0.33,0.3216,0.3217,0.3217,0.3227,0.3224,0.3424,0.3491,0.3556,0.368,0.4212,0.4782,0.4647,0.5144,0.5607,0.5444,0.5517,0.5633,0.5784,0.6825,0.7836,0.8468,0.9444,1.083,1.2656,1.2638,0.0,1.4699,1.4617,1.4558,1.5062,1.568,1.6219,1.6675,1.7449,1.804,1.8266,1.8997,1.9479,1.969,1.9146,1.9166,1.9858,1.9858,1.9612,1.9113,0.0,0.0,0.0,0.0,0.0,0.0,0.0,0.0,0.0,0.0,0.0,0.0,0.0,0.0,0.0,0.0,0.0,0.0,0.0,0.0,0.0,0.0,0.4686,0.5053,0.4922,0.4902,0.514,0.5186,0.514,0.5135,0.5302,0.5416,0.5529,0.5752,0.5956,0.6039,0.6132,0.6167,0.6116,0.6213,0.6338,0.6338,0.6338,0.6338,0.6338,0.6338,0.6338,0.6338,0.6338,0.6338,0.6257,0.5591,0.4817,0.4064,0.3112,0.2286,0.1607,0.1403,0.1309,0.1309,0.1309,0.1309,0.1309,0.1463,0.1681,0.1813,0.1801,0.1766,0.1802,0.1802,0.2077,0.2481,0.2572,0.2971,0.3368,0.3366,0.4018,0.4613,0.4578,0.5325,0.5962,0.5798,0.5879,0.5969,0.5715,0.6271,0.7112,0.7961,0.8928,1.0108,1.1621,1.1747,0.0,1.3521,1.4014,1.4606,1.5528,1.6108,1.6701,1.7325,1.7854,1.8212,1.8305,1.886,1.9347,1.969,1.9546,1.9995,2.1165,2.1242,2.1531,0.0,0.0,0.0,0.0,0.0,0.0,0.0,0.0,0.0,0.0,0.0,0.0,0.0,0.0,0.0,0.0,0.0,0.0,0.0,0.0,0.0,0.0,0.4884,0.4795,0.5107,0.5018,0.4974,0.5143,0.5287,0.5322,0.5197,0.5476,0.5624,0.5674,0.5943,0.6247,0.6352,0.6421,0.6454,0.6314,0.6393,0.6349,0.6349,0.6349,0.6349,0.6349,0.6349,0.6349,0.6346,0.6288,0.6291,0.6346,0.5419,0.4535,0.3752,0.2821,0.2057,0.0,0.0,0.0,0.0,0.0,0.1335,0.1335,0.1335,0.1245,0.123,0.123,0.121,0.1185,0.1185,0.1459,0.1713,0.1757,0.2081,0.2396,0.2357,0.2948,0.3551,0.3551,0.4509,0.5427,0.5339,0.5765,0.6005,0.5783,0.6261,0.0,0.7328,0.8205,0.9474,1.1297,1.144,1.1846,1.329,1.3663,1.4179,1.5306,1.5716,1.6232,1.7063,1.7881,0.0,0.0,0.0,1.9545,1.9726,2.0287,0.0,0.0,0.0,2.2531,2.3167,2.3035,0.0,0.0,2.2701,2.2586,0.0,0.0,0.0,0.0,0.0,0.0,0.0,0.0,0.0,0.0,0.0,0.0,0.0,0.0,0.0,0.0,0.4934,0.501,0.5341,0.5233,0.5189,0.5388,0.5409,0.5363,0.5241,0.5408,0.5465,0.5401,0.5828,0.608,0.6316,0.0,0.0,0.0,0.0,0.6498,0.6498,0.6498,0.6498,0.6498,0.6498,0.6498,0.6495,0.6369,0.6369,0.6304,0.5305,0.4389,0.3599,0.2743,0.1962,0.1335,0.1335,0.1273,0.1294,0.1267,0.1335,0.1335,0.1335,0.0,0.0,0.1335,0.1239,0.1217,0.1217,0.1179,0.1135,0.1128,0.1107,0.1084,0.1078,0.1612,0.208,0.208,0.3154,0.4254,0.444,0.5152,0.575,0.5766,0.6348,0.6837,0.6678,0.7478,0.8915,1.1178,1.1297,1.1679,1.3371,1.3301,1.3589,1.4846,0.0,0.0,1.6509,1.7626,1.8224,1.8106,1.9354,2.0071,2.0038,2.1227,2.1642,2.1099,2.2299,2.299,2.3193,2.372,2.4109,2.4245,2.3086,2.284,0.0,0.0,0.0,0.0,0.0,0.0,0.0,0.0,0.0,0.0,0.0,0.0,0.0,0.0,0.0,0.5221,0.5274,0.5325,0.5491,0.564,0.5714,0.567,0.5662,0.5613,0.5491,0.567,0.592,0.6126,0.6155,0.6457,0.6914,0.6814,0.6742,0.6837,0.6722,0.6658,0.6658,0.6658,0.6658,0.6658,0.0,0.0,0.6654,0.6627,0.6156,0.5425,0.4596,0.3665,0.2666,0.1884,0.1414,0.1335,0.1335,0.1261,0.1265,0.1338,0.1335,0.1335,0.1335,0.1335,0.1335,0.1335,0.1254,0.1249,0.1249,0.124,0.0,0.1171,0.1153,0.1138,0.1089,0.1612,0.208,0.208,0.2871,0.3657,0.372,0.438,0.4997,0.4855,0.5549,0.6204,0.646,0.7567,0.8706,0.9695,1.0195,1.0872,1.2227,1.2393,1.3168,1.5161,1.5496,1.599,1.7063,1.7449,1.7814,1.8066,1.9642,2.079,2.133,2.2109,2.2454,2.2359,2.3167,2.3643,2.3685,2.3864,2.4082,2.4193,2.4015,2.3994,0.0,0.0,0.0,0.0,0.0,0.0,0.0,0.0,0.0,0.0,0.0,0.475,0.0,0.0,0.5018,0.5337,0.5426,0.5502,0.5624,0.5744,0.5798,0.5741,0.5733,0.5687,0.5475,0.5689,0.5823,0.5889,0.6078,0.6322,0.6576,0.6665,0.6668,0.6583,0.6685,0.6729,0.6642,0.6729,0.6814,0.6814,0.6814,0.6814,0.6814,0.6226,0.5776,0.5272,0.3928,0.2981,0.2471,0.1657,0.1335,0.1335,0.1335,0.1335,0.1335,0.1335,0.1335,0.1335,0.1335,0.1335,0.1338,0.1275,0.127,0.1338,0.1275,0.1326,0.1281,0.1249,0.1217,0.1116,0.1085,0.1346,0.1614,0.1614,0.1946,0.2278,0.2278,0.3011,0.3727,0.4069,0.4779,0.5385,0.5596,0.6625,0.7801,0.8754,0.932,1.0041,1.1384,1.1783,1.2686,1.4459,1.4971,1.5564,1.6403,1.7521,1.8413,1.8857,2.0586,2.1749,2.2092,2.2802,2.3131,2.3131,2.3488,2.3782,2.3882,2.3982,2.4067,2.4234,2.4234,2.4385,0.0,0.0,0.0,0.0,0.0,0.0,0.0,0.0,0.4606,0.4643,0.4766,0.4894,0.5,0.5176,0.53,0.5441,0.5545,0.5673,0.5727,0.5733,0.5725,0.57,0.5719,0.5695,0.5507,0.5676,0.5697,0.565,0.5886,0.6043,0.6086,0.6455,0.6527,0.6242,0.6608,0.6708,0.6532,0.6708,0.6797,0.6797,0.68,0.6887,0.6797,0.599,0.5472,0.5009,0.3142,0.2352,0.2268,0.1585,0.126,0.1186,0.126,0.1335,0.1257,0.1178,0.1178,0.1179,0.1185,0.1025,0.0788,0.0807,0.0803,0.0872,0.0885,0.1009,0.1181,0.117,0.1058,0.1018,0.1013,0.0809,0.0741,0.0944,0.0874,0.0804,0.1006,0.1675,0.2476,0.3211,0.4013,0.4584,0.4739,0.5538,0.6621,0.8027,0.8562,0.9311,1.0602,1.1316,1.215,1.3426,1.419,1.4915,1.573,1.7609,1.9086,1.985,2.1422,2.2404,2.2678,2.3255,2.361,2.3595,2.3595,2.3696,2.3925,2.3925,2.4009,2.4219,2.4276,2.4508,0.4965,0.483,0.4626,0.4612,0.4566,0.4508,0.0,0.0,0.4944,0.4919,0.5063,0.5159,0.5198,0.5314,0.5483,0.5523,0.5809,0.5958,0.5763,0.5733,0.5692,0.5497,0.5667,0.5727,0.5714,0.5725,0.5802,0.6022,0.5953,0.5987,0.6218,0.6334,0.6344,0.6328,0.644,0.6407,0.6407,0.6407,0.6495,0.6498,0.6599,0.6694,0.6694,0.6871,0.5648,0.3462,0.2073,0.1465,0.1462,0.1348,0.1035,0.0728,0.1109,0.1335,0.1257,0.0864,0.0707,0.0709,0.0644,-0.008,-0.1022,-0.1048,-0.0811,-0.0564,-0.0554,0.0,0.0695,0.0665,0.0642,0.0624,0.061,-0.0135,-0.0605,0.0337,0.0,-0.0269,0.0539,0.1008,0.1474,0.2146,0.3015,0.3885,0.4538,0.4745,0.542,0.7296,0.7919,0.8646,0.9961,1.0661,1.1507,1.2619,1.3558,1.4738,1.6358,1.7587,1.8953,2.0488,2.1234,2.2149,2.3332,2.3465,2.3538,2.3595,2.3595,2.3595,2.3653,2.3653,2.3782,2.4024,2.4395,2.4664,0.4534,0.4539,0.0,0.0,0.4803,0.4858,0.5132,0.5222,0.5294,0.5368,0.5472,0.5548,0.5684,0.5735,0.5779,0.0,0.5928,0.5945,0.5847,0.5651,0.5474,0.5352,0.5325,0.5398,0.5608,0.5627,0.5627,0.5711,0.5662,0.572,0.5809,0.5914,0.5943,0.5917,0.6246,0.6271,0.6257,0.6441,0.6532,0.6532,0.6542,0.5911,0.4912,0.4685,0.3714,0.2089,0.1313,0.105,0.1275,0.1262,0.1027,0.0637,0.1104,0.0549,-0.0471,0.0628,-0.0549,-0.2675,-0.2623,-0.2372,-0.2123,-0.3144,-0.3381,-0.3026,-0.2076,-0.1491,-0.1224,-0.1196,-0.1083,-0.0976,-0.1035,-0.136,-0.1813,-0.222,-0.1882,-0.1343,-0.074,-0.0538,-0.0067,0.1278,0.1812,0.221,0.2477,0.3466,0.47,0.622,0.6979,0.7862,0.922,0.9866,1.0938,1.2857,1.4,1.5241,1.6657,1.8091,1.9344,2.0367,2.1324,2.2286,2.3216,2.3422,2.3538,2.3595,2.3595,2.3653,2.3739,2.3937,2.4147,2.4343,2.4759,2.5176,0.4244,0.0,0.0,0.4841,0.4989,0.5222,0.5476,0.5579,0.5695,0.582,0.5855,0.5874,0.601,0.5964,0.5912,0.5934,0.5918,0.588,0.5814,0.5526,0.5287,0.5197,0.5026,0.5045,0.5371,0.5431,0.5464,0.5496,0.5469,0.5466,0.5499,0.5588,0.5639,0.5676,0.5982,0.6081,0.5994,0.6272,0.6456,0.6456,0.6287,0.5473,0.4115,0.2908,0.1883,0.0904,0.0744,0.0816,0.0952,0.1191,0.0952,0.0476,0.0787,-0.0549,-0.2589,-0.102,-0.2119,-0.4408,-0.4838,-0.4184,-0.3379,-0.4598,-0.4988,-0.4765,-0.3525,-0.3217,-0.3204,-0.3178,-0.2985,-0.28,-0.2729,-0.2674,-0.3021,-0.4177,-0.3632,-0.2684,-0.2149,-0.2014,-0.1545,0.0135,0.047,0.0603,0.1005,0.2306,0.3702,0.4855,0.5807,0.6997,0.8645,0.9622,1.1007,1.3091,1.4327,1.5543,1.68,1.814,1.9377,2.0388,2.1328,2.2235,2.3053,2.3319,2.3494,2.3566,2.361,2.3696,2.3925,2.4245,2.4533,2.4775,2.5052,2.5476,0.0,0.0,0.4606,0.4944,0.5229,0.5412,0.5657,0.589,0.6097,0.6225,0.6157,0.604,0.5928,0.5907,0.5831,0.5518,0.5757,0.5822,0.5505,0.5347,0.5192,0.5186,0.4876,0.476,0.0,0.5132,0.5246,0.5366,0.5265,0.5249,0.5368,0.5371,0.5426,0.5464,0.5667,0.573,0.5733,0.5741,0.5746,0.5749,0.5765,0.5684,0.5502,0.2691,0.0876,0.0084,0.0516,0.0424,0.0081,0.0975,0.0813,0.0,0.0,-0.1963,-0.4886,-0.4807,-0.3849,-0.2827,-0.4433,-0.4965,-0.4959,-0.4996,-0.5033,-0.5009,-0.4977,-0.4945,-0.4924,-0.4958,-0.4753,-0.4568,-0.4284,-0.4261,-0.4303,-0.4721,-0.4718,-0.4367,-0.3353,-0.3151,-0.2746,-0.134,-0.1005,-0.0603,0.0871,0.1541,0.2209,0.3145,0.4302,0.586,0.8139,1.0301,1.2006,1.3014,1.4125,1.5416,1.6849,1.7479,1.8706,2.101,2.1224,2.1813,2.3037,2.3246,2.3363,2.3509,2.3566,2.3824,2.4261,2.4302,2.4614,2.5192,2.513,2.5438,0.0,0.0,0.5135,0.5415,0.5697,0.5907,0.6146,0.6203,0.6195,0.6157,0.5954,0.5662,0.545,0.5513,0.5515,0.5431,0.5632,0.5763,0.5684,0.5461,0.5219,0.498,0.4776,0.0,0.0,0.0,0.0,0.5233,0.514,0.5195,0.5474,0.5336,0.5382,0.5582,0.5555,0.5574,0.5662,0.567,0.5676,0.5676,0.3102,0.1921,0.1895,0.0861,0.0588,0.0807,0.0419,0.0166,0.0,0.0323,0.0242,-0.0238,-0.2443,-0.3297,-0.345,-0.4553,-0.4628,-0.4235,-0.4828,-0.4975,-0.5023,-0.4985,-0.4999,-0.4991,-0.5029,-0.5021,-0.5012,-0.52,-0.5066,-0.5012,-0.5085,-0.5057,-0.5005,-0.4989,-0.4965,-0.4872,-0.4453,-0.437,-0.4303,-0.4033,-0.2414,-0.0938,-0.0469,0.0,0.0801,0.2157,0.4437,0.6427,0.7731,0.9453,1.1047,1.2307,1.344,1.4879,1.6698,1.7474,1.8495,2.0029,2.0646,2.1334,2.2296,2.2754,2.3127,2.3363,2.3494,2.3754,2.4162,2.4583,2.502,2.5535,2.5921,2.6189,0.4463,0.5004,0.5559,0.5749,0.6037,0.6241,0.635,0.6287,0.6146,0.5937,0.5667,0.5406,0.5112,0.5074,0.5165,0.5121,0.5297,0.5463,0.5466,0.5388,0.522,0.5037,0.4882,0.4751,0.0,0.0,0.0,0.5053,0.5069,0.5197,0.5472,0.5382,0.5453,0.5649,0.4958,0.4601,0.467,0.5407,0.5046,0.3599,0.1152,0.0,0.0,0.0,0.0334,0.0807,0.0249,0.0,-0.0079,-0.1289,-0.1765,-0.1963,-0.3534,-0.3843,-0.3522,-0.4623,-0.5018,-0.5018,-0.5018,-0.5018,-0.5018,-0.5018,-0.5018,-0.5018,-0.5093,-0.509,-0.5171,-0.5323,-0.5304,-0.5277,-0.5579,-0.5478,-0.5425,-0.5473,-0.5408,-0.5418,-0.5406,-0.5346,-0.5309,-0.5176,-0.3685,-0.2275,-0.1743,-0.1143,-0.0334,0.1048,0.363,0.588,0.7128,0.8795,1.0313,1.1548,1.2789,1.4218,1.584,1.6856,1.7907,1.9137,1.9978,2.0782,2.1561,2.2267,2.274,2.3038,2.3319,2.3711,2.4162,2.4704,2.5237,2.5758,2.626,2.6537,0.4899,0.5392,0.5761,0.6018,0.6265,0.6399,0.6285,0.6151,0.5947,0.5586,0.5309,0.5021,0.0,0.0,0.466,0.4471,0.4725,0.4916,0.5002,0.5104,0.5162,0.0,0.0,0.0,0.0,0.0,0.0,0.4787,0.0,0.5243,0.5374,0.5496,0.5534,0.5654,0.3944,0.2957,0.2777,0.4497,0.3599,0.0,0.0,0.0,0.0,0.0,0.0,0.0,0.0,0.0,-0.0236,-0.3635,-0.4999,-0.4807,-0.3295,-0.3604,-0.5018,-0.5018,-0.5018,-0.5018,-0.5018,-0.5018,-0.5018,-0.5018,-0.5015,-0.5015,-0.5243,-0.5321,-0.5321,-0.5559,-0.5622,-0.5595,-0.5813,-0.5788,-0.5761,-0.6115,-0.6061,-0.6007,-0.6145,-0.6079,-0.5686,-0.5017,-0.4875,-0.4337,-0.2941,-0.2007,-0.1137,-0.0201,0.1861,0.4072,0.6278,0.818,0.9717,1.0759,1.2043,1.3245,1.4427,1.5668,1.697,1.8419,1.9282,2.0093,2.0881,2.1657,2.2235,2.2466,2.3127,2.3754,2.4261,2.4679,2.5176,2.5779,2.6137,2.6417,0.5288,0.5787,0.613,0.6304,0.6328,0.6279,0.6159,0.5831,0.545,0.5091,0.4756,0.4386,0.0,0.0,0.0,0.4022,0.4252,0.0,0.5186,0.542,0.0,0.0,0.0,0.5243,0.5151,0.5143,0.0,0.0,0.4999,0.5125,0.5424,0.5381,0.5545,0.5673,0.5225,0.3595,0.0808,0.1258,0.0988,0.0,0.0,0.0,0.0,0.0,0.0,0.0,0.0,0.0,-0.0315,-0.403,-0.5322,-0.4972,-0.4723,-0.4777,-0.5018,-0.5018,-0.5018,-0.5015,-0.5168,-0.5093,-0.5015,-0.5168,-0.5246,-0.5246,-0.5482,-0.5559,-0.5637,-0.6025,-0.6079,-0.62,-0.6496,-0.6619,-0.6561,-0.6519,-0.6364,-0.6283,-0.6237,-0.6213,-0.6218,-0.6017,-0.5452,-0.4565,-0.303,-0.2511,-0.2004,-0.113,-0.0063,0.1577,0.4126,0.6071,0.7787,0.9255,0.975,1.105,1.3716,1.43,1.5341,1.7113,1.8197,1.9049,1.9697,2.1113,2.1983,2.2123,2.2949,2.3566,2.4021,2.4364,2.4926,2.5721,2.5977,2.6243,0.5695,0.6016,0.6344,0.6361,0.6276,0.6116,0.5655,0.5225,0.4762,0.4111,0.3796,0.0,0.0,0.0,0.0,0.0,0.0,0.0,0.3744,0.4726,0.5461,0.0,0.5542,0.0,0.5455,0.5407,0.5333,0.0,0.5111,0.491,0.4167,0.5012,0.5609,0.5681,0.4051,0.2157,0.0,0.0,0.0,0.0,0.0,0.0,0.0,0.0,0.0,0.0,0.0,-0.0813,-0.2283,-0.372,-0.4591,-0.5037,-0.5097,-0.5078,-0.5018,-0.5018,-0.5093,-0.5168,-0.5243,-0.5323,-0.5249,-0.5401,-0.5401,-0.5479,-0.5634,-0.5792,-0.5948,-0.6335,-0.6718,-0.7096,-0.7022,-0.7553,-0.7977,-0.758,-0.7496,-0.7407,-0.7307,-0.7265,-0.7172,-0.7076,-0.6193,-0.521,-0.4382,-0.3926,-0.3427,-0.2625,-0.1786,-0.0494,0.1599,0.3783,0.5687,0.7183,0.8017,0.9383,1.1714,1.2603,1.3808,1.5631,1.6515,1.7448,1.8519,1.9949,2.105,2.1636,2.2618,2.3246,2.3551,2.4032,2.4527,2.5067,2.5631,2.603,0.6072,0.6287,0.6412,0.6298,0.6154,0.5826,0.5032,0.4484,0.3937,0.3077,0.0,0.2444,0.2181,0.0,0.2598,0.256,0.0,0.1556,0.158,0.3198,0.4666,0.5237,0.5297,0.5359,0.5349,0.5341,0.527,0.5092,0.5336,0.4539,0.2265,0.3916,0.4956,0.4956,0.1708,0.0,0.0,0.0,0.0,0.0,0.0,0.0,0.0,0.0,0.0,-0.0,-0.0491,-0.2322,-0.4886,-0.3461,-0.369,-0.5018,-0.5034,-0.5031,-0.5015,-0.5096,-0.5171,-0.5321,-0.5398,-0.5467,-0.561,-0.561,-0.5622,-0.5709,-0.5992,-0.6314,-0.6567,-0.6868,-0.7609,-0.8125,-0.7706,-0.8599,-0.9476,-0.8954,-0.8865,-0.8834,-0.8733,-0.8467,-0.8238,-0.8085,-0.7077,-0.6237,-0.6087,-0.5645,-0.5137,-0.4433,-0.3459,-0.2303,-0.0971,0.1461,0.3666,0.5065,0.6397,0.7721,0.912,1.0628,1.2263,1.3942,1.459,1.5669,1.7214,1.8416,1.9623,2.0836,2.2006,2.27,2.2966,2.3651,2.4048,2.421,2.5067,2.5594,0.6243,0.6334,0.6331,0.6211,0.6034,0.5518,0.4731,0.4129,0.0,0.0,0.0,0.223,0.1975,0.2161,0.0,0.1699,0.0,0.0,0.0,0.0,0.1513,0.0,0.0,0.0,0.0,0.0,0.0,0.0,0.0,0.4115,0.0625,0.0807,0.0988,0.0988,0.0359,0.0,0.0,0.0,0.0,0.0,0.0,0.0,0.0,0.0,0.0,-0.0163,-0.2956,0.0,-0.4972,-0.4893,-0.4867,-0.5026,-0.5283,-0.5337,-0.5246,-0.5404,-0.5482,-0.5556,-0.5709,-0.5711,-0.5685,-0.5685,-0.5768,-0.5992,-0.6918,-0.7354,-0.7783,-0.8765,-0.9015,-0.9064,-0.9396,-0.9601,-0.975,-0.9599,-0.9532,-0.9414,-0.8869,-0.8612,-0.8538,-0.9,-0.8269,-0.7402,-0.6549,-0.6819,-0.6754,-0.5588,-0.5184,-0.4416,-0.3004,-0.0355,0.2204,0.4166,0.3986,0.4709,0.7111,0.8675,1.034,1.2078,1.3418,1.4544,1.5471,1.6616,1.7795,1.8947,2.0311,2.1372,2.2193,2.2922,2.3551,2.4147,2.4348,2.4894,0.4706,0.4742,0.4995,0.5865,0.582,0.5252,0.4545,0.0,0.0,0.0,0.0,0.1498,0.1395,0.0,0.0,0.0,0.0,0.0,0.0,0.0,0.0,0.0,0.0,0.0,0.0,0.0,0.0,0.0,0.0,0.1977,0.009,0.0,0.0,0.0,0.0,0.0,0.0,0.0,0.0,0.0,0.0,0.0,0.0,0.0,-0.0931,-0.2731,-0.4786,-0.5504,-0.5193,-0.548,-0.5466,-0.5335,-0.5471,-0.5535,-0.5479,-0.5559,-0.5637,-0.5786,-0.5864,-0.6146,-0.653,-0.6607,-0.6663,-0.6953,-0.8085,-0.8684,-0.8969,-0.9373,-0.9851,-1.0197,-0.9813,-1.0395,-1.106,-1.0557,-1.0741,-1.0918,-1.0702,-1.0224,-0.9928,-0.9983,-0.9668,-0.9004,-0.7833,-0.805,-0.7918,-0.6744,-0.6317,-0.5469,-0.3776,-0.2391,-0.0639,0.175,0.2488,0.3275,0.4539,0.6276,0.817,1.0247,1.1295,1.2694,1.4567,1.5648,1.6945,1.8585,1.9919,2.0978,2.1675,2.2565,2.3157,2.3508,2.3948,2.4405,0.2784,0.2511,0.2881,0.4311,0.5007,0.5111,0.4472,0.3463,0.0,0.0,0.0998,0.0777,0.0,0.0,0.0,0.0,0.0,0.0,0.0,0.0,0.0,0.0,0.0,0.0,0.0,0.0,0.0,0.0,0.0,0.0,0.0,0.0,0.0,0.0,0.0,0.0,0.0,0.0,0.0,0.0,0.0,-0.0087,-0.0343,-0.1035,-0.2555,-0.4653,-0.5722,-0.5931,-0.5491,-0.5721,-0.5718,-0.5637,-0.5634,-0.5637,-0.5715,-0.5792,-0.5944,-0.6089,-0.621,-0.6791,-0.7478,-0.7952,-0.797,-0.8024,-0.9183,-0.9776,-1.0068,-1.0025,-1.0616,-1.1077,-1.0399,-1.1344,-1.2354,-1.1844,-1.2016,-1.2333,-1.2567,-1.2002,-1.1338,-1.1238,-1.1035,-1.0478,-0.9264,-0.918,-0.8893,-0.7832,-0.7212,-0.6296,-0.4597,-0.4155,-0.3161,-0.1113,0.0798,0.2083,0.2527,0.4213,0.6125,0.8144,0.9233,1.0886,1.3146,1.4119,1.5642,1.7856,1.8942,2.0046,2.1179,2.1811,2.24,2.2934,2.3301,2.3716,0.1357,0.0299,0.0298,0.0468,0.2775,0.493,0.469,0.0,0.0,0.1194,0.0696,0.0375,0.0107,0.0,0.0,0.0,0.0,-0.025,0.0,0.0,0.0,0.0,0.0,0.0,0.0,0.0,0.0,0.0,0.0,0.0,0.0,0.0,0.0,0.0,0.0,0.0,0.0,0.0,0.0,0.0,0.0,-0.0426,-0.1311,-0.4356,-0.4792,-0.3398,-0.5118,-0.5811,0.0,-0.564,-0.5637,-0.5637,-0.5786,-0.5864,-0.5941,-0.6328,-0.6483,-0.6615,-0.721,-0.7582,-0.8047,-0.9487,-0.9488,-0.9119,-1.0014,-1.0538,-1.1,-1.1857,-1.182,-1.1584,-1.2249,-1.2484,-1.2719,-1.3229,-1.2981,-1.275,-1.3585,-1.2824,-1.2194,-1.2804,-1.197,-1.1023,-1.0471,-1.0247,-0.9761,-0.8557,-0.8031,-0.7411,-0.644,-0.5097,-0.4106,-0.3828,-0.184,0.0168,0.2077,0.3199,0.4279,0.5396,0.7931,0.9593,1.0173,1.0917,1.2583,1.5284,1.5759,1.7434,2.0481,1.9911,2.0758,2.2875,2.1971,2.2483,0.0468,0.0,0.0,0.0,0.0999,0.247,0.4417,0.0,0.0,0.0608,0.0541,0.0429,-0.0383,0.0,0.0,0.0,0.0,0.0,0.0,0.0,0.0,0.0,0.0,0.0,0.0,0.0,0.0,0.0,0.0,0.0,0.0,0.0,0.0,0.0,0.0,0.0,0.0,-0.0506,-0.0755,-0.0758,-0.0503,-0.0987,-0.2231,-0.3782,-0.4482,-0.4626,-0.5481,-0.5873,0.0,-0.5948,-0.5973,-0.5891,-0.6039,-0.6112,-0.6187,-0.6497,-0.7083,-0.7672,-0.7786,-0.8656,-0.9774,-1.016,-1.0635,-1.1096,-1.1517,-1.1757,-1.2063,-1.2643,-1.268,-1.2636,-1.2907,-1.305,-1.3323,-1.3939,-1.3909,-1.3769,-1.4261,-1.4097,-1.3902,-1.3615,-1.3666,-1.317,-1.1459,-1.1267,-1.0726,-0.9026,-0.8568,-0.8093,-0.7036,-0.6416,-0.5638,-0.444,-0.2282,-0.0559,0.0279,0.1802,0.3224,0.4287,0.5901,0.757,0.9371,1.0186,1.1771,1.4225,1.506,1.6439,1.8405,1.8879,1.9601,2.0543,2.0678,2.1169,0.0,0.0,0.0,0.0,-0.0079,0.0515,0.0,0.0,0.1434,0.0273,0.0215,0.0161,-0.0605,-0.0812,-0.0898,-0.0823,0.0,-0.0957,0.0,0.0,0.0,0.0,0.0,0.0,0.0,0.0,0.0,0.0,0.0,0.0,0.0,-0.0267,-0.0445,-0.0436,-0.0435,-0.0346,-0.0171,-0.075,-0.1157,-0.1334,-0.1485,-0.1947,-0.2776,-0.3726,-0.4562,-0.5348,-0.5831,-0.6063,0.0,-0.6237,-0.6246,-0.6105,-0.6371,-0.6581,-0.6767,-0.7119,-0.7855,-0.8711,-0.8714,-0.9763,-1.0972,-1.0808,-1.1465,-1.2366,-1.2582,-1.2654,-1.2793,-1.3001,-1.3215,-1.3446,-1.3355,-1.3599,-1.4073,-1.4482,-1.4713,-1.4848,-1.4919,-1.5204,-1.5192,-1.4571,-1.494,-1.4731,-1.2845,-1.2377,-1.1755,-1.0086,-0.9388,-0.8771,-0.783,-0.7503,-0.6843,-0.5425,-0.3327,-0.1726,-0.0949,0.067,0.2119,0.3222,0.4238,0.5742,0.7802,0.9005,1.0655,1.2933,1.38,1.5077,1.6777,1.7339,1.8075,1.9001,1.9331,1.9878,0.0,0.0,0.0,0.0,-0.0223,-0.0341,0.0,0.0,0.148,0.0255,-0.0468,-0.0799,-0.0479,-0.0692,-0.0905,-0.0905,-0.0988,0.0,0.0,0.0,0.0,0.0,0.0,0.0,0.0,0.0,0.0,0.0,0.0,0.0,0.0,-0.0897,-0.1423,-0.1395,-0.1306,-0.1023,-0.057,-0.0583,-0.0833,-0.1303,-0.2994,-0.3488,-0.3008,-0.5197,-0.5695,-0.483,-0.5883,-0.6173,0.0,-0.6423,-0.6467,-0.6336,-0.6721,-0.7283,-0.7877,-0.8449,-0.8996,-0.9507,-1.0481,-1.0988,-1.1217,-1.1489,-1.2006,-1.2593,-1.2938,-1.2946,-1.2871,-1.3013,-1.3438,-1.3824,-1.3901,-1.4316,-1.4742,-1.5114,-1.548,-1.5762,-1.5762,-1.5762,-1.5762,-1.5754,-1.5541,-1.5171,-1.4767,-1.3708,-1.2719,-1.1913,-1.0662,-0.9666,-0.9211,-0.819,-0.7439,-0.7289,-0.5692,-0.366,-0.1116,-0.0111,0.0836,0.1789,0.3329,0.4426,0.4824,0.672,0.8782,1.0969,1.109,1.2725,1.5988,1.4839,1.5873,1.8877,1.7875,1.8534,-0.1068,-0.0985,-0.0857,-0.0553,-0.0459,-0.0438,-0.0677,0.0,0.0256,0.0051,-0.0306,-0.062,-0.0742,-0.0958,-0.1066,-0.1065,-0.1152,0.0,0.0,0.0,0.0,0.0,0.0,0.0,0.0,0.0,0.0,0.0,0.0,-0.0262,-0.0947,-0.1221,-0.1315,-0.1394,-0.1373,-0.1269,-0.1083,-0.168,-0.2046,-0.2223,-0.3014,-0.3646,-0.407,-0.4969,-0.5495,-0.5864,-0.6191,-0.6349,-0.6399,-0.6408,-0.6292,-0.6235,-0.6901,-0.7577,-0.8184,-0.8841,-1.0002,-1.1211,-1.1242,-1.1854,-1.2598,-1.2196,-1.2445,-1.2893,-1.2929,-1.2956,-1.3172,-1.377,-1.4652,-1.5208,-1.4882,-1.5373,-1.5957,-1.5666,-1.5692,-1.5833,-1.5833,-1.5982,-1.6123,-1.6123,-1.6314,-1.6088,-1.5278,-1.4418,-1.3468,-1.2122,-1.1247,-1.0431,-0.9444,-0.9079,-0.8554,-0.7551,-0.6843,-0.5638,-0.3553,-0.1614,-0.0279,0.0279,0.1895,0.3205,0.4068,0.5257,0.7059,0.9508,1.0053,1.1223,1.3131,1.3392,1.4595,1.6722,1.6816,1.7613,0.0,-0.1895,-0.1945,-0.1721,-0.1296,0.0,0.0,0.0,-0.0642,-0.0346,-0.0499,-0.0765,-0.0952,-0.1172,-0.1279,-0.1279,-0.1426,0.0,0.0,0.0,0.0,0.0,0.0,0.0,0.0,0.0,0.0,-0.0505,-0.0512,-0.0684,-0.1096,-0.1195,-0.129,-0.1376,-0.1346,-0.1497,-0.1826,-0.2265,-0.2667,-0.2939,-0.3668,-0.4252,-0.472,-0.5277,-0.5801,-0.6216,-0.632,-0.6403,0.0,-0.6395,-0.6561,-0.6765,-0.7364,-0.8229,-0.9146,-0.9749,-1.0805,-1.1968,-1.1867,-1.2362,-1.2901,-1.2417,-1.3009,-1.3776,-1.3555,-1.3616,-1.391,-1.4749,-1.5604,-1.6228,-1.6026,-1.6385,-1.6733,-1.6446,-1.6576,-1.6715,-1.6793,-1.6932,-1.701,-1.701,-1.7088,-1.694,-1.6154,-1.5274,-1.4354,-1.327,-1.2078,-1.1049,-1.0312,-0.9909,-0.934,-0.8389,-0.7907,-0.7088,-0.5806,-0.3674,-0.1884,-0.0695,0.0406,0.1576,0.297,0.4089,0.5561,0.7415,0.8636,0.9805,1.0989,1.2482,1.3836,1.5073,1.6064,1.6899,0.0,-0.2851,0.0,0.0,0.0,0.0,0.0,0.0,0.0,-0.0856,-0.108,-0.1273,-0.1156,-0.1328,-0.1546,-0.1546,-0.1804,0.0,0.0,0.0,0.0,0.0,0.0,0.0,0.0,0.0,-0.0328,-0.1259,-0.1261,-0.1093,-0.0672,-0.1092,-0.1344,-0.1428,-0.1397,-0.1785,-0.2594,-0.2477,-0.2795,-0.3624,-0.4667,-0.5046,-0.4934,-0.6092,-0.6444,0.0,-0.6298,-0.6272,-0.6218,-0.6502,-0.7093,-0.7773,-0.8106,-0.924,-1.0631,-1.097,-1.1525,-1.2102,-1.2275,-1.2462,-1.2538,-1.2445,-1.3617,-1.5064,-1.4883,-1.4873,-1.5026,-1.5844,-1.6394,-1.6917,-1.7382,-1.7451,-1.7392,-1.752,-1.7891,-1.8345,-1.8499,-1.8422,-1.8267,-1.82,-1.8027,-1.7638,-1.7304,-1.6151,-1.5303,-1.5077,-1.3104,-1.1663,-1.1645,-1.0651,-0.9873,-0.9695,-0.8834,-0.8179,-0.7813,-0.5961,-0.38,-0.1473,-0.1105,-0.0246,0.1482,0.2948,0.4156,0.5031,0.7164,0.8727,0.9735,1.191,1.3332,1.4012,1.5599,1.6281,-0.3263,0.0,-0.2955,-0.2841,-0.259,0.0,0.0,0.0,0.0,0.0,0.0,-0.1405,-0.1525,-0.1694,-0.1814,-0.1814,-0.1983,0.0,0.0,0.0,0.0,0.0,0.0,0.0,0.0,0.0,-0.0326,-0.1231,-0.1313,-0.1231,-0.1149,-0.1231,-0.164,-0.2291,-0.2243,-0.2313,-0.2594,-0.3019,-0.3699,-0.475,-0.5472,-0.5909,-0.6015,-0.6493,-0.6618,-0.6462,-0.6576,-0.6717,-0.6945,-0.6852,-0.7472,-0.8513,-0.8774,-0.9882,-1.1309,-1.1594,-1.2279,-1.3089,-1.29,-1.2951,-1.322,-1.368,-1.4766,-1.5882,-1.6154,-1.6459,-1.6734,-1.6498,-1.7571,-1.8795,-1.8834,-1.9325,-1.9619,-1.9002,-1.9002,-1.9079,-1.8566,-1.889,-1.9069,-1.8556,-1.8566,-1.8375,-1.7364,-1.6581,-1.5918,-1.5425,-1.406,-1.2833,-1.2362,-1.1736,-1.1047,-1.0219,-0.9774,-0.9273,-0.858,-0.646,-0.4906,-0.4154,-0.2145,-0.0683,-0.0,0.1653,0.3153,0.4483,0.7756,0.9528,0.9677,1.1249,1.2583,1.3652,1.4919,1.556,-0.3472,-0.3331,-0.3158,-0.303,-0.286,-0.2679,0.0,0.0,0.0,0.0,0.0,0.0,-0.1959,0.0,0.0,0.0,0.0,0.0,0.0,0.0,0.0,0.0,0.0,0.0,0.0,0.0,-0.04,-0.1201,-0.1281,-0.1281,-0.1281,-0.1681,-0.2079,-0.2556,-0.2997,-0.3465,-0.3822,-0.4072,-0.4723,-0.5698,-0.6277,-0.6444,-0.6295,-0.6808,-0.6937,-0.6773,-0.7005,-0.7158,-0.735,-0.7442,-0.8179,-0.9211,-0.9598,-1.0601,-1.1804,-1.1942,-1.2518,-1.3181,-1.2993,-1.3236,-1.3794,-1.4318,-1.5586,-1.6977,-1.7106,-1.8117,-1.8946,-1.8065,-1.8728,-1.9744,-2.0058,-2.0324,-2.0335,-1.9991,-1.9986,-2.0063,-1.9748,-1.9933,-2.0063,-1.9683,-1.9447,-1.9057,-1.8267,-1.7242,-1.6365,-1.6016,-1.471,-1.359,-1.3265,-1.258,-1.1965,-1.1643,-1.0855,-1.0215,-0.9906,-0.8075,-0.6524,-0.5409,-0.3821,-0.2312,-0.085,0.0262,0.158,0.3261,0.6273,0.8269,0.915,1.0219,1.122,1.2149,1.3485,1.4345,-0.3592,-0.3547,-0.3482,-0.3433,-0.3214,-0.3034,0.0,0.0,0.0,0.0,0.0,0.0,0.0,0.0,0.0,0.0,0.0,0.0,0.0,0.0,0.0,0.0,0.0,0.0,0.0,-0.0712,-0.047,-0.1251,-0.1402,-0.1476,-0.1476,-0.2172,-0.2715,-0.2868,-0.3703,-0.4612,-0.5448,-0.5231,-0.559,-0.6486,-0.6826,-0.671,-0.6394,-0.7116,-0.7285,-0.7007,-0.7396,0.0,-0.7777,-0.8166,-0.9028,-1.0149,-1.0478,-1.1317,-1.2259,-1.2205,-1.253,-1.3001,-1.3124,-1.3744,-1.4611,-1.5007,-1.6624,-1.8341,-1.8163,-1.9564,-2.1019,-1.9987,-1.9868,-2.0347,-2.1209,-2.0994,-2.0638,-2.0767,-2.0978,-2.1123,-2.1123,-2.1123,-2.1049,-2.0985,-2.0403,-1.9805,-1.9422,-1.819,-1.7117,-1.686,-1.5442,-1.4336,-1.4326,-1.3412,-1.2857,-1.3141,-1.1937,-1.1088,-1.1138,-1.003,-0.8382,-0.6213,-0.5577,-0.4064,-0.1206,-0.0804,0.02,0.2063,0.4223,0.6177,0.7997,0.8859,0.9741,1.0583,1.2004,1.303,-0.3684,-0.3788,-0.3808,-0.3478,-0.3353,-0.3306,0.0,0.0,0.0,0.0,0.0,0.0,0.0,0.0,0.0,0.0,0.0,0.0,0.0,0.0,0.0,0.0,0.0,0.0,-0.2615,-0.169,-0.109,-0.1221,-0.194,-0.2283,-0.2062,-0.2796,-0.3601,-0.4405,-0.453,-0.5047,-0.6242,-0.5682,-0.5854,-0.6803,-0.6691,-0.6796,-0.7048,-0.7177,-0.7283,-0.7396,0.0,-0.8107,-0.8801,-0.9005,-1.0045,-1.1481,-1.1277,-1.1974,-1.31,-1.2795,-1.317,-1.3928,-1.4586,-1.5414,-1.6263,-1.6977,-1.8459,-1.9982,-1.9952,-2.0648,-2.1388,-2.1325,-2.1456,-2.1681,-2.215,-2.2192,-2.2039,-2.1766,-2.1841,-2.1862,-2.1451,-2.1663,-2.1862,-2.1388,-2.133,-2.1032,-1.9912,-1.9621,-1.912,-1.7996,-1.6866,-1.5889,-1.5272,-1.4412,-1.3758,-1.3557,-1.3129,-1.2448,-1.1382,-1.1102,-1.0164,-0.8245,-0.6355,-0.4064,-0.1206,-0.0737,0.0268,0.2076,0.386,0.5176,0.5909,0.6939,0.8576,1.0719,1.1509,1.2257,-0.3788,-0.3891,-0.3907,-0.383,-0.3897,-0.3957,0.0,0.0,0.0,0.0,0.0,0.0,0.0,0.0,0.0,0.0,0.0,0.0,0.0,0.0,0.0,0.0,0.0,-0.2501,-0.268,-0.2504,-0.2359,-0.2301,-0.3003,-0.3201,-0.2835,-0.363,-0.4255,-0.4694,-0.5339,-0.5901,-0.6467,-0.6279,-0.6383,-0.6771,-0.6818,-0.6997,-0.7181,-0.7418,-0.7678,-0.7912,0.0,-0.8759,-0.9448,-0.9779,-1.0621,-1.1694,-1.1987,-1.2531,-1.3157,-1.3475,-1.3986,-1.4666,-1.5327,-1.6217,-1.7047,-1.7413,-1.8751,-2.0167,-1.9912,-2.0605,-2.1546,-2.1619,-2.1815,-2.2032,-2.2011,-2.199,-2.1844,-2.1424,-2.1319,-2.1272,-2.1129,-2.1476,-2.1813,-2.1546,-2.1607,-2.1445,-2.0939,-2.0296,-1.9693,-1.9195,-1.7811,-1.6777,-1.6688,-1.5385,-1.4625,-1.4923,-1.4054,-1.318,-1.237,-1.1744,-1.0649,-0.8765,-0.6655,-0.4866,-0.3473,-0.1738,-0.0469,0.0335,0.2275,0.3409,0.36,0.537,0.6733,0.7886,0.9686,1.096,-0.3972,-0.3998,-0.4059,-0.4191,0.0,0.0,0.0,0.0,0.0,0.0,0.0,0.0,0.0,0.0,0.0,0.0,0.0,0.0,0.0,0.0,0.0,0.0,0.0,-0.3291,-0.2986,-0.3127,-0.3302,-0.3216,-0.369,-0.3879,-0.3502,-0.4335,-0.4846,-0.4818,-0.5877,-0.6479,-0.6413,-0.6715,-0.6817,-0.671,-0.6902,-0.7062,-0.7212,-0.7673,-0.803,-0.835,-0.886,-0.9466,-1.0091,-1.0667,-1.1303,-1.1926,-1.2736,-1.3164,-1.339,-1.4022,-1.4681,-1.5391,-1.5979,-1.6839,-1.7723,-1.7946,-1.9078,-2.0238,-1.9904,-2.0619,-2.1482,-2.1494,-2.1739,-2.2019,-2.1921,-2.1677,-2.1421,-2.1071,-2.0867,-2.0713,-2.0872,-2.1189,-2.1531,-2.1653,-2.1618,-2.1668,-2.1818,-2.1005,-2.0306,-2.0245,-1.8648,-1.7585,-1.7791,-1.6145,-1.5186,-1.584,-1.473,-1.3722,-1.3166,-1.2066,-1.0746,-0.9186,-0.7358,-0.6056,-0.5404,-0.327,-0.1805,-0.1139,0.0536,0.1609,0.208,0.3799,0.4916,0.5446,0.7529,0.9279,-0.4108,-0.4221,-0.4388,-0.44,-0.4157,0.0,0.0,0.0,0.0,0.0,0.0,0.0,0.0,0.0,0.0,0.0,0.0,0.0,0.0,0.0,0.0,0.0,-0.4496,-0.3923,-0.3867,-0.3566,-0.3195,-0.3038,-0.3682,-0.4094,-0.4044,-0.4719,-0.5211,-0.5506,-0.5945,-0.6164,-0.6138,-0.6602,-0.6847,-0.6957,-0.6871,-0.7019,-0.748,-0.7762,-0.8178,-0.8623,-0.9536,-1.0218,-1.08,-1.174,-1.249,-1.292,-1.3528,-1.4001,-1.4364,-1.4296,-1.4964,-1.5921,-1.6662,-1.7632,-1.8759,-1.9567,-2.0241,-2.0758,-2.088,-2.1018,-2.1193,-2.1092,-2.1299,-2.1731,-2.2431,-2.1866,-2.1145,-2.1611,-2.1342,-2.1031,-2.1131,-2.1112,-2.124,-2.1931,-2.1795,-2.1728,-2.2262,-2.2175,-2.1768,-2.1141,-1.9666,-1.8451,-1.7894,-1.6347,-1.5391,-1.5449,-1.5245,-1.4451,-1.2948,-1.179,-1.0845,-1.0218,-0.9122,-0.7553,-0.5391,-0.5127,-0.3796,-0.1138,-0.0938,0.0134,0.208,0.228,0.3407,0.5391,0.5577,0.7358,-0.4403,-0.4628,-0.4866,-0.473,0.0,0.0,0.0,0.0,0.0,0.0,0.0,0.0,0.0,0.0,0.0,0.0,0.0,0.0,0.0,0.0,-0.5676,-0.5017,-0.4976,-0.4722,-0.4155,-0.4247,-0.4387,-0.4322,-0.4581,-0.4781,-0.4911,-0.5211,-0.5528,-0.5722,-0.6062,-0.633,-0.6447,-0.682,-0.7077,-0.7208,-0.7224,-0.7498,-0.7995,-0.8293,-0.8788,-0.9499,-0.985,-1.0546,-1.1367,-1.179,-1.226,-1.2751,-1.3217,-1.3825,-1.443,-1.4814,-1.5639,-1.6719,-1.7501,-1.8351,-1.9083,-1.9461,-1.9988,-2.0367,-2.0079,-2.0311,-2.068,-2.0704,-2.0553,-2.0561,-2.1113,-2.0958,-2.0667,-2.0464,-2.0224,-2.0023,-2.0184,-2.0457,-2.0866,-2.1398,-2.1737,-2.2038,-2.2323,-2.2359,-2.2173,-2.1862,-2.0673,-1.9616,-1.8865,-1.7426,-1.6325,-1.587,-1.5172,-1.4469,-1.3734,-1.2437,-1.1515,-1.1274,-0.9894,-0.8409,-0.7037,-0.6113,-0.4932,-0.328,-0.241,-0.1272,0.0134,0.0602,0.1671,0.3343,0.3593,0.4973,-0.4799,-0.4988,-0.5204,0.0,0.0,0.0,0.0,0.0,0.0,0.0,0.0,0.0,0.0,0.0,0.0,0.0,0.0,0.0,0.0,0.0,-0.5503,-0.4894,-0.5192,-0.5179,-0.4508,-0.4801,-0.5123,-0.509,-0.5076,-0.5177,-0.5306,-0.5479,-0.5657,-0.5766,-0.6294,-0.6577,-0.6766,-0.7093,-0.7322,-0.7419,-0.7659,-0.7871,-0.8109,-0.8362,-0.9029,-1.0008,-1.0279,-1.0941,-1.1894,-1.218,-1.2535,-1.2968,-1.3184,-1.3844,-1.4812,-1.5138,-1.6178,-1.7512,-1.8104,-1.8721,-1.9251,-1.9224,-1.9571,-1.9916,-1.9438,-1.9688,-2.0216,-2.0295,-2.006,-1.9797,-1.9918,-2.0104,-2.0245,-1.998,-1.9741,-1.9614,-1.9893,-2.0295,-2.0782,-2.1425,-2.1679,-2.1944,-2.2261,-2.2226,-2.2116,-2.1994,-2.1122,-2.027,-1.961,-1.8205,-1.698,-1.6196,-1.5317,-1.4638,-1.4213,-1.3295,-1.2435,-1.1888,-1.0773,-0.9633,-0.8474,-0.7488,-0.6379,-0.5014,-0.4008,-0.3008,-0.2011,-0.0869,0.0268,0.1475,0.2204,0.2928,-0.5232,-0.5236,0.0,0.0,0.0,0.0,0.0,0.0,0.0,0.0,0.0,0.0,0.0,0.0,0.0,0.0,0.0,0.0,0.0,-0.5818,-0.5532,-0.5442,-0.5223,-0.5137,-0.5104,-0.509,-0.5083,-0.5104,-0.5089,-0.5133,-0.5081,-0.5399,-0.5677,-0.5795,-0.6595,-0.6941,-0.6885,-0.7438,-0.7711,-0.7723,-0.8098,-0.8092,-0.7735,-0.8011,-0.8827,-1.0077,-1.0784,-1.1523,-1.2305,-1.3217,-1.3728,-1.3869,-1.3455,-1.4268,-1.5631,-1.5164,-1.6372,-1.8267,-1.8321,-1.8762,-1.9322,-1.8933,-1.9169,-1.9517,-1.9133,-1.9384,-1.9798,-1.9786,-1.9786,-1.9673,-1.9158,-1.9409,-1.9936,-2.0567,-2.0213,-1.9962,-2.0592,-2.0718,-2.1046,-2.2096,-2.1686,-2.1374,-2.2002,-2.1807,-2.163,-2.1618,-2.1008,-2.0338,-1.9771,-1.8616,-1.7349,-1.6225,-1.5674,-1.5108,-1.4273,-1.4213,-1.3597,-1.2135,-1.202,-1.1197,-0.9372,-0.9308,-0.8264,-0.5982,-0.5727,-0.5074,-0.3892,-0.2076,-0.0737,0.0,0.1408,0.1338,-0.5198,-0.5559,0.0,0.0,0.0,0.0,0.0,0.0,0.0,0.0,0.0,0.0,0.0,0.0,0.0,0.0,0.0,0.0,-0.58,-0.5785,-0.5731,-0.5457,-0.5475,-0.545,-0.5354,-0.5236,-0.5206,-0.5277,-0.5385,-0.5516,-0.5576,-0.5891,-0.6159,-0.6436,-0.6778,-0.7002,-0.7203,-0.7535,-0.7697,-0.7723,-0.8438,-0.8648,-0.8343,-0.9117,-0.9802,-1.053,-1.1445,-1.2208,-1.2814,-1.3194,-1.3432,-1.3488,-1.3501,-1.3971,-1.4717,-1.551,-1.6375,-1.731,-1.8289,-1.878,-1.9032,-1.9395,-1.9622,-1.9659,-1.9133,-1.9133,-1.9183,-1.8794,-1.8681,-1.8731,-1.897,-1.9417,-1.9853,-2.0034,-1.9943,-2.0086,-2.1004,-2.1158,-2.1399,-2.2153,-2.2113,-2.2006,-2.2064,-2.2352,-2.2297,-2.1679,-2.1439,-2.0878,-1.983,-1.8666,-1.7675,-1.6886,-1.6693,-1.6185,-1.5128,-1.4837,-1.4567,-1.4188,-1.342,-1.2049,-0.9901,-0.9576,-0.893,-0.7762,-0.6846,-0.5928,-0.5074,-0.442,-0.2948,-0.0804,-0.0804,-0.0268,-0.5713,0.0,0.0,0.0,0.0,0.0,0.0,0.0,0.0,0.0,0.0,0.0,0.0,0.0,0.0,0.0,0.0,-0.5985,-0.5626,-0.5631,-0.5598,-0.5333,-0.5385,-0.5442,-0.528,-0.5228,-0.5284,-0.5519,-0.5635,-0.5736,-0.595,-0.6213,-0.6539,-0.6761,-0.6982,-0.7203,-0.7467,-0.7676,-0.7937,-0.8243,-0.8876,-0.9235,-0.9315,-0.9769,-1.0416,-1.1217,-1.2167,-1.2758,-1.3109,-1.3071,-1.3101,-1.3173,-1.3484,-1.4024,-1.4757,-1.5724,-1.655,-1.7374,-1.84,-1.8846,-1.8921,-1.9083,-1.9321,-1.9359,-1.8606,-1.853,-1.8681,-1.8568,-1.853,-1.8606,-1.8895,-1.9253,-1.9533,-1.9712,-1.976,-2.0009,-2.0873,-2.0927,-2.1,-2.1826,-2.1807,-2.1732,-2.1843,-2.2085,-2.2154,-2.182,-2.1506,-2.096,-2.0072,-1.8996,-1.8181,-1.7674,-1.7322,-1.6704,-1.5743,-1.5324,-1.5,-1.4888,-1.4368,-1.3332,-1.1714,-1.083,-0.9949,-0.9005,-0.8215,-0.7367,-0.658,-0.5947,-0.4812,-0.3066,-0.2409,-0.154,0.0,0.0,0.0,0.0,0.0,0.0,0.0,0.0,0.0,0.0,0.0,0.0,0.0,0.0,0.0,0.0,-0.5998,-0.5814,-0.5634,-0.551,-0.5337,-0.515,-0.5154,-0.5224,-0.5163,-0.5203,-0.5428,-0.5817,-0.5859,-0.6005,-0.6209,-0.6593,-0.6815,-0.6933,-0.7257,-0.7521,-0.783,-0.8002,-0.8415,-0.9131,-0.9399,-0.9865,-1.0466,-1.0269,-1.0769,-1.1956,-1.2767,-1.3208,-1.332,-1.2907,-1.2881,-1.3076,-1.3488,-1.4376,-1.5407,-1.5951,-1.6869,-1.7915,-1.8461,-1.8758,-1.8807,-1.8355,-1.8543,-1.8756,-1.7702,-1.7739,-1.8242,-1.8744,-1.8833,-1.8907,-1.8945,-1.9069,-1.9266,-1.9664,-1.9808,-2.0,-2.0492,-2.0258,-2.0217,-2.1259,-2.1004,-2.0869,-2.133,-2.1331,-2.1405,-2.1878,-2.128,-2.0696,-2.0372,-1.961,-1.8938,-1.8659,-1.7861,-1.7038,-1.6305,-1.5851,-1.535,-1.4814,-1.5063,-1.4953,-1.4351,-1.2763,-1.1309,-1.0072,-0.9722,-0.9064,-0.8156,-0.6911,-0.6252,-0.6056,-0.3732,-0.2739,0.0,0.0,0.0,0.0,0.0,0.0,0.0,0.0,0.0,0.0,0.0,0.0,0.0,0.0,0.0,-0.5945,-0.5945,-0.582,-0.5635,-0.5735,-0.5648,-0.5282,-0.5715,-0.599,-0.5914,-0.6067,-0.6237,-0.6351,-0.6423,-0.6544,-0.6593,-0.6982,-0.7144,-0.7031,-0.7783,-0.8315,-0.8738,-0.9047,-0.9451,-0.9953,-1.0517,-1.0965,-1.1166,-1.1191,-1.1771,-1.2818,-1.3138,-1.3422,-1.3753,-1.3442,-1.3601,-1.4076,-1.4236,-1.4754,-1.5462,-1.6114,-1.651,-1.6828,-1.7493,-1.7727,-1.779,-1.8103,-1.8292,-1.8254,-1.7589,-1.7463,-1.7589,-1.7702,-1.7739,-1.794,-1.8807,-1.9629,-2.0248,-2.0268,-2.0328,-2.0583,-2.1102,-2.1126,-2.1007,-2.0917,-2.0806,-2.0756,-2.0869,-2.1204,-2.1269,-2.068,-2.0734,-2.0749,-2.0544,-2.0423,-2.0299,-2.0075,-1.9633,-1.8855,-1.7533,-1.7239,-1.7007,-1.677,-1.6609,-1.6331,-1.5944,-1.3794,-1.2508,-1.2047,-1.0392,-0.939,-0.9192,-0.821,-0.7228,-0.6314,-0.6179,-0.5325,0.0,0.0,0.0,0.0,0.0,0.0,0.0,0.0,0.0,0.0,0.0,0.0,0.0,0.0,0.0,-0.6184,-0.6053,-0.5927,-0.5741,-0.58,-0.5791,-0.5542,-0.5858,-0.6107,-0.6164,-0.6267,-0.6374,-0.6486,-0.6544,-0.6701,-0.6864,-0.7063,-0.7213,-0.7315,-0.8218,-0.8981,-0.9561,-0.9829,-1.0218,-1.0661,-1.1174,-1.1584,-1.2039,-1.2067,-1.2395,-1.3003,-1.3153,-1.332,-1.3588,-1.3671,-1.3903,-1.4249,-1.4741,-1.5152,-1.5555,-1.6163,-1.6436,-1.6566,-1.7187,-1.7388,-1.7438,-1.7714,-1.7815,-1.7702,-1.7137,-1.7149,-1.7375,-1.76,-1.7677,-1.7881,-1.8678,-1.9387,-1.9964,-2.0375,-2.048,-2.055,-2.0809,-2.0311,-1.9787,-1.9808,-1.9838,-1.9886,-1.9886,-2.0778,-2.1249,-2.0481,-2.0711,-2.0885,-2.0701,-2.0713,-2.077,-2.0923,-2.0588,-1.9896,-1.8902,-1.8155,-1.7734,-1.7681,-1.7309,-1.7044,-1.6892,-1.5283,-1.4047,-1.3355,-1.1902,-1.098,-1.0703,-0.9685,-0.8849,-0.813,-0.7627,-0.6776,0.0,0.0,0.0,0.0,0.0,0.0,0.0,0.0,0.0,0.0,0.0,0.0,0.0,0.0,-0.633,-0.6445,-0.6246,-0.6079,-0.5868,-0.5845,-0.5845,-0.5845,-0.59,-0.6059,-0.6263,-0.6312,-0.6421,-0.6583,-0.6627,-0.673,-0.7069,-0.7127,-0.7253,-0.7406,-0.8586,-0.9644,-1.0534,-1.0557,-1.0864,-1.1416,-1.1692,-1.2166,-1.2783,-1.2783,-1.2832,-1.2929,-1.3075,-1.3152,-1.3256,-1.3789,-1.4071,-1.4247,-1.5107,-1.5555,-1.582,-1.625,-1.6436,-1.6584,-1.7061,-1.7237,-1.7237,-1.7237,-1.7282,-1.7194,-1.666,-1.6778,-1.7232,-1.7848,-1.8004,-1.8161,-1.8793,-1.9184,-1.9607,-2.0509,-2.0726,-2.0613,-2.0372,-1.9157,-1.8236,-1.8572,-1.8767,-1.892,-1.8958,-2.0162,-2.0886,-2.0428,-2.06,-2.079,-2.0803,-2.0725,-2.0889,-2.1483,-2.119,-2.0737,-2.0222,-1.9113,-1.8403,-1.8413,-1.7914,-1.7678,-1.7678,-1.6783,-1.5761,-1.4631,-1.3512,-1.2594,-1.1989,-1.094,-1.0302,-0.9875,-0.8609,-0.7766,0.0,0.0,0.0,0.0,0.0,0.0,0.0,0.0,0.0,0.0,0.0,0.0,0.0,-0.6464,-0.6229,-0.6256,-0.6196,-0.6187,-0.6159,-0.6159,-0.6159,-0.6159,-0.6376,-0.6593,-0.6647,-0.6838,-0.6993,-0.7025,-0.7009,-0.7036,-0.7121,-0.7336,-0.7338,-0.7182,-0.902,-1.0608,-1.1835,-1.151,-1.1657,-1.2335,-1.2608,-1.2832,-1.3036,-1.3036,-1.3085,-1.3085,-1.3142,-1.317,-1.3256,-1.3789,-1.4294,-1.4812,-1.5377,-1.5908,-1.638,-1.6479,-1.6479,-1.6522,-1.6609,-1.6635,-1.6635,-1.6635,-1.669,-1.6777,-1.6547,-1.662,-1.6961,-1.7761,-1.8004,-1.8252,-1.9321,-2.0247,-2.0978,-2.1233,-2.1566,-2.1542,-2.0599,-1.9501,-1.858,-1.8197,-1.8193,-1.8468,-1.8895,-1.9221,-1.9434,-1.9666,-1.9698,-1.9932,-2.0706,-2.077,-2.1183,-2.2176,-2.1954,-2.1646,-2.1385,-2.0687,-2.0209,-2.0006,-1.9238,-1.8762,-1.8762,-1.7875,-1.7189,-1.6819,-1.4268,-1.2659,-1.1992,-1.1413,-1.0625,-0.9669,-0.9427,-0.912,0.0,0.0,0.0,0.0,0.0,0.0,0.0,0.0,0.0,0.0,0.0,0.0,0.0,-0.6701,-0.6539,-0.6701,-0.6593,-0.648,-0.648,-0.6539,-0.6701,-0.6907,-0.7128,-0.7337,-0.7522,-0.767,-0.7547,-0.7158,-0.712,-0.7664,-0.8942,-0.911,-0.9099,-0.9029,-1.0477,-1.1545,-1.21,-1.2058,-1.2276,-1.2735,-1.2852,-1.2939,-1.3006,-1.318,-1.3296,-1.3296,-1.3324,-1.3362,-1.3515,-1.4305,-1.4777,-1.5096,-1.5832,-1.6281,-1.6522,-1.6522,-1.6522,-1.6522,-1.6522,-1.6534,-1.662,-1.662,-1.6876,-1.7073,-1.6705,-1.6989,-1.7446,-1.7542,-1.7959,-1.8465,-1.8608,-1.9517,-2.0427,-2.0392,-2.0505,-2.065,-2.0821,-1.9936,-1.892,-1.8135,-1.7613,-1.7539,-1.8417,-1.8819,-1.8958,-1.8821,-1.9231,-1.9756,-2.0379,-2.0477,-2.1015,-2.2408,-2.2469,-2.2457,-2.2445,-2.1404,-2.0696,-2.0568,-1.9365,-1.8664,-1.8731,-1.7875,-1.7359,-1.7357,-1.5454,-1.415,-1.3632,-1.2642,-1.1978,-1.1652,-1.1106,-1.0932,0.0,0.0,0.0,0.0,0.0,0.0,0.0,0.0,0.0,0.0,0.0,0.0,-0.7246,-0.7031,-0.6923,-0.7085,-0.6977,-0.6869,-0.6972,-0.7139,-0.7354,-0.7759,-0.7925,-0.8019,-0.8187,-0.8285,-0.7986,-0.7175,-0.7617,-0.8684,-1.0415,-1.074,-1.0904,-1.0931,-1.1687,-1.2172,-1.232,-1.251,-1.2686,-1.289,-1.2997,-1.3016,-1.3004,-1.3236,-1.3409,-1.3467,-1.3467,-1.3563,-1.3847,-1.4777,-1.5232,-1.5424,-1.6262,-1.6607,-1.6607,-1.6607,-1.6607,-1.6607,-1.6735,-1.682,-1.6918,-1.7031,-1.7352,-1.7598,-1.7086,-1.7352,-1.7787,-1.7352,-1.7781,-1.8341,-1.8099,-1.8997,-1.9926,-1.9813,-1.9989,-2.0192,-2.0293,-1.974,-1.8962,-1.8004,-1.7117,-1.6873,-1.8003,-1.843,-1.8518,-1.8242,-1.8908,-1.9552,-2.0003,-2.0256,-2.0957,-2.2381,-2.2774,-2.2969,-2.3078,-2.1854,-2.1078,-2.1078,-1.9562,-1.8623,-1.8578,-1.7772,-1.7296,-1.7308,-1.6346,-1.5486,-1.4869,-1.3696,-1.3126,-1.311,-1.253,-1.2437,0.0,0.0,0.0,0.0,0.0,0.0,0.0,0.0,0.0,0.0,0.0,-0.7521,-0.7461,-0.7365,-0.7257,-0.7139,-0.7198,-0.7413,-0.7771,-0.7937,-0.8209,-0.8666,-0.8725,-0.86,-0.8239,-0.8554,-0.828,-0.7171,-0.9109,-1.0356,-1.0509,-1.1446,-1.1995,-1.2013,-1.2063,-1.232,-1.2871,-1.2861,-1.289,-1.289,-1.3337,-1.3402,-1.3168,-1.3215,-1.3341,-1.3573,-1.3573,-1.3894,-1.4419,-1.504,-1.5534,-1.5988,-1.665,-1.6876,-1.6876,-1.6876,-1.6876,-1.6918,-1.7323,-1.7434,-1.7516,-1.7907,-1.812,-1.8147,-1.7639,-1.7475,-1.7503,-1.7353,-1.7282,-1.7481,-1.8407,-1.9528,-2.0353,-2.037,-2.1222,-2.1304,-1.8576,-1.844,-1.8553,-1.7587,-1.6911,-1.6873,-1.8003,-1.779,-1.7639,-1.8129,-1.8584,-1.9033,-1.9579,-2.0409,-2.1284,-2.2076,-2.2598,-2.2969,-2.3078,-2.2322,-2.1815,-2.1815,-2.0366,-1.9348,-1.8892,-1.7968,-1.7267,-1.6838,-1.6516,-1.5827,-1.4739,-1.4317,-1.3559,-1.2552,-1.3103,-1.3229,0.0,0.0,0.0,0.0,0.0,0.0,0.0,0.0,0.0,0.0,0.0,-0.8521,-0.8355,-0.7836,-0.7521,-0.7729,-0.7788,-0.7943,-0.8408,-0.8613,-0.8823,-0.9249,-0.9399,-0.9488,-0.9658,-0.9813,-0.9724,-0.9322,-1.0661,-1.1538,-1.1528,-1.1872,-1.2072,-1.2089,-1.244,-1.2842,-1.332,-1.3367,-1.3375,-1.3354,-1.3519,-1.3556,-1.3457,-1.3457,-1.3842,-1.4551,-1.4428,-1.4419,-1.4525,-1.54,-1.5888,-1.6126,-1.6693,-1.6876,-1.6876,-1.6876,-1.6876,-1.696,-1.7352,-1.7557,-1.7707,-1.8094,-1.85,-1.8707,-1.8187,-1.8173,-1.8238,-1.7517,-1.7784,-1.826,-1.8153,-1.9,-1.9982,-2.0246,-2.1015,-2.117,-1.9364,-1.9734,-2.0182,-1.9475,-1.8649,-1.8118,-1.8112,-1.8007,-1.7727,-1.72,-1.8157,-1.9108,-1.9542,-2.064,-2.1661,-2.2524,-2.2845,-2.3078,-2.3078,-2.2433,-2.2051,-2.2051,-2.0602,-1.9566,-1.9208,-1.8134,-1.7318,-1.6927,-1.6649,-1.628,-1.5776,-1.5213,-1.51,-1.5245,-1.5,-1.5157,0.0,0.0,0.0,0.0,0.0,0.0,0.0,0.0,0.0,0.0,-0.9197,-0.9256,-0.9093,-0.8666,-0.8355,-0.8309,-0.8461,-0.8672,-0.904,-0.9235,-0.9547,-0.9976,-1.0182,-1.0372,-1.0653,-1.0771,-1.0872,-1.1032,-1.1713,-1.2177,-1.2339,-1.2389,-1.2419,-1.2627,-1.2852,-1.3183,-1.3552,-1.357,-1.3577,-1.3546,-1.3589,-1.3606,-1.3585,-1.3606,-1.3954,-1.4606,-1.5245,-1.5324,-1.505,-1.5788,-1.6238,-1.6441,-1.685,-1.7002,-1.7002,-1.7002,-1.7002,-1.7073,-1.7639,-1.7868,-1.8068,-1.8616,-1.9011,-1.9199,-1.8707,-1.8731,-1.8703,-1.7827,-1.8031,-1.8426,-1.7936,-1.8723,-1.9748,-2.0291,-2.1047,-2.1403,-2.0411,-2.0534,-2.0698,-2.0268,-1.9394,-1.8708,-1.8668,-1.858,-1.8103,-1.6974,-1.8392,-1.9521,-1.9394,-2.0636,-2.1788,-2.2596,-2.2802,-2.2877,-2.3053,-2.2494,-2.2101,-2.2101,-2.0921,-1.9929,-1.9219,-1.835,-1.7601,-1.6877,-1.667,-1.6711,-1.689,-1.6222,-1.626,-1.6917,-1.6599,-1.6799,0.0,0.0,0.0,0.0,0.0,0.0,0.0,0.0,0.0,0.0,-0.9458,-0.9666,-0.9666,-0.9865,-0.9806,-0.8981,-0.9183,-0.9488,-0.9614,-0.9969,-1.0379,-1.0871,-1.1124,-1.1209,-1.1015,-1.1318,-1.1663,-1.2063,-1.2113,-1.2339,-1.2871,-1.291,-1.3145,-1.3654,-1.3417,-1.3347,-1.346,-1.3556,-1.3594,-1.3457,-1.3549,-1.3615,-1.3605,-1.3587,-1.3637,-1.3849,-1.5988,-1.6554,-1.6032,-1.6238,-1.6582,-1.7002,-1.7157,-1.7199,-1.7199,-1.7199,-1.7199,-1.7323,-1.8187,-1.8514,-1.863,-1.9457,-1.969,-1.9654,-1.925,-1.8988,-1.8745,-1.8263,-1.7961,-1.7828,-1.7787,-1.871,-1.9799,-2.0411,-2.1398,-2.203,-2.1479,-2.054,-1.9821,-1.9821,-1.8977,-1.8595,-1.9621,-1.9351,-1.8656,-1.7564,-1.9233,-2.0238,-1.9183,-2.0464,-2.1681,-2.2246,-2.2309,-2.2535,-2.3027,-2.2494,-2.2113,-2.2113,-2.1491,-2.0427,-1.8819,-1.8726,-1.8051,-1.669,-1.6669,-1.7016,-1.7835,-1.727,-1.7052,-1.7197,-1.7716,-1.7971,-0.9176,0.0,0.0,0.0,0.0,0.0,0.0,0.0,0.0,-0.9943,-1.0272,-1.0608,-1.0804,-1.1057,-1.1108,-1.0702,-1.0423,-1.0415,-1.0804,-1.0905,-1.1057,-1.1175,-1.1267,-1.1309,-1.1384,-1.1601,-1.1819,0.0,-1.2469,-1.2753,-1.289,-1.29,-1.3759,-1.5631,-1.561,-1.5404,-1.4992,-1.4799,-1.456,-1.4242,-1.3817,-1.3619,-1.3622,-1.3602,-1.4552,-1.6249,-1.6847,-1.6982,-1.6735,-1.6778,-1.6947,-1.7157,-1.7199,-1.7199,-1.7199,-1.7199,-1.7199,-1.7323,-1.8187,-1.8609,-1.8874,-1.9487,-1.969,-1.969,-1.9581,-1.9493,-1.9347,-1.8769,-1.8602,-1.8511,-1.8068,-1.9017,-2.0069,-1.9912,-2.0449,-2.1006,-2.0845,-2.0578,-2.046,-2.0885,-2.039,-1.9928,-1.9799,-1.9351,-1.8794,-1.8078,-1.8832,-1.951,-1.9572,-2.0351,-2.1255,-2.2209,-2.2309,-2.2535,-2.3027,-2.2944,-2.2811,-2.2811,-2.2175,-2.1495,-2.0688,-1.9833,-1.9066,-1.8331,-1.8116,-1.8083,-1.8332,-1.7787,-1.797,-1.8779,-1.885,-1.8992,0.0,0.0,0.0,0.0,0.0,0.0,-1.0003,-1.0084,-1.0254,0.0,-1.0964,-1.1276,-1.1427,-1.1678,-1.1828,-1.1678,-1.146,-1.1301,-1.1318,-1.1427,-1.1477,-1.1528,-1.1628,-1.1769,-1.185,-1.2008,-1.2166,-1.2314,-1.2589,-1.323,-1.4339,-1.3873,-1.4294,-1.5858,-1.5707,-1.5522,-1.5371,-1.521,-1.4994,-1.4778,-1.4496,-1.4339,-1.435,-1.4882,-1.5855,-1.7218,-1.7209,-1.7161,-1.7073,-1.7073,-1.7115,-1.7199,-1.7199,-1.7199,-1.7199,-1.7199,-1.7199,-1.731,-1.8025,-1.85,-1.8845,-1.9487,-1.969,-1.969,-1.969,-1.969,-1.9581,-1.9213,-1.9011,-1.8755,-1.8305,-1.9307,-2.023,-1.9738,-2.0468,-2.1153,-2.0709,-2.061,-2.0709,-2.0993,-2.0795,-2.0505,-2.0165,-1.9683,-1.9171,-1.8631,-1.9007,-1.9384,-1.9459,-1.9773,-2.0313,-2.1179,-2.1267,-2.1581,-2.243,-2.2661,-2.2899,-2.3185,-2.275,-2.225,-2.1569,-2.0889,-2.0234,-1.9655,-1.9157,-1.8918,-1.8881,-1.8403,-1.8665,-1.9607,-2.0059,-2.0204,0.0,0.0,0.0,0.0,0.0,0.0,-1.0881,-1.0787,-1.0691,0.0,-1.1507,-1.1706,-1.1715,-1.1917,-1.2046,-1.2036,-1.2181,-1.207,-1.1469,-1.1669,-1.1918,-1.2017,-1.2314,-1.2471,-1.2471,-1.2618,-1.2666,-1.2725,-1.285,-1.3962,-1.6346,-1.5372,-1.4903,-1.5222,-1.479,-1.4744,-1.5232,-1.5264,-1.5274,-1.5274,-1.5509,-1.5579,-1.5635,-1.6697,-1.7206,-1.7193,-1.7183,-1.7199,-1.7199,-1.7199,-1.7199,-1.7199,-1.7199,-1.7199,-1.7199,-1.7199,-1.7199,-1.7297,-1.7796,-1.8271,-1.8764,-1.9472,-1.969,-1.969,-1.969,-1.9669,-1.9611,-1.9611,-1.9265,-1.8822,-1.8592,-1.9511,-2.0302,-1.9649,-2.085,-2.1827,-2.0759,-2.061,-2.066,-2.051,-2.051,-2.051,-2.051,-2.0105,-1.9648,-1.9183,-1.9409,-1.9472,-1.9033,-1.892,-1.907,-1.966,-1.9773,-2.0315,-2.1602,-2.211,-2.2677,-2.3365,-2.321,-2.2792,-2.1916,-2.1832,-2.1482,-2.0776,-2.0076,-1.9659,-1.9558,-1.912,-1.9304,-2.0048,-2.1058,-2.1267,0.0,0.0,0.0,0.0,0.0,0.0,-1.0731,-1.088,-1.1084,0.0,-1.1533,-1.1685,-1.1922,-1.174,-1.1647,-1.1682,-1.188,-1.2092,-1.208,-1.255,-1.2929,-1.2929,-1.3351,-1.3695,-1.3695,-1.3789,-1.3758,-1.3439,-1.4702,-1.5695,-1.6216,-1.6157,-1.6152,-1.6244,-1.6146,-1.6137,-1.6213,-1.6237,-1.6243,-1.6243,-1.6625,-1.6846,-1.6863,-1.7096,-1.718,-1.7225,-1.7199,-1.7199,-1.7199,-1.7199,-1.7199,-1.7199,-1.7199,-1.7199,-1.7199,-1.7199,-1.7199,-1.7297,-1.7796,-1.8662,-1.9513,-1.9649,-1.969,-1.969,-1.969,-1.969,-1.969,-1.969,-1.9435,-1.9139,-1.8822,-1.9525,-2.0114,-1.9171,-2.0281,-2.1272,-2.0207,-2.0633,-2.0979,-2.0105,-1.9952,-1.9952,-1.9952,-1.985,-1.9761,-1.966,-1.9007,-1.8643,-1.8933,-1.8254,-1.8125,-1.9206,-1.9712,-2.0498,-2.1737,-2.2406,-2.291,-2.3365,-2.333,-2.328,-2.3059,-2.2637,-2.2455,-2.2416,-2.1618,-2.0945,-2.0373,-2.0273,-2.0464,-2.0934,-2.0761,-2.1078,0.0,0.0,0.0,-1.0213,0.0,0.0,0.0,-1.1361,-1.1405,-1.1603,-1.1583,-1.1579,-1.1724,-1.163,-1.1572,-1.1693,-1.2193,-1.2483,-1.2207,-1.2805,-1.3314,-1.3647,-1.3931,-1.4118,-1.4118,-1.4165,-1.4272,-1.4323,-1.5245,-1.5942,-1.6325,-1.6414,-1.6465,-1.6517,-1.648,-1.6627,-1.6871,-1.6863,-1.6837,-1.6837,-1.707,-1.718,-1.7209,-1.7209,-1.7183,-1.7199,-1.7199,-1.7186,-1.7214,-1.7214,-1.7201,-1.7216,-1.7421,-1.7516,-1.7516,-1.776,-1.7572,-1.7237,-1.7499,-1.8535,-1.9622,-1.9221,-1.9368,-1.969,-1.969,-1.969,-1.969,-1.9669,-1.9596,-1.9435,-1.9139,-1.998,-2.0669,-1.9751,-2.079,-2.1657,-2.0547,-2.0746,-2.0845,-2.0067,-1.9926,-1.9862,-1.9798,-1.9914,-1.9965,-1.9798,-1.922,-1.8786,-1.8702,-1.8029,-1.7702,-1.8027,-1.855,-1.9504,-2.1094,-2.1684,-2.238,-2.3433,-2.3509,-2.3509,-2.3509,-2.3318,-2.3173,-2.3088,-2.2408,-2.1803,-2.1262,-2.121,-2.1273,-2.1463,-2.1084,-2.1234,0.0,0.0,0.0,0.0,0.0,-1.0802,0.0,0.0,0.0,-1.1778,-1.1615,-1.1445,0.0,-1.1506,0.0,0.0,0.0,0.0,0.0,-1.2762,0.0,-1.3998,-1.4135,-1.4258,-1.4347,-1.4484,-1.4778,-1.5252,-1.5404,-1.578,-1.6461,-1.6504,-1.6479,-1.6582,-1.6617,-1.6824,-1.7193,-1.7199,-1.7201,-1.7201,-1.7188,-1.7175,-1.7188,-1.7214,-1.7282,-1.7378,-1.7282,-1.7242,-1.7259,-1.7259,-1.7261,-1.7302,-1.7706,-1.7949,-1.807,-1.8397,-1.8135,-1.7573,-1.7532,-1.8375,-1.9382,-1.889,-1.9163,-1.969,-1.969,-1.969,-1.969,-1.9632,-1.9632,-1.9647,-1.9523,-2.0474,-2.1307,-2.0656,-2.1609,-2.236,-2.1224,-2.1028,-2.0944,-2.0321,-2.0233,-2.0131,-1.9862,-2.0016,-2.0131,-1.9914,-1.9597,-1.9195,-1.8503,-1.8124,-1.7657,-1.7149,-1.7689,-1.8737,-2.0382,-2.094,-2.1838,-2.3359,-2.3462,-2.3513,-2.3628,-2.3878,-2.3793,-2.3314,-2.3015,-2.2665,-2.2125,-2.2075,-2.2013,-2.1827,-2.1416,-2.1415,0.0,0.0,0.0,0.0,-1.0215,0.0,0.0,0.0,-1.1499,-1.1836,0.0,-1.1276,-1.146,0.0,0.0,0.0,0.0,0.0,-1.2095,-1.2856,-1.3412,-1.3496,-1.3982,-1.4446,-1.4879,-1.5241,-1.5617,-1.6051,-1.5932,-1.6036,-1.6497,-1.6645,-1.6756,-1.6756,-1.6985,-1.714,-1.7194,-1.7209,-1.7207,-1.7207,-1.721,-1.7182,-1.7182,-1.7203,-1.7502,-1.807,-1.7569,-1.7423,-1.749,-1.749,-1.7476,-1.749,-1.7985,-1.8472,-1.892,-1.874,-1.8784,-1.8851,-1.8749,-1.8685,-1.8745,-1.9353,-1.9624,-1.969,-1.969,-1.969,-1.969,-1.969,-1.9632,-1.9708,-2.0159,-2.0828,-2.1398,-2.1311,-2.2279,-2.292,-2.1852,-2.1974,-2.2035,-2.1091,-2.0993,-2.0845,-2.008,-2.008,-2.0182,-2.0182,-1.9696,-1.9195,-1.8669,-1.8516,-1.8338,-1.7847,-1.874,-1.972,-2.0597,-2.1133,-2.1927,-2.3023,-2.3044,-2.3334,-2.3865,-2.4144,-2.393,-2.3314,-2.3682,-2.3636,-2.2967,-2.3267,-2.304,-2.2286,-2.121,-2.1494,0.0,0.0,0.0,0.0,0.0,0.0,-1.1079,0.0,-1.1243,0.0,0.0,0.0,0.0,0.0,0.0,0.0,-1.1812,0.0,0.0,0.0,-1.3093,0.0,0.0,0.0,-1.4141,-1.4646,-1.5101,-1.5241,-1.5861,-1.6313,-1.6509,-1.6833,-1.7125,-1.7374,-1.7491,-1.792,-1.8635,-1.8641,-1.8662,-1.8662,-1.8644,-1.8159,-1.7182,-1.7209,-1.7556,-1.821,-1.8388,-1.8087,-1.749,-1.749,-1.8142,-1.9152,-1.9351,-1.9336,-1.9232,-1.9413,-1.9538,-1.9619,-1.9229,-1.9192,-1.9375,-1.9624,-1.969,-1.969,-1.969,-1.969,-1.969,-1.969,-1.969,-1.9692,-1.9879,-2.0763,-2.1528,-2.1449,-2.2481,-2.3246,-2.2438,-2.2452,-2.242,-2.1657,-2.1369,-2.1091,-2.0759,-2.0573,-2.0435,-2.0233,-2.0191,-1.9941,-1.9239,-1.9257,-1.9071,-1.852,-1.8611,-1.9256,-2.0607,-2.057,-2.1238,-2.2881,-2.3334,-2.3735,-2.4144,-2.4234,-2.4292,-2.4163,-2.4118,-2.3845,-2.3264,-2.3148,-2.2911,-2.2704,-2.228,-2.2135,-0.8346,0.0,0.0,0.0,0.0,0.0,0.0,0.0,0.0,0.0,0.0,0.0,0.0,0.0,-1.1341,-1.1348,0.0,-1.2268,0.0,-1.214,0.0,0.0,0.0,0.0,0.0,-1.4486,-1.494,-1.5156,-1.6023,-1.6599,-1.668,-1.7144,-1.7515,-1.7692,-1.7973,-1.8528,-1.9484,-1.9628,-1.9704,-1.9704,-1.9701,-1.8941,-1.7556,-1.757,-1.7835,-1.8375,-1.886,-1.8745,-1.8247,-1.8021,-1.878,-2.0117,-2.0258,-1.999,-1.963,-1.994,-2.0126,-2.0106,-1.9603,-1.9654,-1.9843,-1.9741,-1.969,-1.969,-1.969,-1.969,-1.969,-1.969,-1.969,-1.9735,-1.9834,-2.0765,-2.1655,-2.1469,-2.2423,-2.3212,-2.2805,-2.2687,-2.2597,-2.2239,-2.1894,-2.1609,-2.1465,-2.1019,-2.0599,-2.0385,-2.0549,-2.0388,-1.9512,-1.966,-1.9512,-1.8767,-1.861,-1.9068,-2.0371,-2.0178,-2.0884,-2.2747,-2.3293,-2.3707,-2.4112,-2.4023,-2.407,-2.4307,-2.4013,-2.3675,-2.3362,-2.3086,-2.3027,-2.3109,-2.2814,-2.246,0.0,0.0,0.0,-0.9614,0.0,0.0,0.0,0.0,-1.0264,0.0,0.0,0.0,-1.1147,-1.1185,-1.1148,-1.0948,-1.1483,0.0,0.0,0.0,0.0,0.0,0.0,0.0,0.0,-1.5271,-1.5783,0.0,-1.6675,-1.6851,-1.716,-1.7666,-1.7828,-1.7516,-1.8394,-1.8878,-1.8939,-1.9457,-1.9705,-1.9705,-1.9708,-1.9278,-1.8469,-1.8446,-1.8555,-1.8695,-1.872,-1.9288,-2.014,-1.9367,-1.9241,-1.9564,-2.0115,-2.0285,-2.027,-2.027,-2.0304,-2.027,-2.0115,-1.996,-1.9797,-1.9726,-1.969,-1.969,-1.969,-1.969,-1.969,-1.969,-1.969,-1.9803,-2.0347,-2.1093,-2.1655,-2.152,-2.2122,-2.2697,-2.2697,-2.2712,-2.275,-2.2863,-2.2844,-2.2694,-2.2175,-2.1299,-2.0699,-2.0712,-2.0712,-2.0293,-1.9081,-1.9447,-1.9368,-1.8244,-1.9094,-1.9773,-1.9826,-2.0371,-2.1235,-2.2524,-2.2643,-2.2974,-2.3697,-2.3285,-2.3031,-2.3031,-2.319,-2.3229,-2.3216,-2.3464,-2.3568,-2.3527,-2.2101,-2.2179,-1.0765,-1.1371,-1.176,-1.0508,0.0,0.0,0.0,0.0,0.0,0.0,0.0,0.0,0.0,0.0,-1.1394,-1.1424,-1.1757,-1.1972,0.0,0.0,0.0,0.0,0.0,0.0,0.0,0.0,0.0,0.0,-1.5982,-1.6579,-1.7544,-1.8108,-1.8383,-1.8344,-1.9011,-1.9384,-1.9427,-1.9603,-1.969,-1.969,-1.9692,-1.9574,-1.9317,-1.9434,-1.9558,-1.9636,-1.9722,-1.994,-2.0273,-2.0,-1.9969,-2.005,-2.022,-2.0304,-2.0304,-2.0304,-2.0304,-2.027,-2.0096,-1.9919,-1.9797,-1.9726,-1.969,-1.969,-1.969,-1.969,-1.969,-1.969,-1.969,-1.9735,-1.9937,-2.049,-2.1051,-2.0959,-2.1505,-2.2143,-2.2619,-2.2724,-2.282,-2.3259,-2.3113,-2.2844,-2.2649,-2.2095,-2.1541,-2.1229,-2.0898,-2.0555,-2.0162,-2.0293,-2.0267,-1.9874,-1.9799,-1.9956,-2.0384,-2.0644,-2.1178,-2.21,-2.2127,-2.2459,-2.3205,-2.3085,-2.303,-2.3136,-2.3346,-2.3296,-2.2871,-2.315,-2.314,-2.2912,-2.2434,-2.2464,-1.231,-1.2783,-1.2928,-1.1728,-1.1836,0.0,-1.0884,0.0,-1.1077,0.0,0.0,0.0,0.0,0.0,-1.1689,-1.208,-1.2203,-1.233,0.0,-1.3069,0.0,0.0,0.0,0.0,0.0,0.0,-1.4556,-1.5557,-1.6264,-1.7107,-1.8092,-1.863,-1.886,-1.8846,-1.9325,-1.9647,-1.969,-1.969,-1.969,-1.969,-1.969,-1.9726,-1.9792,-1.9919,-2.0041,-2.0172,-2.0266,-2.0304,-2.0304,-2.0304,-2.0304,-2.0304,-2.0304,-2.0304,-2.0304,-2.0304,-2.0304,-2.027,-2.0096,-1.9955,-1.9848,-1.9762,-1.9726,-1.969,-1.969,-1.969,-1.9735,-1.9989,-1.9869,-1.9735,-1.9989,-2.0378,-2.0662,-2.0408,-2.1036,-2.1814,-2.2233,-2.2517,-2.2862,-2.3475,-2.3377,-2.3157,-2.3157,-2.2558,-2.1955,-2.1458,-2.1131,-2.0818,-2.0424,-2.0398,-2.0319,-2.0109,-1.9891,-2.0005,-2.042,-2.0545,-2.0881,-2.1616,-2.1482,-2.1837,-2.2875,-2.2698,-2.2641,-2.2844,-2.2995,-2.2887,-2.2533,-2.2788,-2.2828,-2.2601,-2.2783,-2.2893]}]]